[[{"header":{"parameterUnit":"m.s-1","parameterCategory":1,"la1":30.6,"la2":29.2853,"lo1":-89.7004,"lo2":-87.6739,"dy":0.0162,"dx":0.0183,"nx":112,"ny":82,"refTime":"2025-02-23T18:00:00:Z","depth":0,"parameterNumber":2,"parameterNumberName":"U-component_of_WINDS"},"data":[0.0,0.0,0.0,0.0,0.0,0.0,0.0,0.0,0.0,0.0,0.0,0.0,0.0,0.0,0.0,0.0,0.0,0.0,0.0,0.0,0.0,0.0,0.0,0.0,0.0,0.0,0.0,0.0,0.0,0.0,0.0,0.0,0.0,0.0,0.0,0.0,0.0,0.0,0.0,0.0,0.0,0.0,0.0,0.0,0.0,0.0,0.0,0.0,0.0,0.0,0.0,0.0,0.0,0.0,0.0,0.0,0.0,0.0,0.0,0.0,0.0,0.0,0.0,0.0,0.0,0.0,0.0,0.0,0.0,0.0,0.0,0.0,0.0,0.0,0.0,0.0,0.0,0.0,0.0,0.0,0.0,0.0,0.0,0.0,0.0,0.0,0.0,0.0,0.0,0.0,0.0,1.5721,1.502,1.4664,1.4927,1.4939,1.4731,1.4173,0.0,0.0,0.0,0.0,0.0,0.0,0.0,0.0,0.0,0.0,0.0,0.0,0.0,0.0,0.0,0.0,0.0,0.0,0.0,0.0,0.0,0.0,0.0,0.0,0.0,0.0,0.0,0.0,0.0,0.0,0.0,0.0,0.0,0.0,0.0,0.0,0.0,0.0,0.0,0.0,0.0,0.0,0.0,0.0,0.0,0.0,0.0,0.0,0.0,0.0,0.0,0.0,0.0,0.0,0.0,0.0,0.0,0.0,0.0,0.0,0.0,0.0,0.0,0.0,0.0,0.0,0.0,0.0,0.0,0.0,0.0,0.0,0.0,0.0,0.0,0.0,0.0,0.0,0.0,0.0,0.0,0.0,0.0,0.0,0.0,0.0,0.0,0.0,0.0,0.0,0.0,0.0,0.0,0.0,0.0,0.0,0.0,0.0,0.0,0.0,0.0,0.0,0.0,0.0,1.4981,1.4875,1.4388,1.4096,1.4354,1.4167,1.3865,1.3322,0.0,0.0,0.0,0.0,0.0,0.0,0.0,0.0,0.0,0.0,0.0,0.0,0.0,0.0,0.0,0.0,0.0,0.0,0.0,0.0,0.0,0.0,0.0,0.0,0.0,0.0,0.0,0.0,0.0,0.0,0.0,0.0,0.0,0.0,0.0,0.0,0.0,0.0,0.0,0.0,0.0,0.0,0.0,0.0,0.0,0.0,0.0,0.0,0.0,0.0,0.0,0.0,0.0,0.0,0.0,0.0,0.0,0.0,0.0,0.0,0.0,0.0,0.0,0.0,0.0,0.0,0.0,0.0,0.0,0.0,0.0,0.0,0.0,0.0,0.0,0.0,0.0,0.0,0.0,0.0,0.0,0.0,0.0,0.0,0.0,0.0,0.0,0.0,0.0,0.0,0.0,0.0,0.0,0.0,0.0,0.0,0.0,0.0,0.0,0.0,0.0,0.0,0.0,1.4316,1.3999,1.4049,1.3808,1.3688,1.39,1.4056,1.3845,1.3169,1.2942,0.0,0.0,0.0,0.0,0.0,0.0,0.0,0.0,0.0,0.0,0.0,0.0,0.0,0.0,0.0,0.0,0.0,0.0,0.0,0.0,0.0,0.0,0.0,0.0,0.0,0.0,0.0,0.0,0.0,0.0,0.0,0.0,0.0,0.0,0.0,0.0,0.0,0.0,0.0,0.0,0.0,0.0,0.0,0.0,0.0,0.0,0.0,0.0,0.0,0.0,0.0,0.0,0.0,0.0,0.0,0.0,0.0,0.0,0.0,0.0,0.0,0.0,0.0,0.0,0.0,0.0,0.0,0.0,0.0,0.0,0.0,0.0,0.0,0.0,0.0,0.0,0.0,0.0,0.0,0.0,0.0,0.0,0.0,0.0,0.0,0.0,0.0,0.0,0.0,0.0,0.0,0.0,0.0,0.0,0.0,0.0,0.0,0.0,0.0,0.0,0.0,0.0,1.3446,1.3385,1.3522,1.3437,1.3437,1.3437,1.3788,1.3535,1.2673,1.1966,0.0,0.0,0.0,0.0,0.0,0.0,0.0,0.0,0.0,0.0,0.0,0.0,0.0,0.0,0.0,0.0,0.0,0.0,0.0,0.0,0.0,0.0,0.0,0.0,0.0,0.0,0.0,0.0,0.0,0.0,0.0,0.0,0.0,0.0,0.0,0.0,0.0,0.0,0.0,0.0,0.0,0.0,0.0,0.0,0.0,0.0,0.0,0.0,0.0,0.0,0.0,0.0,0.0,0.0,0.0,0.0,0.0,0.0,0.0,0.0,0.0,0.0,0.0,0.0,0.0,0.0,0.0,0.0,0.0,0.0,0.0,0.0,0.0,0.0,0.0,0.0,0.0,0.0,0.0,0.0,0.0,0.0,0.0,0.0,0.0,0.0,0.0,0.0,0.0,0.0,0.0,0.0,0.0,0.0,0.0,0.0,0.0,0.0,0.0,0.0,0.0,0.0,1.3431,1.3773,1.3568,1.3244,1.3147,1.3147,1.2986,1.2499,1.1375,1.0905,0.0,0.0,0.0,0.0,0.0,0.0,0.0,0.0,0.0,0.0,0.0,0.0,0.0,0.0,0.0,0.0,0.0,0.0,0.0,0.0,0.0,0.0,0.0,0.0,0.0,0.0,0.0,0.0,0.0,0.0,0.0,0.0,0.0,0.0,0.0,0.0,0.0,0.0,0.0,0.0,0.0,0.0,0.0,0.0,0.0,0.0,0.0,0.0,0.0,0.0,0.0,0.0,0.0,0.0,0.0,0.0,0.0,0.0,0.0,0.0,0.0,0.0,0.0,0.0,0.0,0.0,0.0,0.0,0.0,0.0,0.0,0.0,0.0,0.0,0.0,0.0,0.0,0.0,0.0,0.0,0.0,0.0,0.0,0.0,0.0,0.0,0.0,0.0,0.0,0.0,0.0,0.0,0.0,0.0,0.0,0.0,0.0,0.0,0.0,0.0,0.0,0.0,1.2792,1.2984,0.0,1.2953,1.2921,1.3062,1.3073,1.2516,1.1385,0.0,0.0,0.0,0.0,0.0,0.0,0.0,0.0,0.0,0.0,0.0,0.0,0.0,0.0,0.0,0.0,0.0,0.0,0.0,0.0,0.0,0.0,0.0,0.0,0.0,0.0,0.0,0.0,0.0,0.0,0.0,0.0,0.0,0.0,0.0,0.0,0.0,0.0,0.0,0.0,0.0,0.0,0.0,0.0,0.0,0.0,0.0,0.0,0.0,0.0,0.0,0.0,0.0,0.0,0.0,0.0,0.0,0.0,0.0,0.0,0.0,0.0,0.0,0.0,0.0,0.0,0.0,0.0,0.0,0.0,0.0,0.0,0.0,0.0,0.0,0.0,0.0,0.0,0.0,0.0,0.0,0.0,0.0,0.0,0.0,0.0,0.0,0.0,0.0,0.0,0.0,0.0,0.0,0.0,0.0,0.0,0.0,0.0,0.0,0.0,0.0,0.0,1.229,1.2422,1.2587,0.0,1.2759,1.2824,1.2985,1.2931,1.2227,1.0891,0.0,0.0,0.0,0.0,0.0,0.0,0.0,0.0,0.0,0.0,0.0,0.0,0.0,0.0,0.0,0.0,0.0,0.0,0.0,0.0,0.0,0.0,0.0,0.0,0.0,0.0,0.0,0.0,0.0,0.0,0.0,0.0,0.0,0.0,0.0,0.0,0.0,0.0,0.0,0.0,0.0,0.0,0.0,0.0,0.0,0.0,0.0,0.0,0.0,0.0,0.0,0.0,0.0,0.0,0.0,0.0,0.0,0.0,0.0,0.0,0.0,0.0,0.0,0.0,0.0,0.0,0.0,0.0,0.0,0.0,0.0,0.0,0.0,0.0,0.0,0.0,0.0,0.0,0.0,0.0,0.0,0.0,0.0,0.0,0.0,0.0,0.0,0.0,0.0,0.0,0.0,0.0,0.0,0.0,0.0,0.0,0.0,0.0,0.0,0.0,0.0,0.0,1.2107,1.2468,1.2759,1.2759,1.2759,1.2759,1.277,1.2554,1.1552,0.0,0.0,0.0,0.0,0.0,0.0,0.0,0.0,0.0,0.0,0.0,0.0,0.0,0.0,0.0,0.0,0.0,0.0,0.0,0.0,0.0,0.0,0.0,0.0,0.0,0.0,0.0,0.0,0.0,0.0,0.0,0.0,0.0,0.0,0.0,0.0,0.0,0.0,0.0,0.0,0.0,0.0,0.0,0.0,0.0,0.0,0.0,0.0,0.0,0.0,0.0,0.0,0.0,0.0,0.0,0.0,0.0,0.0,0.0,0.0,0.0,0.0,0.0,0.0,0.0,0.0,0.0,0.0,0.0,0.0,0.0,0.0,0.0,0.0,0.0,0.0,0.0,0.0,0.0,0.0,0.0,0.0,0.0,0.0,0.0,0.0,0.0,0.0,0.0,0.0,0.0,0.0,0.0,0.0,0.0,0.0,0.0,0.0,0.0,0.0,0.0,0.0,0.0,1.2107,1.2468,1.2759,1.2759,1.2759,1.2531,1.1895,1.1697,1.061,0.8344,0.0,0.0,0.0,0.0,0.0,0.0,0.0,0.0,0.0,0.0,0.0,0.0,0.0,0.0,0.0,0.0,0.0,0.0,0.0,0.0,0.0,0.0,0.0,0.0,0.0,0.0,0.0,0.0,0.0,0.0,0.0,0.0,0.0,0.0,0.0,0.0,0.0,0.0,0.0,0.0,0.0,0.0,0.0,0.0,0.0,0.0,0.0,0.0,0.0,0.0,0.0,0.0,0.0,0.0,0.0,0.0,0.0,0.0,0.0,0.0,0.0,0.0,0.0,0.0,0.0,0.0,0.0,0.0,0.0,0.0,0.0,0.0,0.0,0.0,0.0,0.0,0.0,0.0,0.0,0.0,0.0,0.0,0.0,0.0,0.0,0.0,0.0,0.0,0.0,0.0,0.0,0.0,0.0,0.0,0.0,0.0,0.0,0.0,0.0,0.0,0.0,0.0,1.2005,1.2468,1.2759,1.2759,1.2457,1.1923,1.1458,1.0852,0.9694,0.7845,0.0,0.0,0.0,0.0,0.0,0.0,0.0,0.0,0.0,0.0,0.0,0.0,0.0,0.0,0.0,0.0,0.0,0.0,0.0,0.0,0.0,0.0,0.0,0.0,0.0,0.0,0.0,0.0,0.0,0.0,0.0,0.0,0.0,0.0,0.0,0.0,0.0,0.0,0.0,0.0,0.0,0.0,0.0,0.0,0.0,0.0,0.0,0.0,0.0,0.0,0.0,0.0,0.0,0.0,0.0,0.0,0.0,0.0,0.0,0.0,0.0,0.0,0.0,0.0,0.0,0.0,0.0,0.0,0.0,0.0,0.0,0.0,0.0,0.0,0.0,0.0,0.0,0.0,0.0,0.0,0.0,0.0,0.0,0.0,0.0,0.0,0.0,0.0,0.0,0.0,0.0,0.0,0.0,0.0,0.0,0.0,0.0,0.0,0.0,0.0,0.0,0.0,1.1984,1.2468,1.2662,1.2662,1.1668,1.0974,1.0877,0.9993,0.8855,0.7563,0.0,0.0,0.0,0.0,0.0,0.0,0.0,0.0,0.0,0.0,0.0,0.0,0.0,0.0,0.0,0.0,0.0,0.0,0.0,0.0,0.0,0.0,0.0,0.0,0.0,0.0,0.0,0.0,0.0,0.0,0.0,0.0,0.0,0.0,0.0,0.0,0.0,0.0,0.0,0.0,0.0,0.0,0.0,0.0,0.0,0.0,0.0,0.0,0.0,0.0,0.0,0.0,0.0,0.0,0.0,0.0,0.0,0.0,0.0,0.0,2.861,0.0,0.0,0.0,0.0,0.0,0.0,0.0,0.0,0.0,0.0,0.0,0.0,0.0,0.0,0.0,0.0,0.0,0.0,0.0,0.0,0.0,0.0,0.0,0.0,0.0,0.0,0.0,0.0,0.0,0.0,0.0,0.0,0.0,0.0,0.0,0.0,0.0,0.0,0.0,0.0,0.0,1.1984,1.1782,1.157,1.157,1.0583,0.96,0.8711,0.8513,0.7704,0.6195,0.6045,0.0,0.0,0.0,0.0,0.0,0.0,0.0,0.0,0.0,0.0,0.0,0.0,0.0,0.0,0.0,0.0,0.0,0.0,0.0,0.0,0.0,0.0,0.0,0.0,0.0,0.0,0.0,0.0,0.0,0.0,0.0,0.0,0.0,0.0,0.0,0.0,0.0,0.0,0.0,0.0,0.0,0.0,0.0,0.0,0.0,0.0,0.0,0.0,0.0,0.0,0.0,0.0,0.0,0.0,0.0,0.0,0.0,0.0,0.0,0.0,2.6892,0.0,0.0,0.0,0.0,0.0,0.0,0.0,0.0,0.0,0.0,0.0,0.0,0.0,0.0,0.0,0.0,0.0,0.0,0.0,0.0,0.0,0.0,0.0,0.0,0.0,0.0,0.0,0.0,0.0,0.0,0.0,0.0,0.0,0.0,0.0,0.0,0.0,0.0,0.0,0.0,1.1191,1.1143,1.0974,1.0485,0.9501,0.8619,0.8024,0.7528,0.6893,0.6007,0.5817,0.0,0.0,0.0,0.0,0.0,0.0,0.0,0.0,0.0,0.0,0.0,0.0,0.0,0.0,0.0,0.0,0.0,0.0,0.0,0.0,0.0,0.0,0.0,0.0,0.0,0.0,0.0,0.0,0.0,0.0,0.0,0.0,0.0,0.0,0.0,0.0,0.0,0.0,0.0,0.0,0.0,0.0,0.0,0.0,0.0,0.0,0.0,0.0,0.0,0.0,0.0,0.0,0.0,3.0745,3.0388,2.9306,2.9594,2.8826,2.7151,2.6431,2.598,2.5709,0.0,0.0,0.0,0.0,0.0,0.0,0.0,0.0,0.0,0.0,0.0,0.0,0.0,0.0,0.0,0.0,0.0,0.0,0.0,0.0,0.0,0.0,0.0,0.0,0.0,1.6162,1.5345,0.0,0.0,0.0,0.0,0.0,0.0,0.0,0.0,0.0,0.0,0.0,0.0,1.0272,1.0432,1.0288,0.941,0.8322,0.7726,0.7726,0.693,0.6388,0.6371,0.604,0.5752,0.0,0.0,0.0,0.0,0.0,0.0,0.0,0.0,0.0,0.0,0.0,0.0,0.0,0.0,0.0,0.0,0.0,0.0,0.0,0.0,0.0,0.0,0.0,0.0,0.0,0.0,0.0,0.0,0.0,0.0,0.0,0.0,3.8352,3.8352,0.0,0.0,0.0,0.0,0.0,0.0,0.0,0.0,0.0,0.0,0.0,0.0,0.0,3.0899,3.0899,3.1145,3.1241,3.1266,3.1342,3.077,2.9858,2.9145,2.8223,2.7194,2.6267,0.0,2.5378,2.602,0.0,0.0,0.0,0.0,0.0,0.0,0.0,0.0,0.0,0.0,0.0,0.0,0.0,0.0,0.0,0.0,0.0,0.0,0.0,0.0,0.0,0.0,1.7943,1.5889,1.554,1.5337,0.0,1.2951,1.2423,1.198,1.1252,0.0,0.0,0.0,0.0,0.0,0.0,0.0,1.0407,0.9268,0.8414,0.8223,0.7229,0.6637,0.6637,0.6437,0.6487,0.6663,0.6222,0.588,0.5878,0.5278,0.0,0.0,0.0,0.0,0.0,0.0,0.0,0.0,0.0,0.0,0.0,0.0,0.0,0.0,0.0,0.0,0.0,0.0,0.0,0.0,0.0,0.0,0.0,0.0,0.0,0.0,0.0,0.0,0.0,3.7691,3.7462,3.7462,3.6452,3.5655,0.0,0.0,0.0,0.0,0.0,0.0,0.0,0.0,0.0,3.1538,3.1327,3.1347,3.1675,3.1518,3.1141,3.0646,3.094,3.03,2.8851,2.8768,2.8181,2.7197,2.6827,2.6321,2.5706,2.5785,2.5606,2.5233,0.0,0.0,0.0,0.0,2.4633,2.4237,2.4323,2.3414,0.0,2.1674,0.0,0.0,0.0,0.0,0.0,0.0,0.0,0.0,0.0,0.0,0.0,1.6195,1.5363,1.4527,1.4016,1.3088,1.2326,0.0,1.1822,1.1499,1.1058,0.0,0.0,0.0,0.0,0.0,0.9466,0.8557,0.7726,0.7129,0.6637,0.6437,0.6437,0.6437,0.6415,0.6558,0.6299,0.6123,0.6037,0.5507,0.5235,0.0,0.0,0.0,0.0,0.0,0.0,0.0,0.0,0.0,0.0,0.0,0.0,0.0,0.0,0.0,0.0,0.0,0.0,0.0,0.0,0.0,0.0,0.0,0.0,0.0,0.0,0.0,0.0,3.6878,3.6749,3.661,3.5952,3.5356,0.0,0.0,0.0,0.0,0.0,0.0,3.2128,3.1559,3.1554,3.2155,3.182,3.1813,3.2215,3.1605,3.1038,3.0276,3.0399,2.9507,2.7926,2.8272,2.7977,2.7071,2.7071,2.6791,2.6235,2.5715,2.5537,2.5447,2.4666,2.4296,2.4255,2.4707,2.4497,2.3998,2.4107,2.3221,2.1951,2.1553,0.0,1.8518,1.8936,0.0,0.0,0.0,0.0,1.7642,1.7873,1.718,1.6252,1.6002,1.4908,1.3858,1.3958,1.318,1.2533,0.0,1.2318,1.2091,1.1381,0.0,0.0,0.0,0.0,0.9209,0.839,0.789,0.7329,0.6537,0.6437,0.6437,0.6437,0.6437,0.6437,0.6537,0.6361,0.6257,0.6233,0.5844,0.5616,0.5464,0.0,0.0,0.0,0.0,0.0,0.0,0.0,0.0,0.0,0.0,0.0,0.0,0.0,0.0,0.0,0.0,0.0,0.0,0.0,0.0,0.0,0.0,0.0,0.0,0.0,0.0,0.0,0.0,0.0,3.5817,3.5262,0.0,0.0,0.0,0.0,3.336,3.3335,3.2997,3.2215,3.2139,3.1913,3.1436,3.1913,3.219,3.2215,3.1525,3.124,3.1151,2.9988,2.8914,2.7891,2.7913,2.7389,2.6496,2.6496,2.6476,2.6436,2.6215,2.5544,2.4484,2.4022,2.3579,2.3362,2.3978,2.3513,2.2637,2.383,2.2763,2.0869,2.0676,1.9625,1.8271,1.8361,1.7987,0.0,0.0,1.7654,1.761,1.6564,1.6512,1.6263,1.4461,1.4004,1.3715,1.3061,1.2931,1.3071,0.0,1.2522,1.214,1.2097,0.0,1.0433,1.0135,0.8792,0.778,0.7787,0.7045,0.6437,0.6437,0.6437,0.6437,0.6437,0.6437,0.6537,0.6742,0.6531,0.6476,0.6646,0.6317,0.5953,0.5719,0.5469,0.0,0.0,0.0,0.0,0.0,0.0,0.0,0.0,0.0,0.0,0.0,0.0,0.0,0.0,0.0,0.0,0.0,0.0,0.0,0.0,0.0,0.0,0.0,0.0,0.0,0.0,0.0,0.0,3.5226,3.4873,0.0,3.4203,3.3785,3.3233,3.271,3.26,3.25,3.2215,3.2215,3.2206,3.2212,3.1761,3.1487,3.1336,3.0504,2.9761,2.9098,2.8659,2.7934,2.703,2.703,2.686,2.6496,2.6496,2.64,2.6244,2.5598,2.5117,2.4887,2.4444,2.4002,2.3639,2.4059,2.3654,2.2862,2.2606,2.1731,2.0462,1.9314,1.864,1.8087,1.7811,1.752,1.7335,1.7335,1.703,1.6714,1.6319,1.5504,1.469,1.4016,1.3522,1.3147,1.2856,1.2824,1.2888,1.2888,1.2684,1.2457,1.2307,1.1311,1.0445,1.037,0.8808,0.7711,0.7711,0.6952,0.6437,0.6437,0.6437,0.6437,0.6437,0.6437,0.6437,0.6537,0.6437,0.6415,0.6476,0.636,0.6127,0.5964,0.5725,0.5447,0.0,0.0,0.0,0.0,0.0,0.0,0.0,0.0,0.0,0.0,0.0,0.0,0.0,0.0,0.0,0.0,0.0,0.0,0.0,0.0,0.0,0.0,0.0,0.0,0.0,0.0,3.515,3.4943,3.5018,3.4831,3.4274,3.3806,3.329,3.2541,3.2516,3.2516,3.2516,3.2516,3.2411,3.2239,3.1601,3.0956,3.0418,2.9326,2.8495,2.784,2.7369,2.6839,2.6207,2.6207,2.6207,2.6207,2.6207,2.611,2.5954,2.5224,2.4941,2.4834,2.4237,2.3839,2.358,2.3474,2.3038,2.2246,2.1069,2.0257,1.9546,1.8458,1.7994,1.7807,1.7419,1.7326,1.7232,1.7044,1.6574,1.6089,1.552,1.4663,1.3811,1.3619,1.3147,1.2759,1.2759,1.2759,1.2759,1.2759,1.2759,1.2684,1.2457,1.1199,1.018,1.0108,0.8453,0.7296,0.7296,0.6784,0.6437,0.6437,0.6437,0.6437,0.6437,0.6399,0.6382,0.6382,0.6382,0.6382,0.6382,0.6306,0.623,0.6149,0.5915,0.5654,0.5371,0.0,0.0,0.0,0.0,0.0,0.0,0.0,0.0,0.0,0.0,0.0,0.0,0.0,0.0,0.0,0.0,0.0,0.0,0.0,0.0,0.0,0.0,0.0,3.3718,3.4847,3.5616,3.5046,3.5507,3.5466,3.4375,3.3985,3.3671,3.3144,3.3093,3.3068,3.3068,3.3068,3.2525,3.1223,3.1134,3.0574,2.9304,2.8143,2.7505,2.7505,2.6304,2.5742,2.5742,2.5742,2.5742,2.5742,2.5742,2.5723,2.5684,2.5234,2.4785,2.4316,2.3477,2.3057,2.295,2.2227,2.1516,2.0727,1.9271,1.8458,1.8087,1.8087,1.7714,1.7326,1.7326,1.7232,1.7138,1.6386,1.6183,1.5805,1.4292,1.3908,1.3715,1.2953,1.2759,1.2759,1.2759,1.2759,1.2759,1.2759,1.2759,1.2694,1.2373,1.0854,0.9543,0.9172,0.7635,0.0,0.6437,0.6437,0.6437,0.6437,0.6437,0.6437,0.6437,0.6333,0.6268,0.6274,0.6268,0.6268,0.6274,0.6274,0.6274,0.6274,0.6034,0.585,0.5741,0.0,0.0,0.0,0.0,0.0,0.0,0.0,0.0,0.0,0.0,0.0,0.0,0.0,0.0,0.0,0.0,0.0,0.0,0.0,0.0,0.0,0.0,3.4999,3.4842,3.5253,3.5634,3.5865,3.572,3.5521,3.5193,3.4374,3.3847,3.3696,3.3294,3.3068,3.3068,3.3068,3.2438,3.1069,3.0328,2.9212,2.784,2.6744,2.6207,2.6207,2.582,2.5742,2.5742,2.5742,2.5742,2.5742,2.5742,2.5547,2.5215,2.4785,2.4336,2.3945,2.3711,2.2955,2.205,2.2031,2.0944,1.9513,1.8996,1.8272,1.7606,1.7994,1.7714,1.7326,1.7326,1.6951,1.648,1.6292,1.5425,1.4472,1.4004,1.3522,1.305,1.2856,1.2759,1.2759,1.2759,1.2759,1.2759,1.2759,1.2165,1.1648,1.1492,1.0458,0.9296,0.8456,0.7205,0.0,0.6437,0.6437,0.6437,0.6437,0.6437,0.6437,0.6437,0.6333,0.6404,0.6685,0.6606,0.66,0.6691,0.6691,0.6592,0.6388,0.6159,0.5975,0.0,0.0,0.0,0.0,0.0,0.0,0.0,0.0,0.0,0.0,0.0,0.0,0.0,0.0,0.0,0.0,0.0,0.0,0.0,0.0,0.0,0.0,3.4868,3.5469,3.5765,3.5838,3.5904,3.6055,3.5941,3.5805,3.5554,3.4751,3.4148,3.3922,3.3395,3.3068,3.3068,3.2698,3.1801,3.0328,2.9304,2.8028,2.6552,2.6014,2.5742,2.5742,2.5742,2.5742,2.5742,2.5742,2.5742,0.0,2.5527,2.5312,2.5019,2.4414,2.4004,0.0,0.0,0.0,0.0,0.0,1.9679,1.8319,1.8257,1.7792,1.7326,1.7699,1.7714,1.7527,1.7138,1.6857,1.648,1.5629,1.4771,1.4004,1.3522,1.3147,1.2759,1.2759,1.2759,1.2759,1.2759,1.2759,1.2759,1.2759,1.196,0.0,1.0583,0.96,0.8718,0.8124,0.7129,0.6437,0.6437,0.6437,0.6437,0.6437,0.6437,0.6437,0.6437,0.6333,0.0,0.0,0.0,0.6588,0.6564,0.6569,0.0,0.0,0.0,0.0,0.0,0.0,0.0,0.0,0.5975,0.6051,0.0,0.0,0.0,0.0,0.0,0.0,0.0,0.0,0.0,0.0,0.0,0.0,0.0,0.0,0.0,0.0,3.5391,3.5748,3.647,3.6405,3.6274,3.6024,3.6269,3.6182,3.568,3.5127,3.4575,3.4022,3.347,3.3144,3.3068,0.0,0.0,0.0,0.0,2.72,2.5742,2.5742,2.5742,2.5742,2.5742,2.5742,2.5742,2.5742,2.5703,2.5644,2.5234,2.5019,2.4863,2.4102,2.366,2.3493,2.3017,2.2227,2.1159,1.933,1.8056,1.7326,1.7326,0.0,0.0,1.7419,1.7714,1.7807,1.6857,1.6763,1.6669,1.4771,1.4196,1.3919,1.305,1.2759,1.2759,1.2759,1.2759,1.2759,1.2759,1.2759,1.2759,1.2759,1.1873,1.0681,0.9805,0.8718,0.7925,0.7826,0.703,0.6437,0.6437,0.6437,0.6437,0.6437,0.0,0.0,0.6437,0.6333,0.6274,0.6388,0.6388,0.6388,0.6388,0.6301,0.635,0.6437,0.6448,0.6502,0.66,0.66,0.6551,0.6448,0.6116,0.6192,0.0,0.0,0.0,0.0,0.0,0.0,0.0,0.0,0.0,0.0,0.0,0.0,0.0,0.0,0.0,3.5286,3.5895,3.6366,3.6328,3.6463,3.6557,3.6557,3.6471,3.6307,3.6207,3.5705,3.5152,3.46,3.4048,3.3545,3.3093,3.1952,0.0,2.9396,2.8308,2.703,2.5742,2.5742,2.5742,2.5742,0.0,0.0,2.5742,2.5742,2.5547,2.5195,2.5098,2.4668,2.4023,2.3867,2.3127,2.1983,2.1087,2.015,1.9239,1.8056,1.7512,1.7326,1.7807,1.7699,1.7419,1.8272,1.7807,1.6857,1.6842,1.6103,0.0,1.4196,1.3619,1.3244,1.2856,1.2759,1.2759,1.2759,1.2759,1.2759,1.2759,1.2759,1.2759,1.2759,1.1277,0.9805,0.9608,0.8718,0.7726,0.683,0.6537,0.6437,0.6437,0.6437,0.6437,0.6437,0.6437,0.6437,0.6437,0.6333,0.641,0.6702,0.6708,0.6708,0.6708,0.6603,0.6513,0.6437,0.6535,0.6545,0.6469,0.6469,0.6513,0.6578,0.641,0.6382,0.0,0.0,0.0,0.0,0.0,0.0,0.0,0.0,0.0,0.0,0.0,3.5398,3.5267,0.0,3.5809,3.5921,3.6352,3.6547,3.6555,3.665,3.6615,3.6546,3.6452,3.6358,3.6358,3.5855,3.5328,3.4776,3.4198,3.3671,3.3119,3.1424,3.0124,2.9396,2.7767,2.6476,2.5742,2.5742,2.5742,2.5742,2.5742,2.5742,2.5723,2.5508,2.5273,2.5039,2.4609,2.418,2.3769,2.2999,2.1788,2.024,1.9695,1.9239,1.8703,1.7699,1.7326,1.7326,1.7606,1.7699,1.7807,1.8272,1.7885,1.7138,1.6857,1.5994,1.4854,1.4112,1.363,1.3244,1.3147,1.2953,1.2856,1.2953,1.2856,1.2759,1.2759,1.2759,1.2759,1.2759,1.1473,1.019,0.9706,0.8718,0.7627,0.6537,0.6437,0.6437,0.6437,0.6437,0.6437,0.6437,0.6437,0.6437,0.6437,0.6382,0.6377,0.6637,0.6642,0.6642,0.6642,0.6497,0.6529,0.6529,0.6589,0.6589,0.6529,0.6529,0.6529,0.6529,0.6529,0.6562,0.0,0.0,0.0,0.0,0.0,0.0,0.0,0.0,3.74,3.7016,3.6797,3.6542,3.6192,3.6201,3.6348,3.6638,3.6703,3.6753,3.6752,3.6709,3.6546,3.6452,3.6358,3.6358,3.6358,3.5956,3.5429,3.4776,3.4299,3.3771,3.3119,3.0956,2.9579,2.9396,2.72,2.5917,2.5742,2.5742,2.5742,2.5742,2.5742,2.5742,2.5723,2.5273,2.5019,2.4902,2.4043,2.3563,2.3275,2.1913,2.0421,1.8796,1.8611,1.8519,1.8427,1.7606,1.7326,1.7326,1.7419,1.7714,1.8087,1.8071,1.7792,1.7311,1.6574,1.5805,1.5032,1.4112,1.3738,1.3545,1.3545,1.3244,1.2953,1.3147,1.305,1.2953,1.2953,1.2953,1.2953,1.2953,1.2058,1.0974,0.9903,0.8817,0.7726,0.6537,0.6437,0.6437,0.6437,0.6437,0.6437,0.6437,0.6437,0.6437,0.6437,0.6437,0.6437,0.6437,0.6437,0.6437,0.6437,0.6458,0.6507,0.6584,0.6605,0.6605,0.6584,0.6584,0.6535,0.6437,0.6562,0.6671,4.0487,3.9918,3.9798,4.0876,4.0681,4.0517,0.0,0.0,3.9513,3.8718,3.7924,3.7111,3.6271,3.6541,3.6933,3.6985,3.6974,3.7031,3.7015,3.6734,3.6452,3.6358,3.6358,3.6358,3.6358,3.6307,3.583,3.4801,3.4675,3.4173,3.3144,3.0777,2.9396,2.9396,2.703,2.5742,2.5742,2.5742,2.5742,2.5742,2.5742,2.5742,2.5723,2.5273,2.4863,2.4434,2.3574,2.2675,2.1839,2.0799,1.9786,1.8703,1.7792,1.7512,1.7419,1.7326,1.7326,1.7326,1.7807,1.8087,1.8087,1.8056,1.7512,1.6574,1.5792,1.5045,1.4292,1.3727,1.3738,1.3835,1.3545,1.3448,1.3448,1.3437,1.3448,1.3437,1.3437,1.3437,1.3437,1.3437,1.264,1.1463,1.019,0.9106,0.7918,0.6637,0.6437,0.6437,0.6437,0.6437,0.6437,0.6437,0.6437,0.6437,0.6437,0.6437,0.6437,0.6437,0.6437,0.6437,0.6437,0.654,0.6556,0.6458,0.6562,0.6567,0.6458,0.6458,0.6448,0.6437,0.6562,0.6627,4.0487,4.0487,0.0,0.0,4.1175,4.1594,4.1743,4.0919,4.0068,4.0072,3.8978,3.7984,3.7899,3.7685,3.7443,0.0,3.714,3.7015,3.6922,3.664,3.6358,3.6358,3.6358,3.6358,3.6358,3.6358,3.5906,3.4801,3.4424,3.3632,3.2313,3.014,2.8832,2.8566,2.6648,2.5742,2.5742,2.5742,2.5742,2.5742,2.5742,2.5742,2.5723,2.5,2.4316,2.3563,2.2663,2.1695,2.0782,1.9786,1.878,1.7885,1.7419,1.7512,1.7807,1.7807,1.7807,1.7807,1.8365,1.835,1.8071,1.8149,1.7109,1.59,1.5697,1.4854,1.4016,1.4016,1.3919,1.3931,1.3919,1.3727,1.3545,1.3738,1.3642,1.3545,1.3545,1.3545,1.3545,1.3545,1.3147,1.2554,1.1365,1.0779,0.9887,0.8117,0.703,0.6437,0.6437,0.6437,0.6437,0.6437,0.6437,0.6437,0.6437,0.6437,0.6437,0.6437,0.6437,0.6437,0.6437,0.6486,0.6486,0.6437,0.6486,0.6486,0.6437,0.6437,0.6475,0.6545,0.6671,0.6763,4.0397,0.0,0.0,4.0965,4.1654,4.2282,4.1983,4.1429,4.1046,4.1221,4.0292,3.933,3.9217,3.8639,0.0,3.7598,3.7201,3.6922,3.6709,3.6546,3.6307,3.6157,3.6132,3.6132,3.6132,3.6282,3.5906,3.4801,3.402,3.2956,3.1432,2.9418,2.8112,2.7721,2.6396,2.5742,2.5742,2.5742,2.5742,2.5742,2.5742,2.5664,2.5527,2.4349,2.3467,2.2687,2.1695,2.0692,1.9786,1.9055,1.8241,1.7326,1.7326,1.7621,1.8087,1.8272,1.8272,1.8365,1.8827,1.8627,1.8056,1.7948,1.6828,1.5507,1.5425,1.4771,1.4016,1.4208,1.4208,1.4016,1.4208,1.4016,1.3727,1.3931,1.3823,1.3727,1.3727,1.3727,1.3727,1.3727,1.3727,1.3329,1.2242,1.2047,1.1365,0.9402,0.8117,0.7129,0.6537,0.6437,0.6437,0.6437,0.6437,0.6437,0.6437,0.6437,0.6437,0.6437,0.6437,0.6437,0.6437,0.6437,0.6437,0.6437,0.6437,0.6437,0.6437,0.6469,0.6529,0.6622,0.6779,0.6899,0.0,0.0,4.0726,4.1983,4.2342,4.2521,4.312,4.319,4.2951,4.2111,4.1976,4.1365,3.9536,3.906,3.8549,3.769,3.7015,3.6709,3.6709,3.6546,3.6157,3.5629,3.5579,3.5579,0.0,3.6056,3.5906,3.4801,3.3433,3.2115,3.0989,2.8679,2.7323,2.7345,2.6255,2.5742,2.5742,2.5742,2.5742,2.5742,2.5742,2.5508,2.5059,2.3241,2.217,2.1695,2.0692,1.9695,1.8888,1.8796,1.8241,1.7326,1.7326,1.7621,1.8179,1.8643,1.8735,1.8827,1.9363,1.8888,1.8041,1.7483,1.664,1.5615,1.4675,1.4292,1.4304,1.4292,1.4292,1.4304,1.4292,1.4292,1.4292,1.4304,1.4292,1.4292,1.4292,1.4292,1.4292,1.4292,1.4292,1.3811,1.2533,1.2339,1.1755,1.019,0.9895,0.9114,0.7042,0.6537,0.6437,0.6437,0.6437,0.6437,0.6437,0.6437,0.6437,0.6437,0.6437,0.6437,0.6437,0.6437,0.6437,0.6437,0.6437,0.6437,0.6437,0.6556,0.6616,0.6627,0.6866,0.698,0.0,0.0,4.1803,4.2252,4.303,4.3599,4.3389,4.3658,4.3787,4.2989,4.1893,4.0859,4.026,3.897,3.7848,3.7505,3.7015,3.6709,3.6709,3.6546,3.6157,3.5604,3.5554,0.0,0.0,0.0,0.0,3.4751,3.2705,3.1161,3.0454,2.8008,2.6718,2.6804,2.6031,2.5742,2.5742,2.5742,2.5742,2.5742,2.543,2.5059,2.4609,2.2999,2.2061,2.1606,1.9968,1.9055,1.8796,1.8442,1.8164,1.79,1.8164,1.8627,1.9088,1.9271,1.9563,1.9837,2.0019,1.898,1.7576,1.739,1.617,1.4771,1.4388,1.4292,1.4292,1.4292,1.4292,1.4292,1.4292,1.4292,1.4292,1.4292,1.4292,1.4292,1.4292,1.4292,1.4292,1.4292,1.4292,1.4196,1.3703,1.3607,1.3125,1.1755,1.0485,0.9509,0.8718,0.8619,0.8223,0.7528,0.7428,0.7229,0.6742,0.6537,0.6437,0.6642,0.6537,0.6437,0.6437,0.6437,0.6437,0.6437,0.6437,0.6437,0.6437,0.6556,0.666,0.6747,0.691,0.7024,0.0,4.1893,4.2761,4.3,4.3868,4.4496,4.3838,4.4018,4.4137,4.3479,4.2129,4.0967,4.0266,3.8722,3.7453,3.6959,3.6523,3.6319,3.659,3.6452,3.6157,3.5604,3.5554,3.5403,0.0,0.0,0.0,3.4424,3.2059,3.0467,2.9984,2.7692,2.63,2.6235,2.6031,2.582,2.5742,2.5742,2.5664,2.5488,2.5039,2.4423,2.361,2.2154,2.1192,2.0602,1.8964,1.8241,1.8241,1.8164,1.8087,1.8179,1.8643,1.9104,1.9637,1.9637,1.9911,2.0292,1.9911,1.8703,1.7203,1.6922,1.5615,1.4292,1.4292,1.4292,1.4292,1.4292,1.4292,1.4292,1.4292,1.4292,1.4292,1.4292,1.4292,1.4292,1.4292,1.4292,1.4292,1.4292,1.4292,1.4292,1.4292,1.4208,1.3811,1.3028,1.1765,1.069,0.9993,0.9895,0.96,0.8901,0.8901,0.8612,0.8024,0.7428,0.7129,0.7235,0.6736,0.6437,0.6437,0.6437,0.6437,0.6437,0.6437,0.6458,0.6502,0.6627,0.6747,0.6872,0.6991,0.7084,4.2013,4.2851,4.3539,4.4167,4.4796,4.5125,4.4466,4.4317,4.4137,4.3399,4.2585,4.1397,0.0,0.0,3.7322,3.6069,3.5739,3.578,3.6282,3.6358,3.6157,0.0,0.0,0.0,0.0,0.0,0.0,3.3834,0.0,3.0007,2.9458,2.7387,2.6133,2.5852,2.5968,2.6014,2.5742,2.5723,2.5488,2.5059,2.4609,2.3591,2.2263,2.0867,1.9695,1.8703,1.7699,1.7326,1.7419,1.79,1.8179,1.8179,1.8735,1.9196,1.9637,1.9637,1.9911,2.0201,1.9163,1.8133,1.7109,1.617,1.514,1.4292,1.4292,1.4292,1.4292,1.4292,1.4292,1.4292,1.4292,1.4292,1.4292,1.4292,1.4292,1.4292,1.4292,1.4292,1.4292,1.4292,1.4292,1.4292,1.4292,1.4112,1.3931,1.3931,1.3738,1.2845,1.0858,1.0565,1.0565,1.0467,1.0467,1.0378,1.0092,0.9008,0.8315,0.8024,0.703,0.6437,0.6437,0.6437,0.6437,0.6437,0.6442,0.6502,0.6622,0.6747,0.6872,0.6986,0.71,0.7154,4.2132,4.321,4.4107,4.4287,4.4796,4.5125,4.4466,4.4154,4.3894,4.3209,4.1372,3.9676,3.9256,0.0,0.0,3.5938,3.6067,0.0,3.6332,3.6358,0.0,0.0,0.0,3.5378,3.4977,3.4675,0.0,0.0,3.1031,2.9442,2.8965,2.721,2.637,2.6622,2.6244,2.6091,2.6014,2.5486,2.5176,2.5059,2.4316,2.3324,2.2263,2.0867,1.9695,1.8703,1.7699,1.7512,1.79,1.8458,1.8827,1.9271,1.9745,2.0019,2.011,2.011,2.0201,2.0201,1.9163,1.8133,1.7296,1.7016,1.5697,1.4292,1.4292,1.4292,1.4292,1.4292,1.4292,1.4292,1.4292,1.4292,1.4292,1.4292,1.4292,1.4292,1.4292,1.4292,1.4292,1.4292,1.4292,1.4292,1.4292,1.4208,1.4208,1.4208,1.4112,1.3715,1.2845,1.2748,1.2446,1.1658,1.1463,1.0974,1.0386,0.8909,0.8124,0.8329,0.7135,0.6437,0.6437,0.6437,0.6437,0.6437,0.6524,0.6589,0.6622,0.6834,0.6953,0.6986,0.71,0.7154,4.303,4.3958,4.4676,4.4377,4.4796,4.5035,4.4107,4.3945,4.3664,4.2416,4.0873,0.0,3.8061,0.0,0.0,0.0,0.0,0.0,3.6332,3.6358,3.6232,0.0,3.5906,0.0,3.5479,3.5228,3.4594,0.0,3.1433,2.9829,2.903,2.7495,2.673,2.69,2.6496,2.6207,2.5917,2.5388,2.498,2.4785,2.3626,2.2572,2.1372,2.0144,1.9055,1.8149,0.0,1.7792,1.8179,1.8827,1.9379,1.9637,2.011,2.0292,2.0292,2.0292,2.0292,2.0201,1.9163,1.8133,1.7203,1.6828,1.5615,1.4292,1.4292,1.4292,1.4292,1.4292,1.4292,1.4292,1.4292,1.4292,1.4292,1.4292,1.4292,1.4292,1.4292,1.4292,1.4292,1.4292,1.4292,1.4292,1.4292,1.4292,1.4292,1.4292,1.4292,1.4208,1.3919,1.3823,1.3619,1.3028,1.2834,1.2543,1.196,1.0681,0.9895,0.9805,0.8216,0.7229,0.7129,0.6687,0.6518,0.6518,0.6638,0.6725,0.6779,0.6915,0.7013,0.7062,0.7127,0.7154,4.4287,4.4915,4.5274,4.4616,4.4885,4.4945,4.3629,4.3558,4.3218,4.1347,0.0,3.9233,3.654,3.6117,3.5659,3.4237,0.0,3.573,3.6282,3.6358,3.6358,3.6358,3.6358,3.6358,3.6358,3.5837,3.4928,3.3982,3.2019,3.0435,2.9445,2.8063,2.7167,2.69,2.6688,2.6304,2.5839,2.5388,2.4938,2.4506,2.3145,2.1699,2.0331,1.9422,1.8427,1.7512,0.0,0.0,1.8365,1.9271,1.9637,1.9729,2.011,2.0292,2.0292,2.0292,2.0292,2.0201,1.9255,1.8226,1.7109,1.617,1.514,1.4292,1.4292,1.4292,1.4292,1.4292,1.4292,1.4292,1.4292,1.4292,1.4292,1.4292,1.4292,1.4292,1.4292,1.4292,1.4292,1.4292,1.4292,1.4292,1.4292,1.4292,1.4292,1.4292,1.4292,1.4292,1.4292,1.4292,1.4292,1.4292,1.4304,1.4112,1.3931,1.2834,1.2058,1.1707,0.9632,0.8258,0.8079,0.7094,0.6643,0.6643,0.6763,0.6877,0.6986,0.7002,0.7056,0.7154,0.7154,0.7154,4.5095,4.5633,4.5992,4.5304,4.5214,4.4945,4.3629,4.2842,0.0,0.0,0.0,3.7176,3.5898,3.4984,0.0,3.45,0.0,0.0,0.0,0.0,3.6358,0.0,0.0,0.0,0.0,0.0,0.0,0.0,0.0,3.0127,2.9562,2.8063,2.7167,2.69,2.69,2.6709,2.64,2.5959,2.5518,2.5077,2.3913,2.255,2.1051,2.0365,1.9455,1.855,1.8643,0.0,1.9363,1.9546,1.982,2.0201,2.0292,2.0292,2.0292,2.0292,2.0292,2.0292,2.011,1.8888,1.7109,1.617,1.514,1.4292,1.4292,1.4292,1.4292,1.4292,1.4292,1.4292,1.4292,1.4292,1.4292,1.4292,1.4292,1.4292,1.4292,1.4292,1.4292,1.4292,1.4292,1.4292,1.4292,1.4292,1.4292,1.4292,1.4292,1.4292,1.4292,1.4292,1.4292,1.4292,1.4112,1.3931,1.3931,1.2543,1.1737,1.1825,0.9625,0.8262,0.8488,0.738,0.6768,0.6768,0.6893,0.6964,0.6986,0.7078,0.7133,0.7154,0.7154,0.7154,4.5723,4.6082,4.6082,4.5035,4.4796,4.4347,4.2701,0.0,0.0,0.0,0.0,3.7032,3.5393,0.0,0.0,0.0,0.0,0.0,0.0,0.0,0.0,0.0,0.0,0.0,0.0,0.0,0.0,0.0,0.0,2.9732,2.87,2.7777,2.7167,2.69,2.69,2.6805,2.6496,2.6054,2.5712,2.551,2.3626,2.239,2.1644,2.0178,1.9288,1.8827,1.9104,0.0,1.9637,1.982,2.011,2.0292,2.0292,2.0292,2.0292,2.0292,2.0292,2.0201,1.9729,1.8888,1.7948,1.6922,1.552,1.4292,1.4292,1.4292,1.4292,1.4292,1.4292,1.4292,1.4292,1.4292,1.4292,1.4292,1.4292,1.4292,1.4292,1.4292,1.4292,1.4292,1.4292,1.4292,1.4292,1.4292,1.4292,1.4292,1.4292,1.4292,1.4292,1.4425,1.4461,1.4316,1.4208,1.4171,1.4314,1.3532,1.3028,1.3164,1.0826,0.9427,0.9406,0.7812,0.6899,0.6899,0.7013,0.7073,0.7073,0.7127,0.7154,0.7154,0.7154,0.716,4.6172,4.6411,4.6202,4.4855,4.4526,4.3958,4.1863,4.162,0.0,0.0,3.8236,3.7119,3.4775,0.0,0.0,0.0,0.0,0.0,0.0,0.0,0.0,0.0,0.0,0.0,0.0,0.0,0.0,0.0,0.0,0.0,2.78,2.7448,2.7167,2.6996,2.6996,2.69,2.6688,2.6344,2.6101,2.5906,2.3801,2.2594,2.2336,2.0382,1.9402,1.9309,1.9596,0.0,0.0,2.011,2.0292,2.0292,2.0292,2.0292,2.0292,2.0292,2.0292,2.0201,1.9438,1.898,1.8688,1.7855,1.6452,1.4854,1.4675,1.458,1.458,1.4388,1.4292,1.4292,1.4292,1.4292,1.4292,1.4292,1.4292,1.4292,1.4292,1.434,1.4389,1.4389,1.4437,1.4473,1.4473,1.4473,1.4473,1.4473,1.4473,1.4473,1.4473,1.4666,1.4714,1.4497,1.4473,1.4558,1.4787,1.4501,1.4406,1.4447,1.2067,1.0523,1.0355,0.8259,0.7133,0.7024,0.7111,0.7154,0.7154,0.7154,0.7154,0.7154,0.7154,0.7176,4.6292,4.677,4.689,4.5544,4.5214,4.4526,4.1953,0.0,0.0,3.768,3.694,3.6041,3.3721,3.3247,3.3296,0.0,0.0,0.0,0.0,0.0,0.0,0.0,0.0,0.0,0.0,0.0,0.0,0.0,0.0,0.0,2.7324,2.7282,2.7262,2.7262,2.7262,2.7262,2.7262,2.722,2.6993,2.6486,2.5618,2.4633,2.3504,2.2244,2.1344,2.0712,2.0354,0.0,0.0,2.0292,2.0292,2.0292,2.0292,2.0292,2.0292,2.0292,2.0292,2.0292,2.0201,1.9546,1.8796,1.8688,1.7948,1.6828,1.5981,1.571,1.552,1.458,1.4292,1.4292,1.4292,1.4292,1.4292,1.4292,1.4292,1.4292,1.4292,1.4497,1.4678,1.4678,1.4871,1.5028,1.5028,1.5028,1.5028,1.5028,1.5028,1.5028,1.5028,1.5052,1.5065,1.504,1.5028,1.504,1.5065,1.4862,1.4765,1.5024,1.2605,1.1095,1.105,0.8783,0.7476,0.7138,0.7149,0.7154,0.7154,0.7154,0.7154,0.7154,0.7154,0.7225,4.6112,4.68,4.698,4.5633,4.5304,4.4616,4.1983,0.0,4.0041,3.8115,3.6445,3.4998,3.3796,3.3093,3.2843,3.3576,3.3488,3.41,0.0,0.0,0.0,0.0,0.0,0.0,0.0,0.0,0.0,0.0,0.0,0.0,2.7262,2.7262,2.7262,2.7262,2.7262,2.7262,2.7262,2.7262,2.7158,2.6972,2.6027,2.4941,2.4032,2.2868,2.1813,2.0874,2.072,0.0,0.0,2.0292,2.0292,2.0292,2.0292,2.0292,2.0292,2.0292,2.0292,2.0292,2.0292,2.0002,1.9729,1.9729,1.9455,1.8688,1.6452,1.5792,1.5602,1.458,1.4292,1.4292,1.4292,1.4292,1.4292,1.4292,1.4425,1.4545,1.4545,1.4763,1.4956,1.4956,1.504,1.5113,1.5113,1.5113,1.5113,1.5113,1.5113,1.5113,1.5113,1.5246,1.5342,1.5342,1.5197,1.5173,1.533,1.5136,1.4711,1.4327,1.2402,1.1033,1.0123,0.8484,0.7493,0.7154,0.7154,0.7154,0.7154,0.7154,0.7154,0.7154,0.7241,0.7198,4.5663,4.6501,4.6741,4.5574,4.5155,4.4265,0.0,0.0,3.9344,3.7539,3.5764,3.4308,3.345,3.2724,3.2488,3.3221,3.3294,3.4017,3.5937,0.0,0.0,0.0,0.0,0.0,0.0,0.0,0.0,0.0,0.0,0.0,0.0,2.7262,2.7262,2.7262,2.7262,2.7262,2.7262,2.7262,2.7262,2.7262,2.6439,2.552,2.4449,2.3558,2.2321,2.1028,2.0925,0.0,0.0,2.0292,2.0292,2.0292,2.0292,2.0292,2.0292,2.0292,2.0292,2.0292,2.0292,2.0292,2.0292,2.0292,2.0292,1.982,1.739,1.6452,1.5981,1.4675,1.4292,1.4292,1.4292,1.4352,1.4425,1.4425,1.463,1.4835,1.4835,1.504,1.5221,1.5221,1.5282,1.5342,1.5342,1.5342,1.5342,1.5342,1.5342,1.5342,1.5342,1.5499,1.5608,1.5608,1.5451,1.5415,1.5596,1.5398,1.4941,1.3932,1.2526,1.1109,0.9691,0.8374,0.7604,0.7376,0.7265,0.7154,0.7154,0.7192,0.7209,0.7214,0.7236,0.7206,4.4945,4.5813,4.6172,4.5454,4.4796,4.3537,0.0,3.9567,3.8265,3.5425,3.4787,3.42,3.22,3.1836,3.2045,3.2594,3.3195,3.4005,3.5155,0.0,0.0,0.0,0.0,0.0,0.0,0.0,0.0,0.0,0.0,0.0,0.0,2.7262,2.7262,2.7262,2.7262,2.7262,2.7262,2.7262,2.7262,2.7262,2.7262,2.6456,2.4865,2.4468,2.3195,0.0,0.0,0.0,0.0,2.0292,2.0292,2.0292,2.0292,2.0292,2.0292,2.0292,2.0292,2.0292,2.0292,2.0292,2.0292,2.0292,2.0292,2.011,1.9072,1.8041,1.6828,1.4854,1.4292,1.4292,1.4292,1.4509,1.4714,1.4714,1.4908,1.5101,1.5101,1.5306,1.5499,1.5499,1.5704,1.5885,1.5885,1.5885,1.5885,1.5885,1.5885,1.5885,1.5885,1.5885,1.5885,1.5885,1.5885,1.5885,1.5885,1.5885,1.5458,1.4277,1.3068,1.1764,1.0233,0.8809,0.7826,0.7604,0.7382,0.7154,0.7154,0.7274,0.7334,0.7339,0.7354,0.7369,4.3599,4.4436,4.4676,4.3569,4.312,4.2395,3.9974,3.8859,3.7755,3.5787,3.4365,3.3278,3.3118,3.2071,3.1967,3.411,3.3639,0.0,0.0,0.0,0.0,0.0,0.0,0.0,0.0,0.0,0.0,0.0,0.0,0.0,0.0,2.7809,2.762,2.7357,2.7262,2.7262,2.7262,2.7262,2.7262,2.7262,2.7262,2.6476,2.4884,2.4752,2.3547,0.0,0.0,0.0,0.0,2.0292,2.0292,2.0292,2.0292,2.0292,2.0292,2.0292,2.0292,2.0292,2.0292,2.0292,2.0292,2.0292,2.0292,2.011,1.9072,1.8611,1.7948,1.5886,1.533,1.5191,1.4728,1.4654,1.4763,1.4944,1.5185,1.5378,1.5378,1.5584,1.5765,1.5765,1.5837,1.5885,1.5885,1.5885,1.5885,1.5885,1.5885,1.5885,1.5885,1.5885,1.5885,1.5885,1.5885,1.5885,1.5885,1.5885,1.5018,1.3068,1.2635,1.1437,0.914,0.8595,0.8152,0.761,0.7493,0.7421,0.7279,0.7317,0.7311,0.7482,0.7298,0.5441,0.0,4.306,4.3389,4.2581,4.2008,4.1037,3.9102,3.7811,3.6709,3.5251,3.3913,3.3064,3.3221,3.2359,3.2228,3.4031,3.3953,0.0,0.0,0.0,0.0,0.0,0.0,0.0,0.0,0.0,0.0,0.0,0.0,0.0,0.0,2.8092,2.7904,2.7526,2.7357,2.7262,2.7262,2.7262,2.7262,2.7262,2.7262,2.6572,2.5294,2.5001,2.3772,0.0,0.0,0.0,0.0,2.0292,2.0292,2.0292,2.0292,2.0292,2.0292,2.0292,2.0292,2.0292,2.0292,2.0292,2.0292,2.0292,2.0394,2.0423,1.9761,1.8999,1.7978,1.6876,1.6633,1.6512,1.6143,1.5918,1.5645,1.5808,1.5762,1.5644,1.5644,1.5777,1.5885,1.5885,1.5885,1.5885,1.5885,1.5885,1.5885,1.5885,1.5885,1.5885,1.5885,1.5885,1.5885,1.5885,1.5885,1.5885,1.5885,1.5458,1.4482,1.2526,1.1982,1.0781,0.8712,0.8595,0.8263,0.7715,0.765,0.7601,0.7334,0.7432,0.699,0.6198,0.7079,0.4777,0.0,4.1654,4.2132,4.2102,4.0949,3.9526,3.8009,3.6681,0.0,3.3907,3.3613,3.343,3.2908,3.2725,3.2672,3.2803,3.411,0.0,0.0,0.0,0.0,0.0,0.0,0.0,0.0,0.0,0.0,0.0,0.0,0.0,0.0,2.8351,2.8092,2.8092,2.762,2.7357,2.7262,2.7262,2.7262,2.7262,2.7262,2.688,2.6091,2.5294,2.416,0.0,0.0,0.0,0.0,2.0292,2.0292,2.0292,2.0292,2.0292,2.0292,2.0292,2.0292,2.0292,2.0382,2.0382,2.0292,2.0326,2.0583,2.0891,2.0908,1.9333,1.7616,1.7927,1.8015,1.8089,1.84,1.7909,1.7333,1.7346,1.6637,1.5992,1.5992,1.5992,1.5885,1.5885,1.5885,1.5885,1.5885,1.5885,1.5885,1.5885,1.5885,1.5885,1.5885,1.5885,1.5885,1.5885,1.5885,1.5885,1.5779,1.4815,1.3727,1.2526,1.1328,1.0131,0.894,0.8719,0.8393,0.806,0.7862,0.7589,0.7361,0.7493,0.644,0.4186,0.6306,0.4697,3.914,0.0,3.9831,3.8782,3.8222,3.7451,0.0,3.5598,3.5386,0.0,0.0,3.3666,3.3953,3.2934,3.2463,3.377,0.0,0.0,0.0,0.0,0.0,0.0,0.0,0.0,0.0,0.0,0.0,0.0,0.0,0.0,0.0,2.9209,2.8932,2.8538,2.8092,2.762,2.7262,2.7262,2.7262,2.7262,2.7262,2.688,2.6091,2.5897,2.4948,0.0,0.0,0.0,2.1087,2.0564,2.0292,2.0292,2.0292,2.0292,2.0292,2.0564,2.0654,2.0654,2.0817,2.0727,2.0616,2.0726,2.0805,2.0925,2.1199,2.0931,2.0293,1.9589,1.9411,1.9295,1.8855,1.86,1.8513,1.864,1.7934,1.716,1.716,1.6524,1.5885,1.5885,1.5885,1.5885,1.5885,1.5885,1.5885,1.5885,1.5885,1.5885,1.5885,1.5885,1.5885,1.5885,1.5885,1.5565,1.4708,1.4385,1.3727,1.2526,1.1328,1.0131,0.894,0.9042,0.8765,0.8201,0.7857,0.7616,0.7509,0.7785,0.7516,0.6931,0.3458,0.1235,3.896,3.9349,3.9636,3.8516,3.7883,3.7215,3.6009,0.0,0.0,0.0,0.0,0.0,3.4005,0.0,0.0,0.0,0.0,0.0,0.0,0.0,0.0,0.0,0.0,0.0,0.0,0.0,0.0,0.0,0.0,0.0,0.0,2.9577,2.9393,2.9095,2.8538,2.8092,2.762,2.7452,2.7262,2.7262,2.7262,2.7071,2.6688,2.6284,2.5425,0.0,0.0,0.0,2.1784,2.1177,2.0907,2.0907,2.0727,2.0637,2.0671,2.1028,2.1098,2.1133,2.1476,2.1437,2.1397,2.1421,2.163,2.1804,2.1821,2.1993,2.1982,2.1112,2.0883,2.0851,2.0612,2.0202,1.9827,1.9907,1.9124,1.8199,1.7687,1.716,1.6524,1.5992,1.5885,1.5885,1.5885,1.5885,1.5885,1.5885,1.5885,1.5885,1.5885,1.5885,1.5885,1.5885,1.5994,1.5634,1.4429,1.3868,1.3067,1.1664,1.0643,0.9698,0.9035,0.9178,0.9056,0.8433,0.7875,0.7736,0.768,0.7883,0.7932,0.7814,0.2471,-0.0,3.9529,4.0038,4.0307,3.9205,3.8289,3.7416,3.6536,0.0,0.0,0.0,0.0,0.0,0.0,0.0,0.0,0.0,0.0,0.0,0.0,0.0,0.0,0.0,0.0,0.0,0.0,0.0,0.0,0.0,0.0,0.0,0.0,2.9852,2.9577,2.9577,2.9095,2.8631,2.8279,2.7715,2.7547,2.7547,2.7547,2.7452,2.7336,2.6703,2.5913,2.5037,0.0,0.0,2.2736,2.205,2.1784,2.1784,2.1177,2.1032,2.1121,2.1476,2.1728,2.1835,2.2155,2.2262,2.228,2.2238,2.2504,2.2788,2.2547,2.2793,2.2885,2.2275,2.2073,2.2158,2.2466,2.1928,2.12,2.12,2.0261,1.9228,1.8304,1.7793,1.7265,1.6311,1.5992,1.5885,1.5885,1.5885,1.5885,1.5885,1.5922,1.5946,1.5958,1.5994,1.6018,1.6018,1.6102,1.5562,1.4335,1.3276,1.2099,1.0556,0.9673,0.9198,0.9218,0.9231,0.9131,0.8677,0.7976,0.7548,0.7276,0.7675,0.7439,0.6566,0.2099,-0.0,4.0098,4.0726,4.0517,3.7491,3.6635,3.5939,3.4065,0.0,0.0,0.0,0.0,0.0,0.0,0.0,0.0,0.0,0.0,0.0,0.0,0.0,0.0,0.0,0.0,0.0,0.0,0.0,0.0,0.0,0.0,0.0,0.0,3.0125,3.0125,3.0125,2.9669,2.9301,2.9301,2.8724,2.8445,2.8445,2.8445,2.8258,2.7882,2.7779,2.7217,0.0,0.0,2.4943,2.4361,2.2911,2.2315,2.2227,2.1338,2.121,2.1511,2.1859,2.2186,2.2474,2.2528,2.2546,2.2524,2.2672,2.2735,2.2841,2.3161,2.3103,2.2937,2.2885,2.2667,2.2484,2.2535,2.2434,2.2333,2.2333,2.1505,2.057,2.0467,1.893,1.7582,1.7371,1.6524,1.5885,1.5885,1.5885,1.5885,1.5885,1.6079,1.6223,1.6247,1.6441,1.6573,1.6573,1.5704,1.459,1.3335,1.2109,1.0847,0.9659,0.9449,0.9401,0.9537,0.8966,0.8803,0.8818,0.8227,0.6761,0.4551,0.6803,0.5567,0.1235,0.037,-0.0,3.9106,3.9209,3.8634,3.6601,3.6864,3.7195,3.5475,0.0,0.0,0.0,0.0,0.0,0.0,0.0,0.0,0.0,0.0,0.0,0.0,0.0,0.0,0.0,0.0,0.0,0.0,0.0,0.0,0.0,0.0,0.0,0.0,0.0,3.0216,3.0216,3.0034,2.9852,2.9852,2.9646,2.9279,2.8724,2.8724,2.8631,2.8351,2.8174,2.7605,2.6928,0.0,2.5787,2.5337,2.4317,2.3627,2.3125,2.265,2.2244,2.2023,2.2644,2.3062,2.3487,2.3487,2.3487,2.3426,2.3528,2.3583,2.352,2.3601,2.3555,2.3356,2.3055,2.2854,2.2653,2.2653,2.2653,2.2653,2.2653,2.2232,2.1607,2.0995,1.9642,1.8359,1.7889,1.6858,1.6163,1.6308,1.6332,1.6332,1.6332,1.6429,1.6513,1.6513,1.6622,1.6706,1.6706,1.5682,1.4489,1.3211,1.203,1.0878,0.9628,0.9503,0.9571,0.972,0.9239,0.9035,0.9111,0.8261,0.7286,0.6052,0.4447,0.2346,-0.0,-0.0,-0.0,3.8301,3.8015,3.755,3.6589,0.0,3.7983,3.6682,0.0,0.0,0.0,0.0,0.0,0.0,0.0,0.0,0.0,0.0,0.0,0.0,0.0,0.0,0.0,0.0,0.0,0.0,0.0,0.0,0.0,0.0,0.0,0.0,0.0,3.0216,3.0216,3.0216,3.0216,3.0216,3.0216,2.9852,2.9002,2.9002,2.9002,2.8888,2.8407,2.7922,2.7459,2.6951,2.651,2.6135,2.5611,2.4914,2.4272,2.3861,2.3252,2.2703,2.3419,2.3877,2.4152,2.4152,2.4152,2.4152,2.4152,2.4152,2.4152,2.3954,2.3854,2.3755,2.3356,2.2937,2.2754,2.2653,2.2653,2.2653,2.2653,2.2653,2.2333,2.1505,2.022,1.9103,1.8493,1.7316,1.6465,1.667,1.6706,1.6706,1.6706,1.6754,1.6791,1.6791,1.6851,1.6762,1.6421,1.5434,1.4249,1.2604,1.179,1.0733,0.9666,0.9659,0.9707,0.9815,0.9457,0.9226,0.9246,0.7766,0.7291,0.7937,0.2594,-0.0,-0.0,-0.0,-0.0,3.8669,3.8835,3.9032,3.7962,0.0,0.0,3.514,0.0,0.0,0.0,0.0,0.0,0.0,0.0,0.0,0.0,0.0,0.0,0.0,0.0,0.0,0.0,0.0,0.0,0.0,0.0,0.0,0.0,0.0,0.0,0.0,0.0,0.0,3.0216,3.0216,3.0216,3.0216,3.0216,3.0125,3.0125,3.0125,2.9852,2.9441,2.8854,2.8377,2.7962,2.7356,2.7172,2.7067,2.6091,2.5735,2.5527,2.4195,2.3613,2.351,2.395,2.4134,2.4152,2.4152,2.4152,2.4152,2.4152,2.4152,2.4152,2.4152,2.3954,2.3755,2.3755,2.3555,2.3256,2.2754,2.2653,2.2653,2.2653,2.2653,2.2552,2.2535,2.0924,1.9561,1.9483,1.8005,1.6682,1.6694,1.6706,1.6706,1.6706,1.6911,1.7068,1.7068,1.7274,1.695,1.5762,1.4589,1.28,1.0286,0.9937,0.9937,0.9808,0.9802,0.9808,0.9822,0.9214,0.8983,0.9246,0.5904,0.5425,0.7937,0.2594,-0.0,-0.0,-0.0,-0.0,3.866,3.8429,3.7872,3.6459,0.0,0.0,0.0,0.0,0.0,0.0,0.0,0.0,0.0,0.0,0.0,0.0,0.0,0.0,0.0,0.0,0.0,0.0,0.0,0.0,0.0,0.0,0.0,0.0,0.0,0.0,0.0,0.0,0.0,3.0216,3.0216,3.0216,3.0216,3.0216,3.0216,3.0216,3.0216,2.9965,2.9465,2.8935,2.8454,2.7963,2.7447,2.7231,2.7149,2.6798,2.654,2.6194,2.573,2.5651,2.5737,2.5334,2.5118,2.502,2.4449,2.4152,2.4152,2.4152,2.4152,2.4152,2.4152,2.4152,2.4053,2.3854,2.3755,2.3555,2.2955,2.2854,2.2854,2.2653,2.2653,2.2621,2.2843,2.1202,1.9721,2.0114,1.8427,1.6996,1.7165,1.7189,1.7189,1.7189,1.7274,1.7334,1.7334,1.7418,1.7009,1.5688,1.3665,1.1744,0.9943,0.9822,0.9822,0.9822,0.9822,0.9822,0.9822,0.9592,0.9368,0.9014,0.8033,0.6056,0.2964,0.0988,-0.0,-0.0,-0.0,-0.0,3.8267,3.7899,0.0,0.0,0.0,0.0,0.0,0.0,0.0,0.0,0.0,0.0,0.0,0.0,0.0,0.0,0.0,0.0,0.0,0.0,0.0,0.0,0.0,0.0,0.0,0.0,0.0,0.0,0.0,0.0,0.0,0.0,0.0,0.0,3.0216,3.0216,3.0216,3.0216,3.0216,3.0216,3.0216,3.0032,2.9711,2.9022,2.8517,2.8172,2.7506,2.7231,2.7254,2.7392,2.7324,2.6998,2.7019,2.7066,2.7105,2.6436,2.5974,2.5606,2.4922,2.4449,2.4152,2.4152,2.4152,2.4152,2.4152,2.4152,2.4152,2.3954,2.3954,2.3854,2.3356,2.3155,2.2972,2.2808,2.2723,2.2724,2.2666,2.123,1.9917,2.0032,1.8503,1.7274,1.7455,1.7479,1.7479,1.7479,1.7479,1.7479,1.7479,1.7126,1.629,1.45,1.2466,1.0785,0.9822,0.9822,0.9822,0.9822,0.9822,0.9822,0.9822,0.9721,0.8995,0.7649,0.8676,0.6188,-0.0,-0.0,-0.0,-0.0,-0.0,-0.0,3.752,3.7534,0.0,0.0,0.0,0.0,0.0,0.0,0.0,0.0,0.0,0.0,0.0,0.0,0.0,0.0,0.0,0.0,0.0,0.0,0.0,0.0,0.0,0.0,0.0,0.0,0.0,0.0,0.0,0.0,0.0,0.0,0.0,0.0,3.0216,3.0216,3.0216,3.0216,3.0216,3.0216,3.0216,3.0216,3.017,2.916,2.87,2.8654,2.7667,2.7231,2.7277,2.7782,2.8046,2.8003,2.8003,2.7736,2.7179,2.7179,2.6532,2.5684,2.5703,2.502,2.4152,2.4152,2.4152,2.4152,2.4152,2.4152,2.4152,2.4152,2.4152,2.4152,2.3854,2.3456,2.3042,2.3135,2.3117,2.2891,2.1969,2.1213,2.0229,1.8991,1.8096,1.7479,1.7479,1.7479,1.7479,1.7479,1.7479,1.7479,1.7479,1.6408,1.4619,1.1993,1.0543,0.9822,0.9822,0.9822,0.9822,0.9822,0.9822,0.9822,0.9822,0.9355,0.7877,0.5039,0.6799,0.5193,-0.0,-0.0,-0.0,-0.0,-0.0,-0.0,3.9425,0.0,0.0,0.0,0.0,0.0,0.0,0.0,0.0,0.0,0.0,0.0,0.0,0.0,0.0,0.0,0.0,0.0,0.0,0.0,0.0,0.0,0.0,0.0,0.0,0.0,0.0,0.0,0.0,0.0,0.0,0.0,0.0,0.0,3.0216,3.0216,3.0216,3.0216,3.0216,3.0216,3.0216,3.0032,2.9711,2.9389,2.9068,2.8654,2.8035,2.7759,2.7805,2.8287,2.871,2.9059,2.9398,2.942,2.9165,2.8516,2.7579,2.6628,2.5974,2.502,2.4152,2.4152,2.4152,2.4152,2.4152,2.4152,2.4152,2.4152,2.4152,2.4225,2.4216,2.4086,2.3901,2.3495,2.3427,2.3167,2.2381,2.138,2.0286,1.9374,1.8235,1.7479,1.7479,1.7479,1.7479,1.7479,1.7479,1.7126,1.629,1.5095,1.3665,1.1872,1.0543,0.9822,0.9822,0.9822,0.9822,0.9822,0.8964,0.8842,0.9721,0.9632,0.9277,0.8418,0.4447,0.1605,-0.0,-0.0,-0.0,-0.0,-0.0,-0.0,3.9302,0.0,0.0,0.0,0.0,0.0,0.0,0.0,0.0,0.0,0.0,0.0,0.0,0.0,0.0,0.0,0.0,0.0,0.0,0.0,0.0,0.0,0.0,0.0,0.0,0.0,0.0,0.0,0.0,0.0,0.0,0.0,0.0,0.0,3.0668,3.0487,3.0216,3.0216,3.0216,3.0216,3.0216,3.0055,2.978,2.9596,2.932,2.8999,2.8494,2.8379,2.8609,2.8907,2.932,2.9825,3.0101,3.0216,3.0125,2.9555,2.8609,2.7673,2.6628,2.5684,2.4726,2.435,2.4152,2.4152,2.4152,2.4152,2.4152,2.4152,2.428,2.4464,2.4517,2.4579,2.4535,2.4053,2.3983,2.361,2.2182,2.1302,2.0345,1.8829,1.7948,1.7479,1.7479,1.7479,1.7479,1.7479,1.7126,1.629,1.4976,1.3665,1.2346,1.1148,1.0301,0.9822,0.9822,0.9822,0.9822,0.9822,0.8593,0.7989,0.825,0.8022,0.7915,0.7803,0.2716,-0.0,-0.0,-0.0,-0.0,-0.0,-0.0,-0.0,0.0,0.0,0.0,0.0,0.0,0.0,0.0,0.0,0.0,0.0,0.0,0.0,0.0,0.0,0.0,0.0,0.0,0.0,0.0,0.0,0.0,0.0,0.0,0.0,0.0,0.0,0.0,0.0,0.0,0.0,0.0,0.0,0.0,3.1383,3.1383,3.1026,3.0306,3.0306,3.0306,0.0,3.0216,3.0216,3.0193,2.9757,2.955,2.9458,2.8976,2.9045,2.9504,2.9504,2.978,3.0216,3.0216,3.0216,3.0216,3.0216,2.9463,2.8445,2.7484,2.6436,2.5411,2.4548,2.4152,2.4152,2.4152,2.4152,2.417,2.4207,2.4482,2.4794,2.4867,2.4936,2.4879,2.4861,2.4715,2.3989,2.1624,2.113,2.0444,1.7935,1.7479,1.7479,1.7479,1.7479,1.7479,1.7479,1.6408,1.5095,1.3904,1.2586,1.1269,0.9943,0.9822,0.9822,0.9822,0.9822,0.9822,0.9822,0.8471,0.7245,0.6031,0.5302,0.481,0.4441,0.1481,-0.0,-0.0,-0.0,-0.0,-0.0,-0.0,-0.0,0.0,0.0,0.0,0.0,0.0,0.0,0.0,0.0,0.0,0.0,0.0,0.0,0.0,0.0,0.0,0.0,0.0,0.0,0.0,0.0,0.0,0.0,0.0,0.0,0.0,0.0,0.0,0.0,0.0,0.0,0.0,0.0,0.0,3.2152,3.204,3.1713,3.1026,3.1026,3.0758,0.0,3.0216,3.0216,3.0216,3.0101,2.9848,2.9481,2.9366,2.9389,2.9504,2.9504,2.978,3.0216,3.0216,3.0216,3.0216,3.0216,2.9073,2.7463,2.7274,2.6051,2.4449,2.4251,2.4152,2.4152,2.4152,2.4152,2.4225,2.4556,2.4721,2.4922,2.5546,2.5554,2.5397,2.5466,2.4998,2.3989,2.1624,2.113,2.0444,1.7935,1.7479,1.7479,1.7479,1.7479,1.7479,1.7479,1.6408,1.5095,1.3904,1.2586,1.1269,0.9943,0.9822,0.9822,0.9822,0.9822,0.9822,0.9822,0.7612,0.6517,0.6903,0.6171,0.4195,0.1111,0.037,-0.0,-0.0,-0.0,-0.0,-0.0,-0.0,-0.0,0.0,0.0,0.0,0.0,0.0,0.0,0.0,0.0,0.0,0.0,0.0,0.0,0.0,0.0,0.0,0.0,0.0,0.0,0.0,0.0,0.0,0.0,0.0,0.0,0.0,0.0,0.0,0.0,0.0,0.0,0.0,3.3894,3.3556,3.2846,3.2846,3.2326,3.1294,3.1032,3.0678,3.0216,2.9986,2.9986,3.0216,3.0216,3.0078,2.9848,2.9848,2.9848,2.9848,2.9848,2.9986,3.0216,3.0216,3.0216,3.0216,3.0216,2.9555,2.8516,2.7558,2.6532,2.5489,2.4529,2.4152,2.4152,2.4152,2.4299,2.45,2.4721,2.5051,2.5436,2.5858,2.5882,2.5775,2.5753,2.4844,2.3529,2.1541,2.0673,1.9652,1.783,1.7479,1.7479,1.7479,1.7479,1.7244,1.6644,1.5451,1.4262,1.2946,1.1623,1.0543,0.9822,0.9883,0.993,0.993,0.9998,0.979,0.9032,0.7536,0.6665,0.6549,0.4916,0.3007,0.0988,0.0373,-0.0,-0.0,-0.0,-0.0,-0.0,-0.0,-0.0,0.0,0.0,0.0,0.0,0.0,0.0,0.0,0.0,0.0,0.0,0.0,0.0,0.0,0.0,0.0,0.0,0.0,0.0,0.0,0.0,0.0,0.0,0.0,0.0,0.0,0.0,0.0,0.0,0.0,0.0,3.4397,3.4397,3.4147,3.3556,3.3556,3.2871,3.1472,3.1017,3.0579,3.0216,2.9825,2.9825,3.0216,3.0216,3.0216,3.0216,3.0216,3.0216,3.0216,3.0216,3.0216,3.0216,3.0216,3.0216,3.0216,3.0216,3.0125,2.9738,2.8049,2.72,2.6628,2.502,2.435,2.4152,2.4152,2.4445,2.4794,2.4867,2.5399,2.5968,2.6041,2.61,2.6008,2.5789,2.4317,2.2733,2.1358,2.0113,1.8984,1.7713,1.7479,1.7479,1.7479,1.7361,1.6762,1.5806,1.4381,1.2946,1.1872,1.0543,0.9829,0.9856,0.9971,1.0059,1.0086,0.9949,0.9379,0.822,0.7331,0.6567,0.5801,0.3226,0.1788,0.1619,0.0504,-0.0,-0.0,-0.0,-0.0,-0.0,-0.0,-0.0,0.0,0.0,0.0,0.0,0.0,0.0,0.0,0.0,0.0,0.0,0.0,0.0,0.0,0.0,0.0,0.0,0.0,0.0,0.0,0.0,0.0,0.0,0.0,0.0,0.0,0.0,0.0,0.0,0.0,0.0,3.4397,3.4397,3.4397,3.423,3.423,3.3615,3.2127,3.2054,3.144,3.0216,3.0147,3.0147,3.0216,3.0216,3.0216,3.0216,3.0216,3.0216,3.0216,3.0216,3.0216,3.0216,3.0216,3.0216,3.0216,3.0216,2.9669,2.8817,2.8631,2.7389,2.5877,2.5586,2.4922,2.4152,2.4152,2.4445,2.4849,2.5197,2.5619,2.6041,2.6408,2.6318,2.6008,2.5789,2.3743,2.1699,2.1244,2.0113,1.8984,1.7713,1.7479,1.7479,1.7479,1.6526,1.5817,1.5569,1.3545,1.1872,1.1752,1.0543,0.9869,1.0005,1.0039,1.0107,1.0236,0.9112,0.8347,0.8092,0.5785,0.4634,0.5023,0.2578,0.0901,0.0257,0.0129,-0.0,-0.0,-0.0,-0.0,-0.0,-0.0,-0.0,0.0,0.0,0.0,0.0,0.0,0.0,0.0,0.0,0.0,0.0,0.0,0.0,0.0,0.0,0.0,0.0,0.0,0.0,0.0,0.0,0.0,0.0,0.0,0.0,0.0,0.0,0.0,0.0,0.0,3.4397,3.4397,3.4397,3.4397,3.4397,3.4397,3.3869,3.2932,3.229,3.1192,2.9825,3.0438,3.0578,3.0216,3.0216,3.0216,3.0216,3.0216,3.0216,3.0216,3.0216,3.0216,3.0216,3.0216,3.0216,3.0216,3.0216,2.9943,2.9463,2.891,2.7767,2.6436,2.5877,2.502,2.4189,2.4427,2.4794,2.5197,2.5582,2.5986,2.6353,2.6536,2.6354,2.5898,2.4889,2.3071,2.1358,2.0343,1.9087,1.8169,1.7596,1.7479,1.7479,1.7479,1.6408,1.5332,1.4619,1.2946,1.139,1.0785,1.0257,0.9978,1.0039,1.0195,1.0324,1.0392,0.9163,0.8024,0.7234,0.5533,0.4224,0.3435,0.1849,0.0661,-0.0,-0.0,-0.0,-0.0,-0.0,-0.0,-0.0,-0.0,-0.0,0.0,0.0,0.0,0.0,0.0,0.0,0.0,0.0,0.0,0.0,0.0,0.0,0.0,0.0,0.0,0.0,0.0,0.0,0.0,0.0,0.0,0.0,0.0,0.0,0.0,0.0,0.0,0.0,0.0,3.4397,3.4397,3.4397,3.4397,3.4397,3.4397,3.4063,3.3386,3.2276,3.1221,3.0197,3.095,3.1026,3.0487,3.0306,3.0216,3.0216,3.0216,3.0216,3.0216,3.0216,3.0216,3.0216,3.0216,3.0216,3.0216,3.0216,3.0216,3.0125,2.9371,2.8423,2.7389,2.6436,2.5469,2.4753,2.4785,2.5124,2.5582,2.5876,2.6261,2.6591,2.6591,2.6354,2.5679,2.4223,2.2733,2.113,1.9203,1.8169,1.7479,1.7479,1.7479,1.7361,1.7126,1.5935,1.4738,1.3426,1.2147,1.0974,0.9998,1.0012,1.012,1.0154,1.0358,1.0377,1.0019,0.8789,0.7369,0.59,0.4836,0.3633,0.229,0.1481,0.0673,-0.0,-0.0,-0.0,-0.0,-0.0,-0.0,-0.0,-0.0,-0.0,0.0,0.0,0.0,0.0,0.0,0.0,0.0,0.0,0.0,0.0,0.0,0.0,0.0,0.0,0.0,0.0,0.0,0.0,0.0,0.0,0.0,0.0,0.0,0.0,0.0,0.0,0.0,0.0,0.0,3.4397,3.4397,3.4397,3.4397,3.4397,3.4397,3.4063,3.3386,3.2649,3.2277,3.219,3.1536,3.1294,3.1205,3.0487,3.0216,3.0216,3.0216,3.0216,3.0216,3.0216,3.0216,3.0216,3.0216,3.0216,3.0216,3.0216,3.0216,3.0216,3.0125,2.9463,2.8445,2.7484,2.6718,2.601,2.5061,2.5326,2.5931,2.5949,2.6261,2.6591,2.6591,2.6354,2.5679,2.4223,2.2733,2.0902,1.8169,1.7596,1.7479,1.7479,1.7479,1.7126,1.5935,1.4619,1.3306,1.1993,1.0797,1.0039,1.0039,1.0175,1.0317,1.0453,1.048,1.0019,0.8823,0.7365,0.59,0.4434,0.3094,0.2289,0.2155,0.1481,0.0808,-0.0,-0.0,-0.0,-0.0,-0.0,-0.0,-0.0,-0.0,-0.0,0.0,0.0,0.0,0.0,0.0,0.0,0.0,0.0,0.0,0.0,0.0,0.0,0.0,0.0,0.0,0.0,0.0,0.0,0.0,0.0,0.0,0.0,0.0,0.0,0.0,0.0,0.0,0.0,0.0,0.0,3.4397,3.4397,3.4397,3.4397,3.4397,3.4063,3.3386,3.353,3.3189,3.2302,3.25,3.2176,3.1294,3.1026,3.0668,3.0216,3.0216,3.0216,3.0216,3.0216,3.0216,3.0216,3.0216,3.0216,3.0216,3.0216,3.0216,3.0216,3.0216,2.9073,2.7715,2.7648,2.6586,2.5357,2.5485,2.5729,2.6023,2.6279,2.6481,2.6591,2.6591,2.5679,2.4094,2.1487,1.9883,1.8739,1.7713,1.7479,1.7479,1.7479,1.7479,1.7126,1.5806,1.461,1.3332,1.1889,1.09,1.0161,1.0059,1.0263,1.0432,1.0487,0.9783,0.9059,0.8701,0.6435,0.4833,0.43,0.2961,0.2155,0.2155,0.1481,0.0808,-0.0,-0.0,-0.0,-0.0,-0.0,-0.0,-0.0,-0.0,-0.0,0.0,0.0,0.0,0.0,0.0,0.0,0.0,0.0,0.0,0.0,0.0,0.0,0.0,0.0,0.0,0.0,0.0,0.0,0.0,0.0,0.0,0.0,0.0,0.0,0.0,0.0,0.0,0.0,0.0,0.0,3.4397,3.4397,3.4397,3.4397,3.4397,3.423,3.3725,3.4147,3.3784,3.2673,3.2932,3.2438,3.1294,3.1026,3.0668,3.0216,3.0216,3.0216,3.0216,3.0216,3.0216,3.0216,3.0216,3.0216,3.0239,3.0422,3.0491,3.0514,3.0675,2.9581,2.8178,2.8105,2.7042,2.5788,2.5908,2.6059,2.6224,2.6518,2.6591,2.6591,2.6482,2.4778,2.2507,1.9897,1.8402,1.7479,1.7479,1.7479,1.7479,1.7479,1.7126,1.6408,1.5213,1.4067,1.2821,1.137,1.0656,1.031,1.0209,1.0412,1.0568,1.0568,0.9323,0.844,0.7902,0.5637,0.4031,0.3631,0.2692,0.2155,0.2155,0.175,0.0943,-0.0,-0.0,-0.0,-0.0,-0.0,-0.0,-0.0,-0.0,-0.0,0.0,0.0,0.0,0.0,0.0,0.0,0.0,0.0,0.0,0.0,0.0,0.0,0.0,0.0,0.0,0.0,0.0,0.0,0.0,0.0,0.0,0.0,0.0,0.0,0.0,0.0,0.0,0.0,0.0,3.4397,3.4397,3.4397,3.4397,3.4397,3.4397,3.4397,3.4481,3.4397,3.4063,3.3471,3.276,3.1977,3.1294,3.0578,3.0216,3.0216,3.0216,3.0216,3.0216,3.0216,3.0216,3.0216,3.0216,3.0216,3.0285,3.0813,3.1019,3.1088,3.1593,3.1038,2.9949,2.8985,2.8086,2.7303,2.6287,2.6261,2.6591,2.6591,2.6591,2.6482,2.6136,2.3855,2.1244,1.9666,1.8402,1.7479,1.7479,1.7479,1.7479,1.7479,1.6526,1.5213,1.3913,1.2751,1.1526,1.0177,1.031,1.0493,1.0493,1.0622,1.0717,1.0585,0.9377,0.7902,0.6431,0.5101,0.3631,0.2289,0.2155,0.2155,0.2154,0.2154,0.1481,-0.0,-0.0,-0.0,-0.0,-0.0,-0.0,-0.0,-0.0,-0.0,3.5824,0.0,0.0,0.0,0.0,0.0,0.0,0.0,0.0,0.0,0.0,0.0,0.0,0.0,0.0,0.0,0.0,0.0,0.0,0.0,0.0,0.0,0.0,0.0,0.0,0.0,0.0,0.0,3.4729,3.4921,3.4921,3.4921,3.4921,3.4921,3.4564,3.4729,3.5304,3.5059,3.4812,3.4673,3.4397,3.353,3.2064,3.1777,3.1181,3.0216,3.0216,3.0216,3.0216,3.0216,3.0216,3.0216,3.0216,3.0216,3.0285,3.0813,3.1019,3.1088,3.157,3.0555,2.9006,2.9039,2.7811,2.643,2.6424,2.6499,2.6591,2.6591,2.6591,2.6008,2.3727,2.2379,2.1016,1.8519,1.7713,1.7479,1.7479,1.7479,1.7479,1.7479,1.6526,1.5266,1.4096,1.2943,1.1705,1.0468,1.0466,1.0616,1.0507,1.0622,1.0319,0.9244,0.7902,0.6435,0.4967,0.3631,0.2558,0.229,0.2155,0.2019,0.1481,0.1346,0.0943,-0.0,-0.0,-0.0,-0.0,-0.0,-0.0,-0.0,-0.0,-0.0,0.0,0.0,0.0,0.0,0.0,0.0,0.0,0.0,0.0,0.0,0.0,0.0,0.0,0.0,0.0,0.0,0.0,0.0,0.0,0.0,0.0,0.0,0.0,0.0,0.0,0.0,0.0,3.4397,3.4812,3.5086,3.5086,3.5249,3.5249,3.5086,3.4977,3.5223,3.571,3.5331,3.4921,3.4647,3.4481,3.3615,3.2302,3.1977,3.1448,3.0668,3.0306,3.0216,3.0216,3.0216,3.0216,3.0216,3.0216,3.0354,3.0606,3.1134,3.1456,3.1708,3.2213,3.1251,2.9775,2.9538,2.8271,2.6886,2.6608,2.6591,2.6591,2.6591,2.6482,2.5551,2.2717,2.1684,2.0673,1.8169,1.7479,1.7479,1.7479,1.7479,1.7397,1.6901,1.572,1.458,1.3446,1.2272,1.1254,1.0493,1.0568,1.069,1.0602,1.0663,1.018,0.8706,0.7236,0.5767,0.4434,0.2959,0.2155,0.2155,0.2155,0.2019,0.1616,0.0943,0.0404,-0.0,-0.0,-0.0,-0.0,-0.0,-0.0,-0.0,-0.0,-0.0,3.5691,3.5714,0.0,0.0,0.0,0.0,3.6438,3.6202,0.0,0.0,0.0,0.0,0.0,0.0,0.0,0.0,0.0,0.0,0.0,0.0,0.0,0.0,0.0,0.0,0.0,3.4397,3.4397,3.4397,3.4921,3.5168,3.5249,3.5548,3.5629,3.5249,3.5548,3.571,3.5871,3.5494,3.4895,3.4204,3.381,3.3189,3.2302,3.1649,3.1294,3.1116,3.0487,3.0216,3.0216,3.0216,3.0216,3.0216,3.0216,3.0537,3.1065,3.1547,3.2053,3.2558,3.3086,3.242,3.1257,3.0224,2.9071,2.7814,2.6899,2.6591,2.6591,2.6591,2.6026,2.5,2.2589,2.1457,2.0329,1.8052,1.7479,1.7479,1.7479,1.7385,1.7008,1.5803,1.4719,1.3542,1.2398,1.1298,1.05,1.0514,1.0629,1.0717,1.0717,1.0717,1.0047,0.8573,0.7236,0.5767,0.4166,0.2959,0.2155,0.2155,0.2155,0.2154,0.2019,0.0943,0.0135,-0.0,-0.0,-0.0,-0.0,-0.0,-0.0,-0.0,-0.0,-0.0,3.6015,3.5807,3.5633,0.0,0.0,0.0,0.0,3.4911,0.0,0.0,0.0,0.0,0.0,0.0,0.0,0.0,0.0,0.0,0.0,0.0,0.0,0.0,0.0,0.0,0.0,3.4397,3.4397,3.4397,3.5141,3.5737,3.6138,3.6218,3.6218,3.6138,3.5898,3.6031,3.6744,3.6377,3.5898,3.5386,3.5304,3.4178,3.2302,3.2127,3.1448,3.0397,3.0306,3.0216,3.0216,3.0216,3.0216,3.0216,3.0216,3.0537,3.1065,3.1547,3.2053,3.2558,3.3086,3.1913,3.0245,2.9911,2.8562,2.6899,2.67,2.6591,2.6591,2.6245,2.5238,2.3871,2.2153,2.0673,1.9319,1.783,1.7479,1.7479,1.7479,1.6805,1.5803,1.4671,1.4204,1.3587,1.257,1.1372,1.0534,1.0656,1.0704,1.0717,1.0717,1.0717,0.9643,0.7102,0.6564,0.5366,0.2825,0.2423,0.2155,0.2155,0.2155,0.1885,0.1346,0.1616,0.1212,-0.0,-0.0,-0.0,-0.0,-0.0,-0.0,-0.0,-0.0,-0.0,0.0,0.0,3.5575,3.4512,0.0,0.0,0.0,0.0,0.0,0.0,0.0,0.0,0.0,0.0,0.0,0.0,0.0,0.0,0.0,0.0,0.0,0.0,0.0,0.0,0.0,3.4397,3.4564,3.5059,3.5629,3.6138,3.6405,3.6615,3.6615,3.6405,3.6377,3.6587,3.6978,3.6615,3.6138,3.571,3.5467,3.4454,3.2846,3.25,3.1713,3.0758,3.0397,3.0216,3.0216,3.0216,3.0376,3.0606,3.0606,3.0928,3.1456,3.1938,3.2443,3.2826,3.2555,3.1688,3.0535,2.9387,2.8349,2.7314,2.6791,2.6591,2.6354,2.5441,2.4539,2.3424,2.1259,1.9998,1.8984,1.783,1.7479,1.7515,1.7648,1.6691,1.5544,1.4499,1.3717,1.2868,1.1735,1.0995,1.0629,1.0711,1.0717,1.0717,1.0717,1.0047,0.8839,0.6698,0.5767,0.4431,0.2423,0.2155,0.2155,0.2155,0.2155,0.1885,0.1077,0.1077,0.0808,-0.0,-0.0,-0.0,-0.0,-0.0,-0.0,-0.0,-0.0,-0.0,0.0,0.0,0.0,0.0,0.0,3.3944,0.0,0.0,0.0,3.459,0.0,0.0,0.0,0.0,0.0,0.0,0.0,0.0,0.0,0.0,0.0,0.0,0.0,0.0,0.0,3.4564,3.4895,3.579,3.6218,3.6405,3.6536,3.685,3.6822,3.6536,3.685,3.6978,3.6978,3.6693,3.6298,3.5817,3.5494,3.4647,3.33,3.276,3.1977,3.1026,3.0487,3.0216,3.0216,3.0216,3.0537,3.1019,3.1019,3.1387,3.1961,3.2134,3.2514,3.2846,3.1688,3.1154,3.0639,2.8754,2.8028,2.7707,2.6899,2.6482,2.6008,2.4633,2.3743,2.262,2.0357,1.9319,1.8765,1.7774,1.7563,1.7624,1.7528,1.6519,1.5309,1.427,1.2959,1.1743,1.0829,1.0717,1.0717,1.0717,1.0717,1.0717,1.0717,0.951,0.8035,0.6564,0.5101,0.3765,0.2289,0.2155,0.2155,0.2155,0.2155,0.1885,0.1077,0.0404,-0.0,-0.0,-0.0,-0.0,-0.0,-0.0,-0.0,-0.0,-0.0,-0.0,0.0,0.0,0.0,0.0,3.3831,0.0,0.0,0.0,3.3354,3.3494,0.0,0.0,0.0,0.0,0.0,0.0,0.0,0.0,0.0,0.0,0.0,0.0,0.0,0.0,0.0,0.0,3.5413,3.6218,3.6405,3.6536,3.69,3.6978,3.6978,3.69,3.6978,3.6978,3.6978,3.6978,3.6772,3.6325,3.6218,3.5114,3.3079,3.2993,3.1952,3.0306,3.0216,3.0216,3.0216,3.0216,3.0537,3.1019,3.1019,3.157,3.23,3.1362,3.1372,3.1586,3.0432,2.9387,2.8542,2.8329,2.7511,2.6791,2.67,2.5789,2.4889,2.4094,2.2394,2.0458,1.955,1.8519,1.7774,1.7768,1.7829,1.754,1.6563,1.5523,1.427,1.2925,1.1642,1.0829,1.0717,1.0717,1.0717,1.0717,1.0717,1.0717,1.0717,0.951,0.8035,0.6564,0.5101,0.3765,0.2289,0.2155,0.2155,0.2155,0.2155,0.1885,0.1077,0.0404,-0.0,-0.0,-0.0,-0.0,-0.0,-0.0,-0.0,-0.0,-0.0,-0.0,0.0,0.0,0.0,0.0,0.0,0.0,3.3452,0.0,3.341,0.0,0.0,0.0,0.0,0.0,0.0,0.0,0.0,0.0,0.0,0.0,0.0,0.0,0.0,0.0,0.0,0.0,0.0,0.0,0.0,3.685,3.6978,3.6978,3.6978,3.6978,3.6978,3.6978,3.6978,3.6978,3.6665,3.5978,3.5629,3.4428,3.2562,3.2239,3.1359,3.0216,3.0216,3.0216,3.0239,3.056,3.0973,3.1479,3.1754,3.2121,3.2414,3.1573,3.1411,3.1359,2.9493,2.8648,2.8116,2.7511,2.7008,2.6482,2.5789,2.5238,2.4334,2.2281,2.1016,1.9924,1.8828,1.8064,1.7781,1.8046,1.7497,1.682,1.6556,1.4779,1.3088,1.2686,1.1593,1.0717,1.0717,1.0717,1.0717,1.0717,1.0717,1.0452,0.9643,0.8169,0.6836,0.5369,0.3897,0.2827,0.229,0.2155,0.2155,0.2155,0.175,0.1212,0.0539,0.0135,-0.0,-0.0,-0.0,-0.0,-0.0,-0.0,-0.0,-0.0,-0.0,-0.0,3.5829,0.0,0.0,0.0,0.0,0.0,0.0,0.0,0.0,0.0,0.0,0.0,0.0,0.0,0.0,0.0,0.0,0.0,0.0,0.0,0.0,0.0,0.0,0.0,0.0,0.0,0.0,0.0,0.0,0.0,3.6978,3.6978,3.6978,3.6978,3.6978,3.6978,3.6978,3.6744,3.6243,3.5602,3.4841,3.3733,3.219,3.1713,3.1003,3.0216,3.0216,3.0285,3.0468,3.0859,3.1198,3.1598,3.1939,3.1968,3.1706,3.1353,3.0949,3.0432,2.8455,2.7707,2.7618,2.6899,2.6354,2.5916,2.511,2.4334,2.3311,2.0902,2.0053,1.9479,1.8175,1.7925,1.8058,1.8336,1.7382,1.6316,1.617,1.4162,1.2401,1.2274,1.1372,1.0717,1.0717,1.0717,1.0717,1.0717,1.0717,1.018,0.8839,0.7369,0.59,0.4434,0.3094,0.2155,0.2155,0.2155,0.2155,0.2155,0.175,0.0943,-0.0,-0.0,-0.0,-0.0,-0.0,-0.0,-0.0,-0.0,-0.0,-0.0,-0.0,-0.0,0.0,0.0,0.0,3.4272,0.0,0.0,0.0,0.0,3.4056,0.0,0.0,0.0,0.0,0.0,0.0,0.0,0.0,0.0,0.0,0.0,0.0,0.0,0.0,0.0,0.0,0.0,0.0,0.0,0.0,0.0,3.6978,3.6978,3.6978,3.6978,3.6978,3.6978,3.6978,3.6163,3.5575,3.5305,3.4402,3.3284,3.1904,3.1904,3.1223,3.0216,3.0216,3.0514,3.0996,3.0996,3.0903,3.0843,3.0865,3.0542,2.9995,2.9911,2.9282,2.8116,2.6989,2.67,2.67,2.6591,2.5789,2.4889,2.4778,2.3199,2.1174,2.0458,1.9519,1.8703,1.8117,1.8082,1.8348,1.8613,1.7645,1.6297,1.5245,1.3857,1.2421,1.0982,1.0717,1.0717,1.0717,1.0717,1.0717,1.0717,1.0717,1.018,0.8839,0.7369,0.59,0.4434,0.3094,0.2155,0.2155,0.2155,0.2155,0.2155,0.2155,0.1481,-0.0,-0.0,-0.0,-0.0,-0.0,-0.0,-0.0,-0.0,-0.0,-0.0,-0.0,-0.0,0.0,0.0,3.6458,3.5125,0.0,0.0,0.0,0.0,0.0,0.0,0.0,0.0,0.0,0.0,0.0,0.0,0.0,0.0,0.0,0.0,0.0,0.0,0.0,0.0,0.0,0.0,0.0,0.0,0.0,0.0,0.0,3.5224,3.5467,3.6163,3.5575,3.5467,3.6163,3.5224,3.4485,3.3959,3.3224,3.2389,3.1448,3.0979,3.074,3.0744,3.0744,3.1042,3.1547,3.1846,3.1488,3.0787,3.1214,3.0284,2.8754,2.8754,2.8542,2.8028,2.6989,2.6591,2.6482,2.5679,2.511,2.4556,2.2862,2.1729,2.063,1.9559,1.8877,1.8564,1.8447,1.8481,1.8363,1.7712,1.6476,1.5077,1.3849,1.2421,1.124,1.085,1.0717,1.0717,1.0717,1.0717,1.0717,1.0717,1.0717,0.9782,0.7503,0.6698,0.5499,0.3094,0.2423,0.2155,0.2155,0.2155,0.2019,0.1481,0.1885,0.1481,-0.0,-0.0,-0.0,-0.0,-0.0,-0.0,-0.0,-0.0,-0.0,-0.0,-0.0,-0.0,3.8074,3.8061,0.0,3.635,3.6104,0.0,3.4311,0.0,0.0,0.0,0.0,0.0,0.0,0.0,0.0,0.0,0.0,0.0,0.0,0.0,0.0,0.0,0.0,0.0,0.0,0.0,3.5763,3.5231,0.0,0.0,0.0,0.0,3.4568,3.5142,3.465,3.4568,3.5224,3.4319,3.3564,3.2968,3.2215,3.1536,3.0871,3.0582,3.0698,3.1019,3.1203,3.157,3.2053,3.2351,3.1672,3.0542,3.0841,2.9597,2.7726,2.8028,2.7921,2.7511,2.6791,2.6591,2.6373,2.5238,2.4556,2.376,2.1858,2.0672,1.9986,1.9009,1.8734,1.8619,1.8726,1.8368,1.7955,1.7205,1.5554,1.3866,1.2947,1.1637,1.0717,1.0717,1.0717,1.0717,1.0717,1.0717,1.0717,1.0717,1.0319,0.9111,0.6698,0.59,0.4833,0.2423,0.2155,0.2155,0.2155,0.2155,0.2019,0.1481,0.1481,0.0943,-0.0,-0.0,-0.0,-0.0,-0.0,-0.0,-0.0,-0.0,-0.0,-0.0,-0.0,-0.0]},{"header":{"parameterUnit":"m.s-1","parameterCategory":1,"la1":30.6,"la2":29.2853,"lo1":-89.7004,"lo2":-87.6739,"dy":0.0162,"dx":0.0183,"nx":112,"ny":82,"refTime":"2025-02-23T18:00:00:Z","depth":0,"parameterNumber":3,"parameterNumberName":"V-component_of_WINDS"},"data":[0.0,0.0,0.0,0.0,0.0,0.0,0.0,0.0,0.0,0.0,0.0,0.0,0.0,0.0,0.0,0.0,0.0,0.0,0.0,0.0,0.0,0.0,0.0,0.0,0.0,0.0,0.0,0.0,0.0,0.0,0.0,0.0,0.0,0.0,0.0,0.0,0.0,0.0,0.0,0.0,0.0,0.0,0.0,0.0,0.0,0.0,0.0,0.0,0.0,0.0,0.0,0.0,0.0,0.0,0.0,0.0,0.0,0.0,0.0,0.0,0.0,0.0,0.0,0.0,0.0,0.0,0.0,0.0,0.0,0.0,0.0,0.0,0.0,0.0,0.0,0.0,0.0,0.0,0.0,0.0,0.0,0.0,0.0,0.0,0.0,0.0,0.0,0.0,0.0,0.0,0.0,-4.3787,-4.4568,-4.5467,-4.6285,-4.6322,-4.602,-4.5295,0.0,0.0,0.0,0.0,0.0,0.0,0.0,0.0,0.0,0.0,0.0,0.0,0.0,0.0,0.0,0.0,0.0,0.0,0.0,0.0,0.0,0.0,0.0,0.0,0.0,0.0,0.0,0.0,0.0,0.0,0.0,0.0,0.0,0.0,0.0,0.0,0.0,0.0,0.0,0.0,0.0,0.0,0.0,0.0,0.0,0.0,0.0,0.0,0.0,0.0,0.0,0.0,0.0,0.0,0.0,0.0,0.0,0.0,0.0,0.0,0.0,0.0,0.0,0.0,0.0,0.0,0.0,0.0,0.0,0.0,0.0,0.0,0.0,0.0,0.0,0.0,0.0,0.0,0.0,0.0,0.0,0.0,0.0,0.0,0.0,0.0,0.0,0.0,0.0,0.0,0.0,0.0,0.0,0.0,0.0,0.0,0.0,0.0,0.0,0.0,0.0,0.0,0.0,0.0,-4.2599,-4.4781,-4.4612,-4.4705,-4.5525,-4.5624,-4.535,-4.4616,0.0,0.0,0.0,0.0,0.0,0.0,0.0,0.0,0.0,0.0,0.0,0.0,0.0,0.0,0.0,0.0,0.0,0.0,0.0,0.0,0.0,0.0,0.0,0.0,0.0,0.0,0.0,0.0,0.0,0.0,0.0,0.0,0.0,0.0,0.0,0.0,0.0,0.0,0.0,0.0,0.0,0.0,0.0,0.0,0.0,0.0,0.0,0.0,0.0,0.0,0.0,0.0,0.0,0.0,0.0,0.0,0.0,0.0,0.0,0.0,0.0,0.0,0.0,0.0,0.0,0.0,0.0,0.0,0.0,0.0,0.0,0.0,0.0,0.0,0.0,0.0,0.0,0.0,0.0,0.0,0.0,0.0,0.0,0.0,0.0,0.0,0.0,0.0,0.0,0.0,0.0,0.0,0.0,0.0,0.0,0.0,0.0,0.0,0.0,0.0,0.0,0.0,0.0,-4.2786,-4.2767,-4.4556,-4.4468,-4.4423,-4.4766,-4.5618,-4.5641,-4.4458,-4.4402,0.0,0.0,0.0,0.0,0.0,0.0,0.0,0.0,0.0,0.0,0.0,0.0,0.0,0.0,0.0,0.0,0.0,0.0,0.0,0.0,0.0,0.0,0.0,0.0,0.0,0.0,0.0,0.0,0.0,0.0,0.0,0.0,0.0,0.0,0.0,0.0,0.0,0.0,0.0,0.0,0.0,0.0,0.0,0.0,0.0,0.0,0.0,0.0,0.0,0.0,0.0,0.0,0.0,0.0,0.0,0.0,0.0,0.0,0.0,0.0,0.0,0.0,0.0,0.0,0.0,0.0,0.0,0.0,0.0,0.0,0.0,0.0,0.0,0.0,0.0,0.0,0.0,0.0,0.0,0.0,0.0,0.0,0.0,0.0,0.0,0.0,0.0,0.0,0.0,0.0,0.0,0.0,0.0,0.0,0.0,0.0,0.0,0.0,0.0,0.0,0.0,0.0,-4.3639,-4.3781,-4.4229,-4.4296,-4.4296,-4.4296,-4.5455,-4.5694,-4.4561,-4.4271,0.0,0.0,0.0,0.0,0.0,0.0,0.0,0.0,0.0,0.0,0.0,0.0,0.0,0.0,0.0,0.0,0.0,0.0,0.0,0.0,0.0,0.0,0.0,0.0,0.0,0.0,0.0,0.0,0.0,0.0,0.0,0.0,0.0,0.0,0.0,0.0,0.0,0.0,0.0,0.0,0.0,0.0,0.0,0.0,0.0,0.0,0.0,0.0,0.0,0.0,0.0,0.0,0.0,0.0,0.0,0.0,0.0,0.0,0.0,0.0,0.0,0.0,0.0,0.0,0.0,0.0,0.0,0.0,0.0,0.0,0.0,0.0,0.0,0.0,0.0,0.0,0.0,0.0,0.0,0.0,0.0,0.0,0.0,0.0,0.0,0.0,0.0,0.0,0.0,0.0,0.0,0.0,0.0,0.0,0.0,0.0,0.0,0.0,0.0,0.0,0.0,0.0,-4.393,-4.5051,-4.4378,-4.4354,-4.4383,-4.4383,-4.4552,-4.4691,-4.4789,-4.3336,0.0,0.0,0.0,0.0,0.0,0.0,0.0,0.0,0.0,0.0,0.0,0.0,0.0,0.0,0.0,0.0,0.0,0.0,0.0,0.0,0.0,0.0,0.0,0.0,0.0,0.0,0.0,0.0,0.0,0.0,0.0,0.0,0.0,0.0,0.0,0.0,0.0,0.0,0.0,0.0,0.0,0.0,0.0,0.0,0.0,0.0,0.0,0.0,0.0,0.0,0.0,0.0,0.0,0.0,0.0,0.0,0.0,0.0,0.0,0.0,0.0,0.0,0.0,0.0,0.0,0.0,0.0,0.0,0.0,0.0,0.0,0.0,0.0,0.0,0.0,0.0,0.0,0.0,0.0,0.0,0.0,0.0,0.0,0.0,0.0,0.0,0.0,0.0,0.0,0.0,0.0,0.0,0.0,0.0,0.0,0.0,0.0,0.0,0.0,0.0,0.0,0.0,-4.3184,-4.4186,0.0,-4.444,-4.4693,-4.5181,-4.5218,-4.5132,-4.4827,0.0,0.0,0.0,0.0,0.0,0.0,0.0,0.0,0.0,0.0,0.0,0.0,0.0,0.0,0.0,0.0,0.0,0.0,0.0,0.0,0.0,0.0,0.0,0.0,0.0,0.0,0.0,0.0,0.0,0.0,0.0,0.0,0.0,0.0,0.0,0.0,0.0,0.0,0.0,0.0,0.0,0.0,0.0,0.0,0.0,0.0,0.0,0.0,0.0,0.0,0.0,0.0,0.0,0.0,0.0,0.0,0.0,0.0,0.0,0.0,0.0,0.0,0.0,0.0,0.0,0.0,0.0,0.0,0.0,0.0,0.0,0.0,0.0,0.0,0.0,0.0,0.0,0.0,0.0,0.0,0.0,0.0,0.0,0.0,0.0,0.0,0.0,0.0,0.0,0.0,0.0,0.0,0.0,0.0,0.0,0.0,0.0,0.0,0.0,0.0,0.0,0.0,-4.1825,-4.2967,-4.3895,0.0,-4.4496,-4.4721,-4.5284,-4.5097,-4.4847,-4.4507,0.0,0.0,0.0,0.0,0.0,0.0,0.0,0.0,0.0,0.0,0.0,0.0,0.0,0.0,0.0,0.0,0.0,0.0,0.0,0.0,0.0,0.0,0.0,0.0,0.0,0.0,0.0,0.0,0.0,0.0,0.0,0.0,0.0,0.0,0.0,0.0,0.0,0.0,0.0,0.0,0.0,0.0,0.0,0.0,0.0,0.0,0.0,0.0,0.0,0.0,0.0,0.0,0.0,0.0,0.0,0.0,0.0,0.0,0.0,0.0,0.0,0.0,0.0,0.0,0.0,0.0,0.0,0.0,0.0,0.0,0.0,0.0,0.0,0.0,0.0,0.0,0.0,0.0,0.0,0.0,0.0,0.0,0.0,0.0,0.0,0.0,0.0,0.0,0.0,0.0,0.0,0.0,0.0,0.0,0.0,0.0,0.0,0.0,0.0,0.0,0.0,0.0,-4.1879,-4.3482,-4.4496,-4.4496,-4.4496,-4.4496,-4.4533,-4.3782,-4.3492,0.0,0.0,0.0,0.0,0.0,0.0,0.0,0.0,0.0,0.0,0.0,0.0,0.0,0.0,0.0,0.0,0.0,0.0,0.0,0.0,0.0,0.0,0.0,0.0,0.0,0.0,0.0,0.0,0.0,0.0,0.0,0.0,0.0,0.0,0.0,0.0,0.0,0.0,0.0,0.0,0.0,0.0,0.0,0.0,0.0,0.0,0.0,0.0,0.0,0.0,0.0,0.0,0.0,0.0,0.0,0.0,0.0,0.0,0.0,0.0,0.0,0.0,0.0,0.0,0.0,0.0,0.0,0.0,0.0,0.0,0.0,0.0,0.0,0.0,0.0,0.0,0.0,0.0,0.0,0.0,0.0,0.0,0.0,0.0,0.0,0.0,0.0,0.0,0.0,0.0,0.0,0.0,0.0,0.0,0.0,0.0,0.0,0.0,0.0,0.0,0.0,0.0,0.0,-4.1879,-4.3482,-4.4496,-4.4496,-4.4496,-4.4804,-4.5583,-4.4827,-4.3771,-4.243,0.0,0.0,0.0,0.0,0.0,0.0,0.0,0.0,0.0,0.0,0.0,0.0,0.0,0.0,0.0,0.0,0.0,0.0,0.0,0.0,0.0,0.0,0.0,0.0,0.0,0.0,0.0,0.0,0.0,0.0,0.0,0.0,0.0,0.0,0.0,0.0,0.0,0.0,0.0,0.0,0.0,0.0,0.0,0.0,0.0,0.0,0.0,0.0,0.0,0.0,0.0,0.0,0.0,0.0,0.0,0.0,0.0,0.0,0.0,0.0,0.0,0.0,0.0,0.0,0.0,0.0,0.0,0.0,0.0,0.0,0.0,0.0,0.0,0.0,0.0,0.0,0.0,0.0,0.0,0.0,0.0,0.0,0.0,0.0,0.0,0.0,0.0,0.0,0.0,0.0,0.0,0.0,0.0,0.0,0.0,0.0,0.0,0.0,0.0,0.0,0.0,0.0,-4.1867,-4.3482,-4.4496,-4.4496,-4.4541,-4.4889,-4.5533,-4.52,-4.4183,-4.2326,0.0,0.0,0.0,0.0,0.0,0.0,0.0,0.0,0.0,0.0,0.0,0.0,0.0,0.0,0.0,0.0,0.0,0.0,0.0,0.0,0.0,0.0,0.0,0.0,0.0,0.0,0.0,0.0,0.0,0.0,0.0,0.0,0.0,0.0,0.0,0.0,0.0,0.0,0.0,0.0,0.0,0.0,0.0,0.0,0.0,0.0,0.0,0.0,0.0,0.0,0.0,0.0,0.0,0.0,0.0,0.0,0.0,0.0,0.0,0.0,0.0,0.0,0.0,0.0,0.0,0.0,0.0,0.0,0.0,0.0,0.0,0.0,0.0,0.0,0.0,0.0,0.0,0.0,0.0,0.0,0.0,0.0,0.0,0.0,0.0,0.0,0.0,0.0,0.0,0.0,0.0,0.0,0.0,0.0,0.0,0.0,0.0,0.0,0.0,0.0,0.0,0.0,-4.1792,-4.3482,-4.4524,-4.4524,-4.4714,-4.4849,-4.4872,-4.5077,-4.4518,-4.2893,0.0,0.0,0.0,0.0,0.0,0.0,0.0,0.0,0.0,0.0,0.0,0.0,0.0,0.0,0.0,0.0,0.0,0.0,0.0,0.0,0.0,0.0,0.0,0.0,0.0,0.0,0.0,0.0,0.0,0.0,0.0,0.0,0.0,0.0,0.0,0.0,0.0,0.0,0.0,0.0,0.0,0.0,0.0,0.0,0.0,0.0,0.0,0.0,0.0,0.0,0.0,0.0,0.0,0.0,0.0,0.0,0.0,0.0,0.0,0.0,-3.7623,0.0,0.0,0.0,0.0,0.0,0.0,0.0,0.0,0.0,0.0,0.0,0.0,0.0,0.0,0.0,0.0,0.0,0.0,0.0,0.0,0.0,0.0,0.0,0.0,0.0,0.0,0.0,0.0,0.0,0.0,0.0,0.0,0.0,0.0,0.0,0.0,0.0,0.0,0.0,0.0,0.0,-4.1792,-4.3592,-4.4739,-4.4739,-4.4943,-4.5163,-4.5343,-4.538,-4.4256,-4.1454,-4.0449,0.0,0.0,0.0,0.0,0.0,0.0,0.0,0.0,0.0,0.0,0.0,0.0,0.0,0.0,0.0,0.0,0.0,0.0,0.0,0.0,0.0,0.0,0.0,0.0,0.0,0.0,0.0,0.0,0.0,0.0,0.0,0.0,0.0,0.0,0.0,0.0,0.0,0.0,0.0,0.0,0.0,0.0,0.0,0.0,0.0,0.0,0.0,0.0,0.0,0.0,0.0,0.0,0.0,0.0,0.0,0.0,0.0,0.0,0.0,0.0,-3.8584,0.0,0.0,0.0,0.0,0.0,0.0,0.0,0.0,0.0,0.0,0.0,0.0,0.0,0.0,0.0,0.0,0.0,0.0,0.0,0.0,0.0,0.0,0.0,0.0,0.0,0.0,0.0,0.0,0.0,0.0,0.0,0.0,0.0,0.0,0.0,0.0,0.0,0.0,0.0,0.0,-4.1405,-4.3478,-4.4849,-4.4966,-4.5184,-4.54,-4.5509,-4.5594,-4.4785,-4.2744,-4.139,0.0,0.0,0.0,0.0,0.0,0.0,0.0,0.0,0.0,0.0,0.0,0.0,0.0,0.0,0.0,0.0,0.0,0.0,0.0,0.0,0.0,0.0,0.0,0.0,0.0,0.0,0.0,0.0,0.0,0.0,0.0,0.0,0.0,0.0,0.0,0.0,0.0,0.0,0.0,0.0,0.0,0.0,0.0,0.0,0.0,0.0,0.0,0.0,0.0,0.0,0.0,0.0,0.0,-3.6157,-3.6863,-3.7679,-3.8394,-3.9314,-4.0442,-3.9185,-3.9625,-4.1143,0.0,0.0,0.0,0.0,0.0,0.0,0.0,0.0,0.0,0.0,0.0,0.0,0.0,0.0,0.0,0.0,0.0,0.0,0.0,0.0,0.0,0.0,0.0,0.0,0.0,-4.183,-4.1595,0.0,0.0,0.0,0.0,0.0,0.0,0.0,0.0,0.0,0.0,0.0,0.0,-4.12,-4.3453,-4.5011,-4.5243,-4.5455,-4.556,-4.556,-4.5688,-4.5452,-4.4626,-4.2976,-4.0926,0.0,0.0,0.0,0.0,0.0,0.0,0.0,0.0,0.0,0.0,0.0,0.0,0.0,0.0,0.0,0.0,0.0,0.0,0.0,0.0,0.0,0.0,0.0,0.0,0.0,0.0,0.0,0.0,0.0,0.0,0.0,0.0,-3.423,-3.423,0.0,0.0,0.0,0.0,0.0,0.0,0.0,0.0,0.0,0.0,0.0,0.0,0.0,-3.6179,-3.6179,-3.679,-3.7067,-3.7097,-3.7187,-3.7661,-3.8388,-3.903,-3.975,-4.0507,-4.0836,0.0,-4.0613,-4.164,0.0,0.0,0.0,0.0,0.0,0.0,0.0,0.0,0.0,0.0,0.0,0.0,0.0,0.0,0.0,0.0,0.0,0.0,0.0,0.0,0.0,0.0,-4.3051,-4.1391,-4.1565,-4.2139,0.0,-4.0766,-3.9703,-4.1102,-3.9239,0.0,0.0,0.0,0.0,0.0,0.0,0.0,-4.2132,-4.4075,-4.5399,-4.5473,-4.5642,-4.5771,-4.5771,-4.58,-4.5438,-4.4583,-4.2911,-4.1184,-3.9329,-3.6969,0.0,0.0,0.0,0.0,0.0,0.0,0.0,0.0,0.0,0.0,0.0,0.0,0.0,0.0,0.0,0.0,0.0,0.0,0.0,0.0,0.0,0.0,0.0,0.0,0.0,0.0,0.0,0.0,0.0,-3.4841,-3.5087,-3.5087,-3.6136,-3.6922,0.0,0.0,0.0,0.0,0.0,0.0,0.0,0.0,0.0,-3.6763,-3.6841,-3.7029,-3.7416,-3.7396,-3.7609,-3.8013,-3.8378,-3.9133,-4.0261,-4.0895,-4.1585,-4.2282,-4.2518,-4.2327,-4.1743,-4.1465,-4.0978,-4.0382,0.0,0.0,0.0,0.0,-3.9421,-3.8977,-3.9887,-3.9749,0.0,-3.8901,0.0,0.0,0.0,0.0,0.0,0.0,0.0,0.0,0.0,0.0,0.0,-4.303,-4.3085,-4.3415,-4.4116,-4.2809,-4.1611,0.0,-4.1229,-4.0103,-3.8563,0.0,0.0,0.0,0.0,0.0,-4.1833,-4.402,-4.556,-4.5658,-4.5771,-4.58,-4.58,-4.58,-4.5645,-4.523,-4.4123,-4.2885,-4.1635,-3.9185,-3.7251,0.0,0.0,0.0,0.0,0.0,0.0,0.0,0.0,0.0,0.0,0.0,0.0,0.0,0.0,0.0,0.0,0.0,0.0,0.0,0.0,0.0,0.0,0.0,0.0,0.0,0.0,0.0,0.0,-3.5925,-3.6113,-3.5976,-3.6906,-3.7585,0.0,0.0,0.0,0.0,0.0,0.0,-3.7286,-3.6951,-3.7109,-3.7983,-3.7754,-3.7913,-3.8392,-3.834,-3.85,-3.9102,-3.9796,-4.08,-4.1992,-4.2512,-4.308,-4.3747,-4.3747,-4.3506,-4.3022,-4.1554,-4.1067,-4.1122,-3.986,-3.9262,-3.9196,-3.9927,-3.9781,-3.9354,-4.052,-4.0629,-4.022,-3.9903,0.0,-3.9939,-3.97,0.0,0.0,0.0,0.0,-4.233,-4.3418,-4.3613,-4.3759,-4.4267,-4.4235,-4.4289,-4.4953,-4.4495,-4.3707,0.0,-4.2956,-4.2168,-3.969,0.0,0.0,0.0,0.0,-4.197,-4.2181,-4.4184,-4.5626,-4.5786,-4.58,-4.58,-4.58,-4.58,-4.58,-4.5786,-4.5258,-4.4523,-4.3659,-4.1583,-3.9959,-3.8876,0.0,0.0,0.0,0.0,0.0,0.0,0.0,0.0,0.0,0.0,0.0,0.0,0.0,0.0,0.0,0.0,0.0,0.0,0.0,0.0,0.0,0.0,0.0,0.0,0.0,0.0,0.0,0.0,0.0,-3.6929,-3.8313,0.0,0.0,0.0,0.0,-3.906,-3.903,-3.8805,-3.8392,-3.8302,-3.8033,-3.7464,-3.8033,-3.8362,-3.8392,-3.9811,-4.0529,-4.0597,-4.1464,-4.2267,-4.2949,-4.2982,-4.341,-4.4097,-4.4097,-4.4064,-4.3997,-4.2989,-4.1888,-4.0749,-3.9979,-3.9242,-3.8689,-3.932,-3.9327,-3.9208,-4.0456,-4.044,-4.0089,-4.1021,-4.1145,-4.1038,-4.0998,-4.1121,0.0,0.0,-4.2621,-4.3862,-4.3433,-4.387,-4.438,-4.4178,-4.4079,-4.417,-4.4449,-4.5097,-4.5585,0.0,-4.367,-4.1991,-4.1841,0.0,-4.1844,-4.1032,-4.2738,-4.4124,-4.4162,-4.5117,-4.58,-4.58,-4.58,-4.58,-4.58,-4.58,-4.5786,-4.5795,-4.5747,-4.536,-4.4467,-4.3568,-4.2357,-4.0694,-3.8914,0.0,0.0,0.0,0.0,0.0,0.0,0.0,0.0,0.0,0.0,0.0,0.0,0.0,0.0,0.0,0.0,0.0,0.0,0.0,0.0,0.0,0.0,0.0,0.0,0.0,0.0,0.0,0.0,-3.8611,-3.9244,0.0,-3.952,-3.921,-3.8911,-3.8639,-3.868,-3.856,-3.8392,-3.8392,-3.8552,-3.8903,-3.9573,-3.9941,-4.0108,-4.1037,-4.1723,-4.2141,-4.2488,-4.3015,-4.368,-4.368,-4.3831,-4.4097,-4.4097,-4.4155,-4.4112,-4.2814,-4.2009,-4.1418,-4.0682,-3.9945,-3.9343,-3.9454,-3.9562,-3.9799,-4.0573,-4.0871,-4.1041,-4.1895,-4.2114,-4.2099,-4.2217,-4.2296,-4.2372,-4.2372,-4.2958,-4.3543,-4.3359,-4.3781,-4.4225,-4.4116,-4.4229,-4.4383,-4.4468,-4.4721,-4.4946,-4.4946,-4.4233,-4.3444,-4.2919,-4.2586,-4.2284,-4.198,-4.3293,-4.4295,-4.4295,-4.5171,-4.58,-4.58,-4.58,-4.58,-4.58,-4.58,-4.58,-4.5786,-4.58,-4.5645,-4.536,-4.4548,-4.3595,-4.2434,-4.0732,-3.876,0.0,0.0,0.0,0.0,0.0,0.0,0.0,0.0,0.0,0.0,0.0,0.0,0.0,0.0,0.0,0.0,0.0,0.0,0.0,0.0,0.0,0.0,0.0,0.0,0.0,0.0,-3.973,-3.9496,-4.0106,-4.0423,-4.0129,-3.9757,-3.9324,-3.8781,-3.8751,-3.8751,-3.8751,-3.8751,-3.9143,-3.999,-4.0447,-4.0894,-4.1295,-4.2078,-4.2645,-4.3075,-4.3376,-4.3798,-4.427,-4.427,-4.427,-4.427,-4.427,-4.4327,-4.4282,-4.3036,-4.2341,-4.195,-4.0942,-4.027,-3.9833,-3.985,-4.0104,-4.0549,-4.1128,-4.1534,-4.1917,-4.245,-4.2649,-4.2727,-4.2844,-4.2882,-4.292,-4.2995,-4.3178,-4.332,-4.3526,-4.3823,-4.414,-4.4199,-4.4383,-4.4496,-4.4496,-4.4496,-4.4496,-4.4496,-4.4496,-4.4233,-4.3444,-4.3302,-4.3232,-4.2927,-4.4,-4.48,-4.48,-4.5394,-4.58,-4.58,-4.58,-4.58,-4.58,-4.5529,-4.5413,-4.5413,-4.5413,-4.5413,-4.5413,-4.4871,-4.433,-4.375,-4.2086,-4.023,-3.8218,0.0,0.0,0.0,0.0,0.0,0.0,0.0,0.0,0.0,0.0,0.0,0.0,0.0,0.0,0.0,0.0,0.0,0.0,0.0,0.0,0.0,0.0,0.0,-3.7447,-3.9215,-4.0256,-3.9613,-4.1026,-4.1525,-4.0248,-4.0323,-4.0127,-3.9499,-3.9439,-3.9409,-3.9409,-3.9409,-3.9809,-4.069,-4.0758,-4.1131,-4.2045,-4.2925,-4.3383,-4.3383,-4.4212,-4.4587,-4.4587,-4.4587,-4.4587,-4.4587,-4.4587,-4.4553,-4.4485,-4.3707,-4.2929,-4.2117,-4.0663,-4.0138,-4.0154,-4.0514,-4.0896,-4.1346,-4.2044,-4.245,-4.2609,-4.2609,-4.2765,-4.2882,-4.2882,-4.292,-4.2957,-4.325,-4.3284,-4.3424,-4.3986,-4.4109,-4.417,-4.444,-4.4496,-4.4496,-4.4496,-4.4496,-4.4496,-4.4496,-4.4496,-4.4271,-4.3509,-4.4355,-4.4895,-4.4095,-4.5021,0.0,-4.58,-4.58,-4.58,-4.58,-4.58,-4.58,-4.58,-4.5065,-4.4601,-4.4639,-4.4601,-4.4601,-4.4639,-4.4639,-4.4639,-4.4639,-4.2937,-4.1622,-4.0848,0.0,0.0,0.0,0.0,0.0,0.0,0.0,0.0,0.0,0.0,0.0,0.0,0.0,0.0,0.0,0.0,0.0,0.0,0.0,0.0,0.0,0.0,-3.887,-3.8696,-3.9847,-4.0812,-4.1077,-4.1822,-4.2145,-4.1756,-4.0965,-4.0337,-4.0157,-3.9679,-3.9409,-3.9409,-3.9409,-3.9879,-4.0857,-4.1362,-4.2109,-4.3075,-4.3856,-4.427,-4.427,-4.4497,-4.4587,-4.4587,-4.4587,-4.4587,-4.4587,-4.4587,-4.4248,-4.3673,-4.2929,-4.2151,-4.1474,-4.1068,-4.078,-4.0611,-4.0577,-4.1105,-4.1846,-4.2169,-4.253,-4.2768,-4.2649,-4.2765,-4.2882,-4.2882,-4.3032,-4.3214,-4.3286,-4.356,-4.3886,-4.4079,-4.4229,-4.4411,-4.4468,-4.4496,-4.4496,-4.4496,-4.4496,-4.4496,-4.4496,-4.4621,-4.4638,-4.4436,-4.4851,-4.5186,-4.5073,-4.5488,0.0,-4.58,-4.58,-4.58,-4.58,-4.58,-4.58,-4.58,-4.5065,-4.4858,-4.5409,-4.4868,-4.4829,-4.5448,-4.5448,-4.5462,-4.5452,-4.3827,-4.2512,0.0,0.0,0.0,0.0,0.0,0.0,0.0,0.0,0.0,0.0,0.0,0.0,0.0,0.0,0.0,0.0,0.0,0.0,0.0,0.0,0.0,0.0,-3.8725,-3.9392,-4.0071,-4.0686,-4.1303,-4.1844,-4.2455,-4.2671,-4.2372,-4.1414,-4.0696,-4.0427,-3.9798,-3.9409,-3.9409,-3.9666,-4.0339,-4.1362,-4.2045,-4.2953,-4.3972,-4.4384,-4.4587,-4.4587,-4.4587,-4.4587,-4.4587,-4.4587,-4.4587,0.0,-4.4215,-4.3842,-4.3335,-4.2286,-4.1576,0.0,0.0,0.0,0.0,0.0,-4.1725,-4.2382,-4.2494,-4.2691,-4.2882,-4.2729,-4.2765,-4.2842,-4.2957,-4.3069,-4.3214,-4.3529,-4.3828,-4.4079,-4.4229,-4.4383,-4.4496,-4.4496,-4.4496,-4.4496,-4.4496,-4.4496,-4.4496,-4.4496,-4.4636,0.0,-4.4943,-4.5163,-4.5381,-4.5491,-4.5658,-4.58,-4.58,-4.58,-4.58,-4.58,-4.58,-4.58,-4.58,-4.5065,0.0,0.0,0.0,-4.4752,-4.5269,-4.5307,0.0,0.0,0.0,0.0,0.0,0.0,0.0,0.0,-4.2512,-4.3053,0.0,0.0,0.0,0.0,0.0,0.0,0.0,0.0,0.0,0.0,0.0,0.0,0.0,0.0,0.0,0.0,-3.9305,-3.9877,-4.1222,-4.1695,-4.1912,-4.2179,-4.2842,-4.312,-4.2521,-4.1863,-4.1205,-4.0546,-3.9888,-3.9499,-3.9409,0.0,0.0,0.0,0.0,-4.3529,-4.4587,-4.4587,-4.4587,-4.4587,-4.4587,-4.4587,-4.4587,-4.4587,-4.4519,-4.4418,-4.3707,-4.3335,-4.3064,-4.1745,-4.1188,-4.1104,-4.0476,-4.0514,-4.1082,-4.1931,-4.2537,-4.2882,-4.2882,0.0,0.0,-4.2844,-4.2765,-4.2727,-4.3069,-4.3105,-4.3142,-4.3828,-4.4017,-4.4147,-4.4411,-4.4496,-4.4496,-4.4496,-4.4496,-4.4496,-4.4496,-4.4496,-4.4496,-4.4496,-4.47,-4.4919,-4.5159,-4.5381,-4.5526,-4.5543,-4.5673,-4.58,-4.58,-4.58,-4.58,-4.58,0.0,0.0,-4.58,-4.5065,-4.4639,-4.4742,-4.4742,-4.4742,-4.4742,-4.4833,-4.5181,-4.58,-4.5877,-4.6264,-4.696,-4.696,-4.6612,-4.5877,-4.3518,-4.4059,0.0,0.0,0.0,0.0,0.0,0.0,0.0,0.0,0.0,0.0,0.0,0.0,0.0,0.0,0.0,-3.9189,-4.0217,-4.1105,-4.1607,-4.2317,-4.2802,-4.2802,-4.3081,-4.3269,-4.315,-4.2551,-4.1893,-4.1235,-4.0576,-3.9978,-3.9439,-4.017,0.0,-4.1981,-4.2769,-4.368,-4.4587,-4.4587,-4.4587,-4.4587,0.0,0.0,-4.4587,-4.4587,-4.4248,-4.3639,-4.347,-4.2726,-4.161,-4.1339,-4.1086,-4.0913,-4.1163,-4.1543,-4.1973,-4.2537,-4.2806,-4.2882,-4.2727,-4.2729,-4.2844,-4.253,-4.2727,-4.3069,-4.3032,-4.3356,0.0,-4.4017,-4.4199,-4.4354,-4.4468,-4.4496,-4.4496,-4.4496,-4.4496,-4.4496,-4.4496,-4.4496,-4.4496,-4.4496,-4.4814,-4.5159,-4.5201,-4.5381,-4.556,-4.5703,-4.5786,-4.58,-4.58,-4.58,-4.58,-4.58,-4.58,-4.58,-4.58,-4.5065,-4.4896,-4.5525,-4.5563,-4.5563,-4.5563,-4.625,-4.6341,-4.58,-4.6496,-4.6573,-4.6032,-4.6032,-4.6341,-4.6806,-4.5606,-4.5413,0.0,0.0,0.0,0.0,0.0,0.0,0.0,0.0,0.0,0.0,0.0,-3.8294,-3.8996,0.0,-3.977,-4.0246,-4.0908,-4.1674,-4.2237,-4.2723,-4.3061,-4.317,-4.325,-4.3329,-4.3329,-4.2731,-4.2102,-4.1444,-4.0756,-4.0127,-3.9469,-4.0585,-4.1462,-4.1981,-4.3169,-4.4064,-4.4587,-4.4587,-4.4587,-4.4587,-4.4587,-4.4587,-4.4553,-4.4181,-4.3775,-4.3369,-4.2625,-4.188,-4.117,-4.1069,-4.1194,-4.1499,-4.176,-4.1973,-4.2257,-4.2729,-4.2882,-4.2882,-4.2768,-4.2729,-4.2727,-4.253,-4.2652,-4.2957,-4.3069,-4.3355,-4.3758,-4.4085,-4.4237,-4.4354,-4.4383,-4.444,-4.4468,-4.444,-4.4468,-4.4496,-4.4496,-4.4496,-4.4496,-4.4496,-4.4764,-4.5033,-4.518,-4.5381,-4.5577,-4.5786,-4.58,-4.58,-4.58,-4.58,-4.58,-4.58,-4.58,-4.58,-4.58,-4.5413,-4.5374,-4.5771,-4.581,-4.581,-4.581,-4.6225,-4.6457,-4.6457,-4.6883,-4.6883,-4.6457,-4.6457,-4.6457,-4.6457,-4.6457,-4.6689,0.0,0.0,0.0,0.0,0.0,0.0,0.0,0.0,-3.6117,-3.7504,-3.7938,-3.8507,-3.9844,-4.0205,-4.0546,-4.123,-4.1485,-4.1909,-4.2841,-4.2981,-4.317,-4.325,-4.3329,-4.3329,-4.3329,-4.2851,-4.2222,-4.1444,-4.0876,-4.0247,-3.9469,-4.0894,-4.1853,-4.1981,-4.3529,-4.444,-4.4587,-4.4587,-4.4587,-4.4587,-4.4587,-4.4587,-4.4553,-4.3775,-4.3335,-4.3132,-4.1644,-4.1018,-4.1138,-4.0995,-4.141,-4.2216,-4.2297,-4.2338,-4.2378,-4.2768,-4.2882,-4.2882,-4.2844,-4.2765,-4.2609,-4.2573,-4.2691,-4.2846,-4.3178,-4.3424,-4.3656,-4.4085,-4.4244,-4.4304,-4.4304,-4.4354,-4.444,-4.4383,-4.4411,-4.444,-4.444,-4.444,-4.444,-4.444,-4.461,-4.4849,-4.5137,-4.5362,-4.556,-4.5786,-4.58,-4.58,-4.58,-4.58,-4.58,-4.58,-4.58,-4.58,-4.58,-4.58,-4.58,-4.58,-4.58,-4.58,-4.58,-4.5955,-4.6303,-4.6844,-4.6999,-4.6999,-4.6844,-4.6844,-4.6496,-4.58,-4.6689,-4.7463,-3.3972,-3.3495,-3.3395,-3.4299,-3.4287,-3.43,0.0,0.0,-3.6207,-3.7226,-3.809,-3.8936,-3.9931,-4.0583,-4.1018,-4.1076,-4.1975,-4.26,-4.2769,-4.301,-4.325,-4.3329,-4.3329,-4.3329,-4.3329,-4.3269,-4.2701,-4.1474,-4.1324,-4.0726,-3.9499,-4.1028,-4.1981,-4.1981,-4.368,-4.4587,-4.4587,-4.4587,-4.4587,-4.4587,-4.4587,-4.4587,-4.4553,-4.3775,-4.3064,-4.232,-4.0832,-4.0489,-4.0858,-4.1265,-4.1717,-4.2257,-4.2691,-4.2806,-4.2844,-4.2882,-4.2882,-4.2882,-4.2727,-4.2609,-4.2609,-4.2537,-4.2806,-4.3178,-4.3387,-4.3693,-4.3986,-4.4207,-4.4244,-4.4214,-4.4304,-4.4333,-4.4333,-4.4296,-4.4333,-4.4296,-4.4296,-4.4296,-4.4296,-4.4296,-4.4448,-4.4726,-4.5033,-4.5265,-4.5488,-4.5771,-4.58,-4.58,-4.58,-4.58,-4.58,-4.58,-4.58,-4.58,-4.58,-4.58,-4.58,-4.58,-4.58,-4.58,-4.58,-4.6535,-4.6651,-4.5955,-4.6689,-4.6728,-4.5955,-4.5955,-4.5877,-4.58,-4.6689,-4.7154,-3.3972,-3.3972,0.0,0.0,-3.455,-3.4901,-3.5027,-3.5571,-3.6236,-3.7042,-3.8304,-3.9506,-4.0288,-4.1126,-4.1767,0.0,-4.235,-4.2769,-4.285,-4.309,-4.3329,-4.3329,-4.3329,-4.3329,-4.3329,-4.3329,-4.2791,-4.1474,-4.1025,-4.0618,-4.0081,-4.0918,-4.1755,-4.255,-4.3914,-4.4587,-4.4587,-4.4587,-4.4587,-4.4587,-4.4587,-4.4587,-4.4553,-4.3301,-4.2117,-4.1018,-4.0675,-4.0802,-4.123,-4.1717,-4.218,-4.2652,-4.2844,-4.2806,-4.2727,-4.2727,-4.2727,-4.2727,-4.249,-4.2454,-4.2573,-4.2498,-4.2885,-4.3389,-4.3422,-4.3758,-4.4116,-4.4116,-4.4147,-4.4184,-4.4147,-4.4207,-4.4304,-4.4244,-4.4274,-4.4304,-4.4304,-4.4304,-4.4304,-4.4304,-4.4383,-4.4513,-4.4751,-4.4896,-4.5061,-4.5453,-4.5673,-4.58,-4.58,-4.58,-4.58,-4.58,-4.58,-4.58,-4.58,-4.58,-4.58,-4.58,-4.58,-4.58,-4.58,-4.6148,-4.6148,-4.58,-4.6148,-4.6148,-4.58,-4.58,-4.6071,-4.6573,-4.7463,-4.8121,-3.3897,0.0,0.0,-3.4374,-3.4951,-3.5479,-3.5228,-3.5698,-3.6315,-3.7116,-3.8236,-3.9501,-4.0434,-4.1254,0.0,-4.231,-4.2607,-4.285,-4.2981,-4.317,-4.3269,-4.309,-4.306,-4.306,-4.306,-4.324,-4.2791,-4.1474,-4.0905,-4.0516,-4.0232,-4.0864,-4.1678,-4.2687,-4.393,-4.4587,-4.4587,-4.4587,-4.4587,-4.4587,-4.4587,-4.4451,-4.4215,-4.2819,-4.1478,-4.0303,-4.0802,-4.1276,-4.1717,-4.2056,-4.2458,-4.2882,-4.2882,-4.2804,-4.2609,-4.253,-4.253,-4.249,-4.2287,-4.2333,-4.2537,-4.2541,-4.2996,-4.349,-4.356,-4.3828,-4.4116,-4.4055,-4.4055,-4.4116,-4.4055,-4.4116,-4.4207,-4.4184,-4.4177,-4.4207,-4.4207,-4.4207,-4.4207,-4.4207,-4.4207,-4.4288,-4.4519,-4.4572,-4.4751,-4.5204,-4.5453,-4.5658,-4.5786,-4.58,-4.58,-4.58,-4.58,-4.58,-4.58,-4.58,-4.58,-4.58,-4.58,-4.58,-4.58,-4.58,-4.58,-4.58,-4.58,-4.58,-4.58,-4.6032,-4.6457,-4.7115,-4.8237,-4.9088,0.0,0.0,-3.4173,-3.5228,-3.5529,-3.568,-3.6182,-3.6402,-3.6684,-3.7586,-3.7795,-3.8405,-4.0232,-4.0802,-4.1339,-4.2228,-4.2769,-4.2981,-4.2981,-4.317,-4.309,-4.2462,-4.2402,-4.2402,0.0,-4.297,-4.2791,-4.1474,-4.1286,-4.0738,-3.9487,-4.0958,-4.1874,-4.1907,-4.3695,-4.4587,-4.4587,-4.4587,-4.4587,-4.4587,-4.4587,-4.4181,-4.3403,-4.2364,-4.1478,-4.0802,-4.1276,-4.176,-4.2175,-4.2216,-4.2458,-4.2882,-4.2882,-4.2804,-4.257,-4.2369,-4.2328,-4.2287,-4.2002,-4.2175,-4.2501,-4.2734,-4.3069,-4.3493,-4.386,-4.3986,-4.4023,-4.3986,-4.3986,-4.4023,-4.3986,-4.3986,-4.3986,-4.4023,-4.3986,-4.3986,-4.3986,-4.3986,-4.3986,-4.3986,-4.3986,-4.414,-4.4438,-4.4493,-4.465,-4.5033,-4.5099,-4.5303,-4.575,-4.5786,-4.58,-4.58,-4.58,-4.58,-4.58,-4.58,-4.58,-4.58,-4.58,-4.58,-4.58,-4.58,-4.58,-4.58,-4.58,-4.58,-4.58,-4.6651,-4.7076,-4.7154,-4.8856,-4.9668,0.0,0.0,-3.5077,-3.5454,-3.6107,-3.6584,-3.6408,-3.6634,-3.6905,-3.6879,-3.7887,-3.8944,-3.9563,-4.0887,-4.2034,-4.2392,-4.2769,-4.2981,-4.2981,-4.317,-4.309,-4.2432,-4.2372,0.0,0.0,0.0,0.0,-4.1414,-4.0568,-4.0245,-4.0782,-4.1136,-4.1939,-4.3315,-4.4192,-4.4587,-4.4587,-4.4587,-4.4587,-4.4587,-4.4045,-4.3403,-4.2625,-4.214,-4.1492,-4.0849,-4.163,-4.2056,-4.2216,-4.2414,-4.2534,-4.2688,-4.2534,-4.2333,-4.2127,-4.2044,-4.1952,-4.1823,-4.1736,-4.2133,-4.2696,-4.2772,-4.3248,-4.3828,-4.3955,-4.3986,-4.3986,-4.3986,-4.3986,-4.3986,-4.3986,-4.3986,-4.3986,-4.3986,-4.3986,-4.3986,-4.3986,-4.3986,-4.3986,-4.3986,-4.3986,-4.4017,-4.4132,-4.4162,-4.4308,-4.465,-4.4966,-4.5222,-4.5381,-4.54,-4.5473,-4.5594,-4.561,-4.5642,-4.5795,-4.5786,-4.58,-4.581,-4.5786,-4.58,-4.58,-4.58,-4.58,-4.58,-4.58,-4.58,-4.58,-4.6651,-4.7386,-4.8005,-4.9165,-4.9977,0.0,-3.5152,-3.5881,-3.6081,-3.681,-3.7337,-3.6784,-3.6935,-3.7036,-3.6483,-3.7272,-3.8202,-3.8884,-4.0097,-4.1232,-4.2144,-4.2574,-4.2902,-4.3031,-4.325,-4.309,-4.2432,-4.2372,-4.2192,0.0,0.0,0.0,-4.1025,-4.0484,-4.0431,-4.1081,-4.1443,-4.2294,-4.3662,-4.4192,-4.4497,-4.4587,-4.4587,-4.4451,-4.4147,-4.3369,-4.2732,-4.2159,-4.1885,-4.1592,-4.1321,-4.2098,-4.2458,-4.2458,-4.2534,-4.2609,-4.257,-4.2369,-4.2163,-4.1874,-4.1874,-4.1744,-4.1604,-4.1744,-4.2257,-4.2847,-4.2959,-4.3493,-4.3986,-4.3986,-4.3986,-4.3986,-4.3986,-4.3986,-4.3986,-4.3986,-4.3986,-4.3986,-4.3986,-4.3986,-4.3986,-4.3986,-4.3986,-4.3986,-4.3986,-4.3986,-4.3986,-4.3986,-4.4055,-4.414,-4.4336,-4.4688,-4.4957,-4.5077,-4.5099,-4.5163,-4.5266,-4.5266,-4.5361,-4.5509,-4.561,-4.5658,-4.568,-4.5757,-4.58,-4.58,-4.58,-4.58,-4.58,-4.58,-4.5955,-4.6264,-4.7154,-4.8005,-4.8894,-4.9745,-5.0403,-3.5253,-3.5956,-3.6533,-3.7061,-3.7588,-3.7864,-3.7312,-3.7186,-3.7036,-3.6578,-3.621,-3.6625,0.0,0.0,-3.9329,-4.1676,-4.2216,-4.2641,-4.324,-4.3329,-4.309,0.0,0.0,0.0,0.0,0.0,0.0,-4.0501,0.0,-4.1112,-4.0546,-4.1972,-4.2856,-4.3026,-4.3866,-4.4384,-4.4587,-4.4553,-4.4147,-4.3403,-4.2625,-4.2125,-4.1871,-4.1625,-4.176,-4.2257,-4.2729,-4.2882,-4.2844,-4.2688,-4.257,-4.257,-4.2328,-4.2121,-4.1874,-4.1874,-4.1744,-4.1648,-4.205,-4.2462,-4.2885,-4.3248,-4.366,-4.3986,-4.3986,-4.3986,-4.3986,-4.3986,-4.3986,-4.3986,-4.3986,-4.3986,-4.3986,-4.3986,-4.3986,-4.3986,-4.3986,-4.3986,-4.3986,-4.3986,-4.3986,-4.3986,-4.3986,-4.4085,-4.4184,-4.4184,-4.4244,-4.443,-4.4796,-4.4867,-4.4867,-4.489,-4.489,-4.495,-4.5055,-4.5285,-4.5417,-4.5509,-4.5673,-4.58,-4.58,-4.58,-4.58,-4.58,-4.5838,-4.6264,-4.7115,-4.8005,-4.8894,-4.9707,-5.0519,-5.0906,-3.5353,-3.6257,-3.701,-3.7161,-3.7588,-3.7864,-3.7312,-3.7379,-3.7324,-3.6742,-3.7415,-3.8315,-3.8745,0.0,0.0,-4.1892,-4.2604,0.0,-4.3299,-4.3329,0.0,0.0,0.0,-4.2162,-4.1683,-4.1324,0.0,0.0,-4.118,-4.1087,-4.1948,-4.2506,-4.3032,-4.3656,-4.4112,-4.4293,-4.4384,-4.3922,-4.3606,-4.3403,-4.2117,-4.1648,-4.1871,-4.1625,-4.176,-4.2257,-4.2729,-4.2806,-4.2688,-4.245,-4.2287,-4.2044,-4.1866,-4.1736,-4.1692,-4.1692,-4.1648,-4.1648,-4.205,-4.2462,-4.281,-4.2922,-4.3422,-4.3986,-4.3986,-4.3986,-4.3986,-4.3986,-4.3986,-4.3986,-4.3986,-4.3986,-4.3986,-4.3986,-4.3986,-4.3986,-4.3986,-4.3986,-4.3986,-4.3986,-4.3986,-4.3986,-4.3986,-4.4055,-4.4055,-4.4055,-4.4085,-4.417,-4.443,-4.4458,-4.4503,-4.4676,-4.4726,-4.4849,-4.4988,-4.5304,-4.5491,-4.5494,-4.5696,-4.58,-4.58,-4.58,-4.58,-4.58,-4.6419,-4.6883,-4.7115,-4.8624,-4.9475,-4.9707,-5.0519,-5.0906,-3.6107,-3.6885,-3.7487,-3.7236,-3.7588,-3.7789,-3.701,-3.7203,-3.7292,-3.6227,-3.6802,0.0,-3.7731,0.0,0.0,0.0,0.0,0.0,-4.3299,-4.3329,-4.318,0.0,-4.2791,0.0,-4.2282,-4.1983,-4.2153,0.0,-4.1903,-4.1819,-4.3039,-4.3158,-4.3406,-4.3898,-4.4097,-4.427,-4.444,-4.3753,-4.3267,-4.2929,-4.1971,-4.1572,-4.1719,-4.1763,-4.2056,-4.2498,0.0,-4.2691,-4.257,-4.2287,-4.2037,-4.1874,-4.1692,-4.1604,-4.1604,-4.1604,-4.1604,-4.1648,-4.205,-4.2462,-4.2847,-4.2996,-4.3493,-4.3986,-4.3986,-4.3986,-4.3986,-4.3986,-4.3986,-4.3986,-4.3986,-4.3986,-4.3986,-4.3986,-4.3986,-4.3986,-4.3986,-4.3986,-4.3986,-4.3986,-4.3986,-4.3986,-4.3986,-4.3986,-4.3986,-4.3986,-4.3986,-4.4055,-4.4147,-4.4177,-4.4199,-4.4336,-4.4393,-4.4476,-4.4636,-4.4919,-4.5099,-4.5159,-4.5435,-4.5642,-4.5658,-4.6119,-4.638,-4.638,-4.7231,-4.785,-4.8237,-4.9204,-4.99,-5.0248,-5.0712,-5.0906,-3.7161,-3.7688,-3.799,-3.7437,-3.7663,-3.7713,-3.6609,-3.6874,-3.6912,-3.5314,0.0,-3.6108,-3.638,-3.74,-3.8744,-4.0263,0.0,-4.2581,-4.324,-4.3329,-4.3329,-4.3329,-4.3329,-4.3329,-4.3329,-4.2899,-4.294,-4.3494,-4.3075,-4.3065,-4.3654,-4.3629,-4.3687,-4.3898,-4.3981,-4.4212,-4.453,-4.3753,-4.2976,-4.2233,-4.1971,-4.1682,-4.1455,-4.1888,-4.2378,-4.2806,0.0,0.0,-4.249,-4.2044,-4.1874,-4.1831,-4.1692,-4.1604,-4.1604,-4.1604,-4.1604,-4.1648,-4.2008,-4.2422,-4.2885,-4.3248,-4.366,-4.3986,-4.3986,-4.3986,-4.3986,-4.3986,-4.3986,-4.3986,-4.3986,-4.3986,-4.3986,-4.3986,-4.3986,-4.3986,-4.3986,-4.3986,-4.3986,-4.3986,-4.3986,-4.3986,-4.3986,-4.3986,-4.3986,-4.3986,-4.3986,-4.3986,-4.3986,-4.3986,-4.3986,-4.3986,-4.4023,-4.4085,-4.4184,-4.4393,-4.461,-4.4865,-4.5316,-4.5666,-4.5817,-4.677,-4.727,-4.727,-4.8121,-4.8933,-4.9707,-4.9823,-5.021,-5.0906,-5.0906,-5.0906,-3.7839,-3.8291,-3.8592,-3.8015,-3.7939,-3.7713,-3.6609,-3.6269,0.0,0.0,0.0,-3.7014,-3.685,-3.8514,0.0,-4.1115,0.0,0.0,0.0,0.0,-4.3329,0.0,0.0,0.0,0.0,0.0,0.0,0.0,0.0,-4.4041,-4.3622,-4.3629,-4.3687,-4.3898,-4.3898,-4.4015,-4.4155,-4.3417,-4.268,-4.1942,-4.1628,-4.1317,-4.1094,-4.1525,-4.1959,-4.2409,-4.2369,0.0,-4.2002,-4.1917,-4.1788,-4.1648,-4.1604,-4.1604,-4.1604,-4.1604,-4.1604,-4.1604,-4.1692,-4.2175,-4.2885,-4.3248,-4.366,-4.3986,-4.3986,-4.3986,-4.3986,-4.3986,-4.3986,-4.3986,-4.3986,-4.3986,-4.3986,-4.3986,-4.3986,-4.3986,-4.3986,-4.3986,-4.3986,-4.3986,-4.3986,-4.3986,-4.3986,-4.3986,-4.3986,-4.3986,-4.3986,-4.3986,-4.3986,-4.3986,-4.3986,-4.3986,-4.4085,-4.4184,-4.4184,-4.4476,-4.4978,-4.5722,-4.6275,-4.6855,-4.7529,-4.7951,-4.8159,-4.8159,-4.9049,-4.9552,-4.9707,-5.0364,-5.0751,-5.0906,-5.0906,-5.0906,-3.8366,-3.8668,-3.8668,-3.7789,-3.7588,-3.7211,-3.583,0.0,0.0,0.0,0.0,-3.655,-3.5703,0.0,0.0,0.0,0.0,0.0,0.0,0.0,0.0,0.0,0.0,0.0,0.0,0.0,0.0,0.0,0.0,-4.4497,-4.4194,-4.3812,-4.3687,-4.3898,-4.3898,-4.3956,-4.4097,-4.3361,-4.2791,-4.2456,-4.1971,-4.167,-4.1579,-4.1833,-4.2079,-4.2287,-4.2163,0.0,-4.1874,-4.1788,-4.1692,-4.1604,-4.1604,-4.1604,-4.1604,-4.1604,-4.1604,-4.1648,-4.1831,-4.2175,-4.2541,-4.2959,-4.3526,-4.3986,-4.3986,-4.3986,-4.3986,-4.3986,-4.3986,-4.3986,-4.3986,-4.3986,-4.3986,-4.3986,-4.3986,-4.3986,-4.3986,-4.3986,-4.3986,-4.3986,-4.3986,-4.3986,-4.3986,-4.3986,-4.3986,-4.3986,-4.3986,-4.3986,-4.3986,-4.4395,-4.4506,-4.4061,-4.4055,-4.4271,-4.4718,-4.4961,-4.5435,-4.6289,-4.6891,-4.7392,-4.7834,-4.8634,-4.9088,-4.9088,-4.99,-5.0326,-5.0326,-5.0712,-5.0906,-5.0906,-5.0906,-5.0945,-3.8743,-3.8944,-3.8768,-3.7638,-3.7362,-3.6885,-3.5127,-3.5234,0.0,0.0,-3.4884,-3.5845,-3.4775,0.0,0.0,0.0,0.0,0.0,0.0,0.0,0.0,0.0,0.0,0.0,0.0,0.0,0.0,0.0,0.0,0.0,-4.4489,-4.3926,-4.3687,-4.3839,-4.3839,-4.3898,-4.3981,-4.3413,-4.3013,-4.2902,-4.25,-4.227,-4.223,-4.2255,-4.2328,-4.237,-4.2023,0.0,0.0,-4.1692,-4.1604,-4.1604,-4.1604,-4.1604,-4.1604,-4.1604,-4.1604,-4.1648,-4.1924,-4.2133,-4.2221,-4.258,-4.3141,-4.3758,-4.386,-4.3892,-4.3892,-4.3955,-4.3986,-4.3986,-4.3986,-4.3986,-4.3986,-4.3986,-4.3986,-4.3986,-4.3986,-4.4135,-4.4283,-4.4283,-4.4432,-4.4544,-4.4544,-4.4544,-4.4544,-4.4544,-4.4544,-4.4544,-4.4544,-4.5138,-4.5287,-4.4618,-4.4544,-4.4804,-4.5509,-4.5642,-4.6041,-4.6887,-4.7515,-4.7961,-4.8197,-4.9353,-4.9962,-4.9977,-5.0596,-5.0906,-5.0906,-5.0906,-5.0906,-5.0906,-5.0906,-5.1061,-3.8843,-3.9245,-3.9346,-3.8216,-3.7939,-3.7362,-3.5203,0.0,0.0,-3.3927,-3.4902,-3.5884,-3.5691,-3.6925,-3.8135,0.0,0.0,0.0,0.0,0.0,0.0,0.0,0.0,0.0,0.0,0.0,0.0,0.0,0.0,0.0,-4.3727,-4.3661,-4.3628,-4.3628,-4.3628,-4.3628,-4.3628,-4.3562,-4.3197,-4.2593,-4.2847,-4.2881,-4.2621,-4.2279,-4.2347,-4.2703,-4.1965,0.0,0.0,-4.1604,-4.1604,-4.1604,-4.1604,-4.1604,-4.1604,-4.1604,-4.1604,-4.1604,-4.1648,-4.1917,-4.2216,-4.2221,-4.2541,-4.2996,-4.3318,-4.3458,-4.3526,-4.3892,-4.3986,-4.3986,-4.3986,-4.3986,-4.3986,-4.3986,-4.3986,-4.3986,-4.3986,-4.4618,-4.5175,-4.5175,-4.5769,-4.6252,-4.6252,-4.6252,-4.6252,-4.6252,-4.6252,-4.6252,-4.6252,-4.6327,-4.6364,-4.629,-4.6252,-4.629,-4.6364,-4.6429,-4.6829,-4.7648,-4.8304,-4.9034,-4.9844,-5.0452,-5.0781,-5.079,-5.0867,-5.0906,-5.0906,-5.0906,-5.0906,-5.0906,-5.0906,-5.1409,-3.8693,-3.927,-3.9421,-3.8291,-3.8015,-3.7437,-3.5228,0.0,-3.527,-3.4319,-3.5194,-3.5927,-3.5458,-3.6274,-3.7285,-3.7784,-3.8018,-3.8884,0.0,0.0,0.0,0.0,0.0,0.0,0.0,0.0,0.0,0.0,0.0,0.0,-4.3628,-4.3628,-4.3628,-4.3628,-4.3628,-4.3628,-4.3628,-4.3628,-4.3462,-4.3164,-4.3103,-4.32,-4.3355,-4.3009,-4.281,-4.2798,-4.2482,0.0,0.0,-4.1604,-4.1604,-4.1604,-4.1604,-4.1604,-4.1604,-4.1604,-4.1604,-4.1604,-4.1604,-4.1701,-4.1831,-4.1831,-4.1959,-4.2221,-4.3141,-4.3387,-4.3456,-4.3892,-4.3986,-4.3986,-4.3986,-4.3986,-4.3986,-4.3986,-4.4395,-4.4766,-4.4766,-4.5435,-4.603,-4.603,-4.629,-4.6513,-4.6513,-4.6513,-4.6513,-4.6513,-4.6513,-4.6513,-4.6513,-4.6921,-4.7218,-4.7218,-4.6773,-4.6698,-4.7181,-4.7285,-4.7746,-4.8759,-4.9284,-4.9768,-5.032,-5.0701,-5.0897,-5.0906,-5.0906,-5.0906,-5.0906,-5.0906,-5.0906,-5.0906,-5.1525,-5.2043,-3.8316,-3.9019,-3.922,-3.8241,-3.7889,-3.7308,0.0,0.0,-3.5581,-3.5006,-3.5609,-3.5996,-3.5249,-3.5712,-3.6399,-3.6896,-3.7303,-3.8281,-4.0441,0.0,0.0,0.0,0.0,0.0,0.0,0.0,0.0,0.0,0.0,0.0,0.0,-4.3628,-4.3628,-4.3628,-4.3628,-4.3628,-4.3628,-4.3628,-4.3628,-4.3628,-4.3356,-4.3541,-4.4107,-4.3615,-4.3339,-4.3114,-4.2903,0.0,0.0,-4.1604,-4.1604,-4.1604,-4.1604,-4.1604,-4.1604,-4.1604,-4.1604,-4.1604,-4.1604,-4.1604,-4.1604,-4.1604,-4.1604,-4.1788,-4.2772,-4.3141,-4.3318,-4.386,-4.3986,-4.3986,-4.3986,-4.4172,-4.4395,-4.4395,-4.5026,-4.5658,-4.5658,-4.629,-4.6847,-4.6847,-4.7033,-4.7218,-4.7218,-4.7218,-4.7218,-4.7218,-4.7218,-4.7218,-4.7218,-4.7701,-4.8036,-4.8036,-4.7553,-4.7441,-4.7999,-4.8103,-4.8492,-4.9401,-4.9776,-5.0111,-5.0445,-5.072,-5.088,-5.0874,-5.089,-5.0906,-5.0906,-5.1177,-5.1293,-5.1331,-5.2314,-5.2949,-3.7713,-3.8442,-3.8743,-3.814,-3.7588,-3.702,0.0,-3.5626,-3.5372,-3.5892,-3.6023,-3.5882,-3.5449,-3.5357,-3.559,-3.6199,-3.6867,-3.7767,-3.9044,0.0,0.0,0.0,0.0,0.0,0.0,0.0,0.0,0.0,0.0,0.0,0.0,-4.3628,-4.3628,-4.3628,-4.3628,-4.3628,-4.3628,-4.3628,-4.3628,-4.3628,-4.3628,-4.403,-4.4858,-4.4141,-4.3853,0.0,0.0,0.0,0.0,-4.1604,-4.1604,-4.1604,-4.1604,-4.1604,-4.1604,-4.1604,-4.1604,-4.1604,-4.1604,-4.1604,-4.1604,-4.1604,-4.1604,-4.1692,-4.2092,-4.2501,-4.2996,-4.3758,-4.3986,-4.3986,-4.3986,-4.4655,-4.5287,-4.5287,-4.5881,-4.6475,-4.6475,-4.7107,-4.7701,-4.7701,-4.8333,-4.889,-4.889,-4.889,-4.889,-4.889,-4.889,-4.889,-4.889,-4.889,-4.889,-4.889,-4.889,-4.889,-4.889,-4.889,-4.9027,-4.9384,-4.9637,-4.9962,-5.0298,-5.0606,-5.0846,-5.088,-5.0913,-5.0906,-5.0906,-5.1757,-5.2182,-5.2221,-5.3166,-5.4149,-3.6584,-3.7287,-3.7487,-3.6558,-3.6182,-3.589,-3.5522,-3.5764,-3.6142,-3.6576,-3.6372,-3.6317,-3.6621,-3.5619,-3.5503,-3.7883,-3.736,0.0,0.0,0.0,0.0,0.0,0.0,0.0,0.0,0.0,0.0,0.0,0.0,0.0,0.0,-4.3235,-4.3355,-4.3568,-4.3628,-4.3628,-4.3628,-4.3628,-4.3628,-4.3628,-4.3628,-4.4064,-4.4892,-4.4653,-4.4285,0.0,0.0,0.0,0.0,-4.1604,-4.1604,-4.1604,-4.1604,-4.1604,-4.1604,-4.1604,-4.1604,-4.1604,-4.1604,-4.1604,-4.1604,-4.1604,-4.1604,-4.1692,-4.2092,-4.2297,-4.2541,-4.3353,-4.3594,-4.3808,-4.4665,-4.5101,-4.5435,-4.5992,-4.6735,-4.733,-4.733,-4.7961,-4.8519,-4.8519,-4.8742,-4.889,-4.889,-4.889,-4.889,-4.889,-4.889,-4.889,-4.889,-4.889,-4.889,-4.889,-4.889,-4.889,-4.889,-4.889,-4.9123,-4.9637,-4.9749,-5.0038,-5.0547,-5.0682,-5.0756,-5.0919,-5.0897,-5.1183,-5.1796,-5.2066,-5.2856,-5.4094,-5.4514,-5.524,0.0,-3.6132,-3.6408,-3.573,-3.5562,-3.5673,-3.5673,-3.6196,-3.6709,-3.6985,-3.6847,-3.6722,-3.6896,-3.5938,-3.5793,-3.7796,-3.7709,0.0,0.0,0.0,0.0,0.0,0.0,0.0,0.0,0.0,0.0,0.0,0.0,0.0,0.0,-4.3052,-4.3174,-4.3416,-4.3568,-4.3628,-4.3628,-4.3628,-4.3628,-4.3628,-4.3628,-4.4006,-4.4708,-4.4872,-4.4475,0.0,0.0,0.0,0.0,-4.1604,-4.1604,-4.1604,-4.1604,-4.1604,-4.1604,-4.1604,-4.1604,-4.1604,-4.1604,-4.1604,-4.1604,-4.1604,-4.1815,-4.2105,-4.2377,-4.2424,-4.2613,-4.3397,-4.3616,-4.387,-4.4963,-4.5582,-4.6089,-4.657,-4.7451,-4.8147,-4.8147,-4.8556,-4.889,-4.889,-4.889,-4.889,-4.889,-4.889,-4.889,-4.889,-4.889,-4.889,-4.889,-4.889,-4.889,-4.889,-4.889,-4.889,-4.889,-4.9027,-4.9283,-4.9776,-4.991,-5.0183,-5.0702,-5.0682,-5.0738,-5.0863,-5.1189,-5.1631,-5.2182,-5.2879,-5.4003,-5.5475,-5.5645,-5.6007,0.0,-3.4951,-3.5353,-3.5328,-3.5596,-3.5903,-3.6385,-3.6681,0.0,-3.7329,-3.7331,-3.7128,-3.6548,-3.6344,-3.6286,-3.6431,-3.7883,0.0,0.0,0.0,0.0,0.0,0.0,0.0,0.0,0.0,0.0,0.0,0.0,0.0,0.0,-4.2834,-4.3052,-4.3052,-4.3355,-4.3568,-4.3628,-4.3628,-4.3628,-4.3628,-4.3628,-4.3864,-4.4293,-4.4708,-4.4266,0.0,0.0,0.0,0.0,-4.1604,-4.1604,-4.1604,-4.1604,-4.1604,-4.1604,-4.1604,-4.1604,-4.1604,-4.156,-4.156,-4.1604,-4.1674,-4.2201,-4.2833,-4.2868,-4.2917,-4.3059,-4.3818,-4.4035,-4.4216,-4.4975,-4.6054,-4.6983,-4.7019,-4.7978,-4.8855,-4.8855,-4.8855,-4.889,-4.889,-4.889,-4.889,-4.889,-4.889,-4.889,-4.889,-4.889,-4.889,-4.889,-4.889,-4.889,-4.889,-4.889,-4.889,-4.8925,-4.9225,-4.9499,-4.9776,-5.0062,-5.0358,-5.0702,-5.0741,-5.0835,-5.0889,-5.1829,-5.2343,-5.2376,-5.4172,-5.5447,-5.6329,-5.6446,-5.6524,-3.2842,0.0,-3.372,-3.3861,-3.3965,-3.4468,0.0,-3.6543,-3.7127,0.0,0.0,-3.7389,-3.7709,-3.6577,-3.6054,-3.7506,0.0,0.0,0.0,0.0,0.0,0.0,0.0,0.0,0.0,0.0,0.0,0.0,0.0,0.0,0.0,-4.2302,-4.2492,-4.271,-4.3052,-4.3355,-4.3628,-4.3628,-4.3628,-4.3628,-4.3628,-4.3864,-4.4293,-4.4406,-4.3871,0.0,0.0,0.0,-4.1163,-4.1471,-4.1604,-4.1604,-4.1604,-4.1604,-4.1604,-4.1471,-4.1426,-4.1426,-4.13,-4.1346,-4.1576,-4.2261,-4.2658,-4.2903,-4.3465,-4.3638,-4.3767,-4.4257,-4.4378,-4.4641,-4.5802,-4.6327,-4.6699,-4.732,-4.7968,-4.8458,-4.8458,-4.8678,-4.889,-4.889,-4.889,-4.889,-4.889,-4.889,-4.889,-4.889,-4.889,-4.889,-4.889,-4.889,-4.889,-4.889,-4.889,-4.8993,-4.9257,-4.9352,-4.9499,-4.9776,-5.0062,-5.0358,-5.0702,-5.1279,-5.1684,-5.1776,-5.337,-5.4194,-5.4288,-5.5393,-5.614,-5.6451,-5.6535,-5.6588,-3.2692,-3.3018,-3.3406,-3.3334,-3.411,-3.5008,-3.5696,0.0,0.0,0.0,0.0,0.0,-3.7767,0.0,0.0,0.0,0.0,0.0,0.0,0.0,0.0,0.0,0.0,0.0,0.0,0.0,0.0,0.0,0.0,0.0,0.0,-4.2045,-4.2174,-4.2333,-4.271,-4.3052,-4.3355,-4.3509,-4.3628,-4.3628,-4.3628,-4.3747,-4.3981,-4.4179,-4.3597,0.0,0.0,0.0,-4.0754,-4.1117,-4.1255,-4.1255,-4.1346,-4.1391,-4.1461,-4.1719,-4.1858,-4.1928,-4.2149,-4.23,-4.2451,-4.2964,-4.3383,-4.3733,-4.4248,-4.4598,-4.4822,-4.4763,-4.4784,-4.4971,-4.6025,-4.6462,-4.6708,-4.7183,-4.7632,-4.8035,-4.8267,-4.8458,-4.8678,-4.8855,-4.889,-4.889,-4.889,-4.889,-4.889,-4.889,-4.889,-4.889,-4.889,-4.889,-4.889,-4.889,-4.9224,-4.9586,-4.9909,-5.0433,-5.0525,-5.0025,-5.0612,-5.108,-5.1241,-5.2049,-5.2704,-5.3242,-5.4315,-5.5045,-5.5526,-5.6089,-5.6437,-5.6493,-5.6587,-5.6601,-3.3169,-3.3596,-3.3822,-3.3189,-3.4476,-3.5818,-3.5437,0.0,0.0,0.0,0.0,0.0,0.0,0.0,0.0,0.0,0.0,0.0,0.0,0.0,0.0,0.0,0.0,0.0,0.0,0.0,0.0,0.0,0.0,0.0,0.0,-4.1851,-4.2045,-4.2045,-4.2333,-4.2648,-4.2929,-4.3295,-4.3449,-4.3449,-4.3449,-4.3509,-4.3535,-4.3789,-4.3126,-4.1875,0.0,0.0,-4.0186,-4.0611,-4.0754,-4.0754,-4.1117,-4.1279,-4.1453,-4.2149,-4.2415,-4.2623,-4.3249,-4.3458,-4.3492,-4.3645,-4.4167,-4.4724,-4.4977,-4.5466,-4.59,-4.5418,-4.5256,-4.5431,-4.6063,-4.6495,-4.6788,-4.6788,-4.716,-4.7591,-4.7995,-4.8229,-4.842,-4.875,-4.8855,-4.889,-4.889,-4.889,-4.889,-4.889,-4.9002,-4.9076,-4.9113,-4.9224,-4.9299,-4.9299,-4.9928,-5.0508,-5.083,-5.1802,-5.1889,-5.075,-5.1561,-5.2164,-5.2279,-5.3031,-5.3841,-5.4786,-5.5011,-5.5465,-5.6211,-5.6394,-5.6504,-5.6534,-5.6563,-5.6601,-3.3646,-3.4173,-3.43,-3.3023,-3.2986,-3.3514,-3.4214,0.0,0.0,0.0,0.0,0.0,0.0,0.0,0.0,0.0,0.0,0.0,0.0,0.0,0.0,0.0,0.0,0.0,0.0,0.0,0.0,0.0,0.0,0.0,0.0,-4.1654,-4.1654,-4.1654,-4.198,-4.2238,-4.2238,-4.2585,-4.2772,-4.2772,-4.2772,-4.2896,-4.3141,-4.237,-4.171,0.0,0.0,-3.9918,-3.9176,-4.0086,-4.0466,-4.0514,-4.099,-4.1627,-4.2218,-4.2215,-4.2618,-4.3172,-4.3276,-4.3311,-4.3499,-4.4257,-4.462,-4.4829,-4.5455,-4.5835,-4.6005,-4.59,-4.5965,-4.6098,-4.6204,-4.6253,-4.6301,-4.6301,-4.6649,-4.7026,-4.7071,-4.7752,-4.8306,-4.8382,-4.8678,-4.889,-4.889,-4.889,-4.889,-4.889,-4.9485,-4.993,-5.0005,-5.0599,-5.1008,-5.1008,-5.1364,-5.1732,-5.2029,-5.2448,-5.2724,-5.2756,-5.2913,-5.3318,-5.4087,-5.4304,-5.4805,-5.5673,-5.5882,-5.6078,-5.6261,-5.6427,-5.6523,-5.6588,-5.66,-5.6601,-3.4144,-3.4084,-3.403,-3.3834,-3.4527,-3.5143,-3.5013,0.0,0.0,0.0,0.0,0.0,0.0,0.0,0.0,0.0,0.0,0.0,0.0,0.0,0.0,0.0,0.0,0.0,0.0,0.0,0.0,0.0,0.0,0.0,0.0,0.0,-4.1588,-4.1588,-4.172,-4.1851,-4.1851,-4.1948,-4.2206,-4.2585,-4.2585,-4.2648,-4.2834,-4.1967,-4.1314,-4.0684,0.0,-3.9331,-3.8645,-3.9295,-3.9714,-4.0054,-4.0861,-4.1616,-4.2306,-4.3039,-4.3834,-4.4406,-4.4406,-4.4406,-4.4526,-4.4958,-4.5061,-4.5182,-4.558,-4.5736,-4.5838,-4.599,-4.609,-4.6189,-4.6189,-4.6189,-4.6189,-4.6189,-4.635,-4.6602,-4.688,-4.7421,-4.8141,-4.8818,-4.9307,-4.9745,-5.019,-5.0265,-5.0265,-5.0265,-5.0562,-5.0822,-5.0822,-5.1156,-5.1416,-5.1416,-5.2105,-5.2693,-5.2987,-5.3708,-5.4073,-5.3913,-5.3895,-5.428,-5.5126,-5.5209,-5.548,-5.5943,-5.6114,-5.6288,-5.6395,-5.6505,-5.6553,-5.6601,-5.6601,-5.6601,-3.4638,-3.4079,-3.3662,-3.4874,0.0,-3.5731,-3.5734,0.0,0.0,0.0,0.0,0.0,0.0,0.0,0.0,0.0,0.0,0.0,0.0,0.0,0.0,0.0,0.0,0.0,0.0,0.0,0.0,0.0,0.0,0.0,0.0,0.0,-4.1588,-4.1588,-4.1588,-4.1588,-4.1588,-4.1588,-4.1851,-4.2396,-4.2396,-4.2396,-4.2427,-4.1526,-4.0817,-4.0328,-3.9398,-3.8753,-3.8205,-3.8511,-3.892,-3.9415,-4.071,-4.1733,-4.2699,-4.4044,-4.4906,-4.5423,-4.5423,-4.5423,-4.5423,-4.5423,-4.5423,-4.5423,-4.5528,-4.5581,-4.5632,-4.5838,-4.6005,-4.614,-4.6189,-4.6189,-4.6189,-4.6189,-4.6189,-4.6301,-4.6649,-4.7348,-4.8187,-4.9135,-4.9934,-5.0673,-5.1305,-5.1416,-5.1416,-5.1416,-5.1565,-5.1676,-5.1676,-5.1862,-5.1973,-5.2082,-5.2953,-5.3648,-5.4058,-5.488,-5.5216,-5.4818,-5.478,-5.5049,-5.5665,-5.5766,-5.5884,-5.6,-5.6145,-5.6327,-5.6476,-5.6581,-5.6601,-5.6601,-5.6601,-5.6601,-3.5279,-3.451,-3.3632,-3.5868,0.0,0.0,-3.5294,0.0,0.0,0.0,0.0,0.0,0.0,0.0,0.0,0.0,0.0,0.0,0.0,0.0,0.0,0.0,0.0,0.0,0.0,0.0,0.0,0.0,0.0,0.0,0.0,0.0,0.0,-4.1588,-4.1588,-4.1588,-4.1588,-4.1588,-4.1654,-4.1654,-4.1654,-4.1851,-4.2045,-4.0451,-3.9783,-3.9934,-3.8352,-3.7571,-3.7599,-3.8141,-3.8334,-3.8567,-4.0467,-4.2381,-4.4216,-4.5044,-4.5389,-4.5423,-4.5423,-4.5423,-4.5423,-4.5423,-4.5423,-4.5423,-4.5423,-4.5528,-4.5632,-4.5632,-4.5736,-4.5889,-4.614,-4.6189,-4.6189,-4.6189,-4.6189,-4.6239,-4.6204,-4.7553,-4.872,-4.8835,-5.0147,-5.1342,-5.1379,-5.1416,-5.1416,-5.1416,-5.2048,-5.2531,-5.2531,-5.3162,-5.3758,-5.4078,-5.4446,-5.4895,-5.55,-5.5643,-5.5643,-5.5626,-5.5588,-5.5626,-5.5703,-5.5807,-5.5924,-5.6,-5.6175,-5.6341,-5.6476,-5.6581,-5.6601,-5.6601,-5.6601,-5.6601,-3.4354,-3.385,-3.3654,-3.5516,0.0,0.0,0.0,0.0,0.0,0.0,0.0,0.0,0.0,0.0,0.0,0.0,0.0,0.0,0.0,0.0,0.0,0.0,0.0,0.0,0.0,0.0,0.0,0.0,0.0,0.0,0.0,0.0,0.0,-4.1588,-4.1588,-4.1588,-4.1588,-4.1588,-4.1588,-4.1588,-4.1588,-4.1433,-4.1119,-4.0008,-3.9344,-3.9023,-3.7951,-3.748,-3.7539,-3.7743,-3.8258,-3.9202,-4.1177,-4.2691,-4.3912,-4.455,-4.4852,-4.4906,-4.5264,-4.5423,-4.5423,-4.5423,-4.5423,-4.5423,-4.5423,-4.5423,-4.5476,-4.5581,-4.5632,-4.5736,-4.604,-4.609,-4.609,-4.6189,-4.6189,-4.6379,-4.6835,-4.79,-4.9119,-5.0097,-5.1323,-5.2308,-5.2828,-5.2902,-5.2902,-5.2902,-5.3162,-5.3348,-5.3348,-5.3608,-5.3944,-5.4262,-5.4806,-5.525,-5.5682,-5.5703,-5.5703,-5.5703,-5.5703,-5.5703,-5.5703,-5.5822,-5.5979,-5.6117,-5.6265,-5.6434,-5.6563,-5.6593,-5.6601,-5.6601,-5.6601,-5.6601,-3.356,-3.3091,0.0,0.0,0.0,0.0,0.0,0.0,0.0,0.0,0.0,0.0,0.0,0.0,0.0,0.0,0.0,0.0,0.0,0.0,0.0,0.0,0.0,0.0,0.0,0.0,0.0,0.0,0.0,0.0,0.0,0.0,0.0,0.0,-4.1588,-4.1588,-4.1588,-4.1588,-4.1588,-4.1588,-4.1588,-4.1336,-4.0893,-3.9945,-3.925,-3.8776,-3.7859,-3.748,-3.7512,-3.7701,-3.8663,-4.0215,-4.1606,-4.269,-4.3588,-4.3997,-4.4316,-4.4575,-4.4961,-4.5264,-4.5423,-4.5423,-4.5423,-4.5423,-4.5423,-4.5423,-4.5423,-4.5528,-4.5528,-4.5581,-4.5838,-4.5939,-4.6075,-4.6505,-4.659,-4.685,-4.7788,-4.8826,-4.9923,-5.118,-5.225,-5.3162,-5.372,-5.3794,-5.3794,-5.3794,-5.3794,-5.3794,-5.3794,-5.3907,-5.4125,-5.4591,-5.5091,-5.5485,-5.5703,-5.5703,-5.5703,-5.5703,-5.5703,-5.5703,-5.5703,-5.584,-5.6001,-5.6201,-5.6367,-5.6498,-5.6601,-5.6601,-5.6601,-5.6601,-5.6601,-5.6601,-3.3049,-3.2199,0.0,0.0,0.0,0.0,0.0,0.0,0.0,0.0,0.0,0.0,0.0,0.0,0.0,0.0,0.0,0.0,0.0,0.0,0.0,0.0,0.0,0.0,0.0,0.0,0.0,0.0,0.0,0.0,0.0,0.0,0.0,0.0,-4.1588,-4.1588,-4.1588,-4.1588,-4.1588,-4.1588,-4.1588,-4.1588,-4.1525,-4.0135,-3.9503,-3.9439,-3.8081,-3.748,-3.7543,-3.8239,-3.9684,-4.1517,-4.1517,-4.2304,-4.3495,-4.3495,-4.3939,-4.4485,-4.4519,-4.4906,-4.5423,-4.5423,-4.5423,-4.5423,-4.5423,-4.5423,-4.5423,-4.5423,-4.5423,-4.5423,-4.5581,-4.5787,-4.6215,-4.7171,-4.7397,-4.7724,-4.9055,-5.0279,-5.1355,-5.1825,-5.2929,-5.3794,-5.3794,-5.3794,-5.3794,-5.3794,-5.3794,-5.3794,-5.3794,-5.4089,-5.456,-5.5236,-5.5531,-5.5703,-5.5703,-5.5703,-5.5703,-5.5703,-5.5703,-5.5703,-5.5703,-5.5902,-5.6051,-5.6181,-5.6388,-5.652,-5.6601,-5.6601,-5.6601,-5.6601,-5.6601,-5.6601,-3.2068,0.0,0.0,0.0,0.0,0.0,0.0,0.0,0.0,0.0,0.0,0.0,0.0,0.0,0.0,0.0,0.0,0.0,0.0,0.0,0.0,0.0,0.0,0.0,0.0,0.0,0.0,0.0,0.0,0.0,0.0,0.0,0.0,0.0,-4.1588,-4.1588,-4.1588,-4.1588,-4.1588,-4.1588,-4.1588,-4.1336,-4.0893,-4.0451,-4.0008,-3.9439,-3.8586,-3.8207,-3.827,-3.8934,-3.9881,-4.0928,-4.1406,-4.1821,-4.2237,-4.2678,-4.329,-4.3881,-4.4316,-4.4906,-4.5423,-4.5423,-4.5423,-4.5423,-4.5423,-4.5423,-4.5423,-4.5423,-4.5423,-4.5561,-4.6273,-4.6517,-4.6656,-4.7124,-4.7245,-4.7764,-4.9684,-5.0674,-5.15,-5.2517,-5.3336,-5.3794,-5.3794,-5.3794,-5.3794,-5.3794,-5.3794,-5.3907,-5.4125,-5.443,-5.4806,-5.5262,-5.5531,-5.5703,-5.5703,-5.5703,-5.5703,-5.5703,-5.5808,-5.5827,-5.584,-5.6053,-5.6192,-5.6327,-5.6505,-5.6579,-5.6601,-5.6601,-5.6601,-5.6601,-5.6601,-5.6914,-3.0845,0.0,0.0,0.0,0.0,0.0,0.0,0.0,0.0,0.0,0.0,0.0,0.0,0.0,0.0,0.0,0.0,0.0,0.0,0.0,0.0,0.0,0.0,0.0,0.0,0.0,0.0,0.0,0.0,0.0,0.0,0.0,0.0,0.0,-4.1256,-4.139,-4.1588,-4.1588,-4.1588,-4.1588,-4.1588,-4.1367,-4.0988,-4.0735,-4.0356,-3.9914,-3.9218,-3.906,-3.9376,-3.9787,-4.0356,-4.1051,-4.143,-4.1588,-4.1654,-4.2013,-4.2615,-4.3229,-4.3881,-4.4485,-4.5069,-4.5318,-4.5423,-4.5423,-4.5423,-4.5423,-4.5423,-4.5423,-4.5665,-4.601,-4.66,-4.6965,-4.7384,-4.798,-4.8103,-4.8678,-5.0712,-5.1427,-5.1981,-5.3171,-5.3639,-5.3794,-5.3794,-5.3794,-5.3794,-5.3794,-5.3907,-5.4125,-5.4463,-5.4806,-5.5119,-5.5413,-5.5577,-5.5703,-5.5703,-5.5703,-5.5703,-5.5703,-5.5827,-5.5956,-5.6036,-5.6188,-5.6321,-5.6416,-5.6536,-5.6601,-5.6601,-5.6601,-5.6601,-5.6601,-5.6953,-5.7383,0.0,0.0,0.0,0.0,0.0,0.0,0.0,0.0,0.0,0.0,0.0,0.0,0.0,0.0,0.0,0.0,0.0,0.0,0.0,0.0,0.0,0.0,0.0,0.0,0.0,0.0,0.0,0.0,0.0,0.0,0.0,0.0,0.0,-4.0715,-4.0715,-4.0987,-4.1522,-4.1522,-4.1522,0.0,-4.1588,-4.1588,-4.1557,-4.0956,-4.0672,-4.0546,-3.9882,-3.9977,-4.0609,-4.0609,-4.0988,-4.1588,-4.1588,-4.1588,-4.1588,-4.1588,-4.2077,-4.2772,-4.335,-4.3997,-4.4686,-4.5211,-4.5423,-4.5423,-4.5423,-4.5423,-4.5458,-4.5527,-4.6044,-4.6631,-4.6769,-4.7395,-4.8305,-4.9323,-4.9571,-5.0013,-5.1885,-5.2299,-5.2571,-5.3602,-5.3794,-5.3794,-5.3794,-5.3794,-5.3794,-5.3794,-5.4089,-5.443,-5.4746,-5.5064,-5.5389,-5.5682,-5.5703,-5.5703,-5.5703,-5.5703,-5.5703,-5.5703,-5.5845,-5.5978,-5.6201,-5.6353,-5.6397,-5.6427,-5.6543,-5.6601,-5.6601,-5.668,-5.6719,-5.6758,-5.7617,-5.8047,0.0,0.0,0.0,0.0,0.0,0.0,0.0,0.0,0.0,0.0,0.0,0.0,0.0,0.0,0.0,0.0,0.0,0.0,0.0,0.0,0.0,0.0,0.0,0.0,0.0,0.0,0.0,0.0,0.0,0.0,0.0,0.0,0.0,-4.006,-4.01,-4.0409,-4.0987,-4.0987,-4.1189,0.0,-4.1588,-4.1588,-4.1588,-4.143,-4.1083,-4.0577,-4.0419,-4.0451,-4.0609,-4.0609,-4.0988,-4.1588,-4.1588,-4.1588,-4.1588,-4.1588,-4.2301,-4.3317,-4.3436,-4.4226,-4.5264,-4.5371,-4.5423,-4.5423,-4.5423,-4.5423,-4.5561,-4.6182,-4.6493,-4.6872,-4.8045,-4.8571,-4.9049,-4.998,-4.9866,-5.0013,-5.1885,-5.2299,-5.2571,-5.3602,-5.3794,-5.3794,-5.3794,-5.3794,-5.3794,-5.3794,-5.4089,-5.443,-5.4746,-5.5064,-5.5389,-5.5682,-5.5703,-5.5703,-5.5703,-5.5703,-5.5703,-5.5703,-5.593,-5.6107,-5.6218,-5.6343,-5.6446,-5.6551,-5.66,-5.6601,-5.6601,-5.7305,-5.7617,-5.7656,-5.8515,-5.9258,0.0,0.0,0.0,0.0,0.0,0.0,0.0,0.0,0.0,0.0,0.0,0.0,0.0,0.0,0.0,0.0,0.0,0.0,0.0,0.0,0.0,0.0,0.0,0.0,0.0,0.0,0.0,0.0,0.0,0.0,0.0,-3.8649,-3.8943,-3.9493,-3.9493,-3.992,-4.0783,-4.0442,-4.0712,-4.1588,-4.1272,-4.1272,-4.1588,-4.1588,-4.1399,-4.1083,-4.1083,-4.1083,-4.1083,-4.1083,-4.1272,-4.1588,-4.1588,-4.1588,-4.1588,-4.1588,-4.2013,-4.2678,-4.3257,-4.3939,-4.4597,-4.5177,-4.5423,-4.5423,-4.5423,-4.5699,-4.6079,-4.6493,-4.7113,-4.7838,-4.8631,-4.9193,-4.9777,-5.0272,-5.0379,-5.0748,-5.2004,-5.2481,-5.2914,-5.3678,-5.3794,-5.3794,-5.3794,-5.3794,-5.387,-5.4017,-5.433,-5.4654,-5.4981,-5.5275,-5.5531,-5.5703,-5.6049,-5.6319,-5.6319,-5.6703,-5.6977,-5.7023,-5.724,-5.7388,-5.748,-5.7642,-5.7382,-5.6593,-5.6991,-5.7226,-5.7226,-5.8086,-5.8515,-5.8555,-5.9375,-6.0,0.0,0.0,0.0,0.0,0.0,0.0,0.0,0.0,0.0,0.0,0.0,0.0,0.0,0.0,0.0,0.0,0.0,0.0,0.0,0.0,0.0,0.0,0.0,0.0,0.0,0.0,0.0,0.0,0.0,0.0,-3.8202,-3.8202,-3.8427,-3.8943,-3.8943,-3.9523,-4.0646,-4.0059,-4.0395,-4.1588,-4.1051,-4.1051,-4.1588,-4.1588,-4.1588,-4.1588,-4.1588,-4.1588,-4.1588,-4.1588,-4.1588,-4.1588,-4.1588,-4.1588,-4.1588,-4.1588,-4.1654,-4.1884,-4.2986,-4.3529,-4.3881,-4.4906,-4.5318,-4.5423,-4.5423,-4.5975,-4.6631,-4.6769,-4.7769,-4.8838,-4.8976,-4.9608,-5.0228,-5.0341,-5.0982,-5.1665,-5.2206,-5.274,-5.324,-5.3717,-5.3794,-5.3794,-5.3794,-5.3832,-5.3981,-5.4228,-5.4623,-5.4981,-5.5262,-5.5531,-5.5742,-5.5895,-5.6549,-5.7049,-5.7203,-5.7901,-5.8392,-5.8488,-5.8645,-5.8775,-5.8895,-5.9092,-5.8527,-5.7086,-5.7771,-5.8125,-5.8125,-5.8984,-5.9414,-5.9414,-6.0234,-6.0625,0.0,0.0,0.0,0.0,0.0,0.0,0.0,0.0,0.0,0.0,0.0,0.0,0.0,0.0,0.0,0.0,0.0,0.0,0.0,0.0,0.0,0.0,0.0,0.0,0.0,0.0,0.0,0.0,0.0,0.0,-3.8202,-3.8202,-3.8202,-3.8352,-3.8352,-3.8841,-4.003,-3.9939,-4.0423,-4.1588,-4.1494,-4.1494,-4.1588,-4.1588,-4.1588,-4.1588,-4.1588,-4.1588,-4.1588,-4.1588,-4.1588,-4.1588,-4.1588,-4.1588,-4.1588,-4.1588,-4.198,-4.2522,-4.2648,-4.341,-4.4373,-4.4541,-4.4961,-4.5423,-4.5423,-4.5975,-4.6734,-4.7389,-4.8183,-4.8976,-4.9666,-5.0022,-5.0228,-5.0341,-5.1209,-5.2065,-5.2253,-5.274,-5.324,-5.3717,-5.3794,-5.3794,-5.3794,-5.4054,-5.4265,-5.4296,-5.4836,-5.5262,-5.5288,-5.5531,-5.5972,-5.6742,-5.6934,-5.7319,-5.805,-5.8355,-5.847,-5.8505,-5.8739,-5.888,-5.8888,-5.9045,-5.9016,-5.8866,-5.8984,-5.9023,-5.9023,-5.9844,-6.0234,-6.0273,-6.1133,-6.1523,0.0,0.0,0.0,0.0,0.0,0.0,0.0,0.0,0.0,0.0,0.0,0.0,0.0,0.0,0.0,0.0,0.0,0.0,0.0,0.0,0.0,0.0,0.0,0.0,0.0,0.0,0.0,0.0,0.0,-3.8202,-3.8202,-3.8202,-3.8202,-3.8202,-3.8202,-3.862,-3.9421,-3.9345,-3.9924,-4.1051,-4.1135,-4.1323,-4.1588,-4.1588,-4.1588,-4.1588,-4.1588,-4.1588,-4.1588,-4.1588,-4.1588,-4.1588,-4.1588,-4.1588,-4.1588,-4.1588,-4.1785,-4.2077,-4.2459,-4.3169,-4.3997,-4.4373,-4.4906,-4.5492,-4.5941,-4.6631,-4.7389,-4.8114,-4.8872,-4.9562,-4.9907,-5.0092,-5.0285,-5.0749,-5.1515,-5.2206,-5.2652,-5.3162,-5.3524,-5.3756,-5.3794,-5.3794,-5.3794,-5.4089,-5.4364,-5.456,-5.4981,-5.5364,-5.5485,-5.6022,-5.6588,-5.6934,-5.7819,-5.855,-5.8934,-5.9533,-5.9934,-5.9995,-6.0215,-6.0399,-6.0488,-6.0518,-6.0582,-6.0586,-6.0117,-5.9883,-5.9883,-6.0703,-6.1133,-6.1133,-6.1523,-6.1719,0.0,0.0,0.0,0.0,0.0,0.0,0.0,0.0,0.0,0.0,0.0,0.0,0.0,0.0,0.0,0.0,0.0,0.0,0.0,0.0,0.0,0.0,0.0,0.0,0.0,0.0,0.0,0.0,0.0,-3.8202,-3.8202,-3.8202,-3.8202,-3.8202,-3.8202,-3.8501,-3.909,-3.9154,-3.9603,-4.0438,-4.0702,-4.0987,-4.139,-4.1522,-4.1588,-4.1588,-4.1588,-4.1588,-4.1588,-4.1588,-4.1588,-4.1588,-4.1588,-4.1588,-4.1588,-4.1588,-4.1588,-4.1654,-4.2142,-4.274,-4.341,-4.3997,-4.4788,-4.5589,-4.637,-4.7251,-4.8114,-4.8665,-4.939,-5.0011,-5.0011,-5.0092,-5.0397,-5.107,-5.1665,-5.2299,-5.312,-5.3524,-5.3794,-5.3794,-5.3794,-5.3832,-5.3907,-5.4231,-5.4528,-5.4866,-5.5363,-5.5806,-5.5989,-5.678,-5.7396,-5.7588,-5.8742,-5.9611,-5.987,-6.0616,-6.112,-6.1279,-6.145,-6.1612,-6.1715,-6.1701,-6.1715,-6.1719,-6.1055,-6.0742,-6.0742,-6.1367,-6.1719,-6.1719,-6.1719,-6.1719,0.0,0.0,0.0,0.0,0.0,0.0,0.0,0.0,0.0,0.0,0.0,0.0,0.0,0.0,0.0,0.0,0.0,0.0,0.0,0.0,0.0,0.0,0.0,0.0,0.0,0.0,0.0,0.0,0.0,-3.8202,-3.8202,-3.8202,-3.8202,-3.8202,-3.8202,-3.8501,-3.909,-3.9606,-3.9859,-3.9929,-4.0547,-4.0783,-4.0851,-4.139,-4.1588,-4.1588,-4.1588,-4.1588,-4.1588,-4.1588,-4.1588,-4.1588,-4.1588,-4.1588,-4.1588,-4.1588,-4.1588,-4.1588,-4.1654,-4.2077,-4.2772,-4.335,-4.4465,-4.5739,-4.6399,-4.7631,-4.8769,-4.8803,-4.939,-5.0011,-5.0011,-5.0092,-5.0397,-5.107,-5.1665,-5.2391,-5.3524,-5.3756,-5.3794,-5.3794,-5.3794,-5.3907,-5.4231,-5.456,-5.4895,-5.5236,-5.6199,-5.6934,-5.6934,-5.7703,-5.8511,-5.9281,-5.9435,-5.987,-6.0848,-6.1081,-6.1279,-6.1481,-6.1602,-6.1676,-6.172,-6.1701,-6.1713,-6.1719,-6.164,-6.164,-6.164,-6.168,-6.1719,-6.1719,-6.1719,-6.1719,0.0,0.0,0.0,0.0,0.0,0.0,0.0,0.0,0.0,0.0,0.0,0.0,0.0,0.0,0.0,0.0,0.0,0.0,0.0,0.0,0.0,0.0,0.0,0.0,0.0,0.0,0.0,0.0,0.0,0.0,-3.8202,-3.8202,-3.8202,-3.8202,-3.8202,-3.8501,-3.909,-3.8914,-3.9205,-3.9889,-3.9778,-4.0091,-4.0783,-4.0987,-4.1256,-4.1588,-4.1588,-4.1588,-4.1588,-4.1588,-4.1588,-4.1588,-4.1588,-4.1588,-4.1588,-4.1588,-4.1588,-4.1588,-4.1588,-4.2301,-4.3295,-4.4032,-4.5134,-4.646,-4.7679,-4.839,-4.8941,-4.9424,-4.9804,-5.0011,-5.0011,-5.0397,-5.1087,-5.2196,-5.2827,-5.3285,-5.3717,-5.3794,-5.3794,-5.3794,-5.3794,-5.3907,-5.4228,-5.5007,-5.5531,-5.5339,-5.6736,-5.7627,-5.7049,-5.8204,-5.9165,-5.9473,-6.0068,-6.0616,-6.0944,-6.1225,-6.1412,-6.149,-6.1648,-6.172,-6.172,-6.1701,-6.1713,-6.1719,-6.1719,-6.1719,-6.1719,-6.1719,-6.1719,-6.1719,-6.1719,-6.1719,0.0,0.0,0.0,0.0,0.0,0.0,0.0,0.0,0.0,0.0,0.0,0.0,0.0,0.0,0.0,0.0,0.0,0.0,0.0,0.0,0.0,0.0,0.0,0.0,0.0,0.0,0.0,0.0,0.0,0.0,-3.8202,-3.8202,-3.8202,-3.8202,-3.8202,-3.8352,-3.8797,-3.8427,-3.8694,-3.9636,-3.9421,-3.9879,-4.0783,-4.0987,-4.1256,-4.1588,-4.1588,-4.1588,-4.1588,-4.1588,-4.1588,-4.1588,-4.1588,-4.1588,-4.162,-4.1873,-4.1968,-4.1999,-4.222,-4.3041,-4.4019,-4.4759,-4.5909,-4.7249,-4.8471,-4.901,-4.9321,-4.9873,-5.0011,-5.0011,-5.0068,-5.0803,-5.1764,-5.2864,-5.3444,-5.3794,-5.3794,-5.3794,-5.3794,-5.3794,-5.3907,-5.4089,-5.4397,-5.539,-5.6092,-5.5886,-5.7497,-5.8473,-5.7896,-5.905,-5.9935,-5.9935,-6.0576,-6.102,-6.1053,-6.1343,-6.1509,-6.1573,-6.166,-6.172,-6.172,-6.1694,-6.1711,-6.1719,-6.1719,-6.1719,-6.1719,-6.1719,-6.1719,-6.1719,-6.1719,-6.1719,0.0,0.0,0.0,0.0,0.0,0.0,0.0,0.0,0.0,0.0,0.0,0.0,0.0,0.0,0.0,0.0,0.0,0.0,0.0,0.0,0.0,0.0,0.0,0.0,0.0,0.0,0.0,0.0,0.0,-3.8202,-3.8202,-3.8202,-3.8202,-3.8202,-3.8202,-3.8202,-3.8127,-3.8202,-3.8501,-3.9017,-3.9565,-4.02,-4.0783,-4.1323,-4.1588,-4.1588,-4.1588,-4.1588,-4.1588,-4.1588,-4.1588,-4.1588,-4.1588,-4.1588,-4.1683,-4.241,-4.2695,-4.2789,-4.3485,-4.4122,-4.4821,-4.5497,-4.6742,-4.8014,-4.8667,-4.939,-5.0011,-5.0011,-5.0011,-5.0068,-5.0206,-5.1157,-5.2253,-5.295,-5.3444,-5.3794,-5.3794,-5.3794,-5.3794,-5.3794,-5.4054,-5.4397,-5.4784,-5.5788,-5.6652,-5.6989,-5.8473,-5.9511,-5.9511,-6.0242,-6.0781,-6.0804,-6.0923,-6.1053,-6.1186,-6.139,-6.1573,-6.1676,-6.172,-6.172,-6.1681,-6.1681,-6.1701,-6.1719,-6.1719,-6.1719,-6.1719,-6.1719,-6.1719,-6.1719,-6.1719,-6.1719,-2.888,0.0,0.0,0.0,0.0,0.0,0.0,0.0,0.0,0.0,0.0,0.0,0.0,0.0,0.0,0.0,0.0,0.0,0.0,0.0,0.0,0.0,0.0,0.0,0.0,0.0,0.0,0.0,-3.7901,-3.7777,-3.7777,-3.7777,-3.7777,-3.7777,-3.8052,-3.7901,-3.7366,-3.7596,-3.7825,-3.8005,-3.8202,-3.8914,-4.013,-4.0309,-4.082,-4.1588,-4.1588,-4.1588,-4.1588,-4.1588,-4.1588,-4.1588,-4.1588,-4.1588,-4.1683,-4.241,-4.2695,-4.2789,-4.3453,-4.4458,-4.553,-4.6248,-4.745,-4.8678,-4.9436,-4.9838,-5.0011,-5.0011,-5.0011,-5.0228,-5.1173,-5.1777,-5.2345,-5.3404,-5.3717,-5.3794,-5.3794,-5.3794,-5.3794,-5.3794,-5.4054,-5.4585,-5.5503,-5.6625,-5.7532,-5.7889,-5.9358,-6.0204,-5.9588,-6.0242,-6.085,-6.0943,-6.1053,-6.1225,-6.1401,-6.1573,-6.1666,-6.1715,-6.172,-6.1686,-6.1701,-6.1704,-6.1711,-6.1719,-6.1719,-6.1719,-6.1719,-6.1719,-6.1719,-6.1719,-6.1719,-6.1719,0.0,0.0,0.0,0.0,0.0,0.0,0.0,0.0,0.0,0.0,0.0,0.0,0.0,0.0,0.0,0.0,0.0,0.0,0.0,0.0,0.0,0.0,0.0,0.0,0.0,0.0,0.0,-3.8202,-3.7825,-3.7625,-3.7625,-3.7471,-3.7471,-3.7625,-3.7672,-3.7443,-3.6978,-3.7394,-3.7777,-3.7976,-3.8127,-3.8841,-3.9889,-4.02,-4.0615,-4.1256,-4.1522,-4.1588,-4.1588,-4.1588,-4.1588,-4.1588,-4.1588,-4.1778,-4.2126,-4.2853,-4.3295,-4.3643,-4.4338,-4.5259,-4.629,-4.7042,-4.7995,-4.9008,-4.978,-5.0011,-5.0011,-5.0011,-5.0068,-5.0418,-5.1629,-5.2029,-5.2481,-5.3524,-5.3794,-5.3794,-5.3794,-5.3794,-5.3944,-5.4429,-5.4822,-5.5378,-5.6548,-5.7734,-5.8577,-5.8758,-5.9935,-6.0627,-6.0127,-6.0473,-6.0834,-6.0983,-6.1136,-6.1292,-6.1481,-6.1609,-6.172,-6.172,-6.172,-6.1686,-6.1697,-6.1711,-6.1717,-6.1719,-6.1719,-6.1719,-6.1719,-6.1719,-6.1719,-6.1719,-6.1719,-6.1719,-2.9291,-2.9571,0.0,0.0,0.0,0.0,-3.1675,-3.147,0.0,0.0,0.0,0.0,0.0,0.0,0.0,0.0,0.0,0.0,0.0,0.0,0.0,0.0,0.0,0.0,0.0,-3.8202,-3.8202,-3.8202,-3.7777,-3.7548,-3.7471,-3.7134,-3.7056,-3.7471,-3.7134,-3.6978,-3.6822,-3.724,-3.7749,-3.8323,-3.8723,-3.9205,-3.9889,-4.0509,-4.0783,-4.0919,-4.139,-4.1588,-4.1588,-4.1588,-4.1588,-4.1588,-4.1588,-4.2031,-4.2758,-4.3421,-4.4117,-4.4812,-4.5539,-4.6301,-4.7001,-4.7671,-4.8383,-4.9161,-4.9801,-5.0011,-5.0011,-5.0011,-5.0263,-5.0694,-5.1643,-5.2123,-5.2615,-5.3563,-5.3794,-5.3794,-5.3794,-5.3906,-5.4354,-5.557,-5.5907,-5.6405,-5.7707,-5.8807,-5.955,-5.9627,-6.0281,-6.0781,-6.0781,-6.0781,-6.0856,-6.1002,-6.1136,-6.1292,-6.15,-6.1609,-6.172,-6.172,-6.172,-6.1681,-6.1686,-6.1711,-6.1718,-6.1719,-6.1719,-6.1719,-6.1719,-6.1719,-6.1719,-6.1719,-6.1719,-6.1719,-3.0489,-3.0853,-3.1112,0.0,0.0,0.0,0.0,-3.1572,0.0,0.0,0.0,0.0,0.0,0.0,0.0,0.0,0.0,0.0,0.0,0.0,0.0,0.0,0.0,0.0,0.0,-3.8202,-3.8202,-3.8202,-3.7519,-3.7007,-3.6615,-3.6536,-3.6536,-3.6615,-3.685,-3.6665,-3.5951,-3.6377,-3.685,-3.7289,-3.7366,-3.8294,-3.9889,-4.003,-4.0615,-4.1456,-4.1522,-4.1588,-4.1588,-4.1588,-4.1588,-4.1588,-4.1588,-4.2031,-4.2758,-4.3421,-4.4117,-4.4812,-4.5539,-4.6652,-4.7704,-4.7868,-4.8731,-4.9801,-4.9952,-5.0011,-5.0011,-5.0149,-5.062,-5.1192,-5.1874,-5.2481,-5.3078,-5.3678,-5.3794,-5.3794,-5.3794,-5.454,-5.557,-5.6727,-5.6443,-5.6595,-5.8509,-5.9191,-5.9742,-6.0435,-6.0704,-6.0781,-6.0781,-6.0781,-6.0882,-6.1151,-6.1172,-6.1328,-6.1615,-6.1671,-6.172,-6.172,-6.172,-6.169,-6.1704,-6.1697,-6.1707,-6.1719,-6.1719,-6.1719,-6.1719,-6.1719,-6.1719,-6.1719,-6.1719,-6.1719,0.0,0.0,-3.1474,-3.2751,0.0,0.0,0.0,0.0,0.0,0.0,0.0,0.0,0.0,0.0,0.0,0.0,0.0,0.0,0.0,0.0,0.0,0.0,0.0,0.0,0.0,-3.8202,-3.8052,-3.7596,-3.7056,-3.6615,-3.6405,-3.6138,-3.6138,-3.6405,-3.6377,-3.6111,-3.571,-3.6138,-3.6615,-3.6978,-3.7211,-3.8098,-3.9493,-3.9778,-4.0409,-4.1189,-4.1456,-4.1588,-4.1588,-4.1588,-4.181,-4.2126,-4.2126,-4.2568,-4.3295,-4.3959,-4.4654,-4.5389,-4.6064,-4.6759,-4.7473,-4.8192,-4.8855,-4.953,-4.986,-5.0011,-5.0092,-5.0474,-5.0875,-5.1398,-5.2289,-5.2784,-5.324,-5.3678,-5.3794,-5.3905,-5.4314,-5.5024,-5.6049,-5.7618,-5.7688,-5.8044,-5.9677,-6.0056,-6.0281,-6.0742,-6.0781,-6.0781,-6.0781,-6.0856,-6.0964,-6.1158,-6.1292,-6.1442,-6.1671,-6.172,-6.172,-6.172,-6.172,-6.169,-6.1709,-6.1709,-6.1713,-6.1719,-6.1719,-6.1719,-6.1719,-6.1719,-6.1719,-6.1719,-6.1719,-6.1719,0.0,0.0,0.0,0.0,0.0,-3.2779,0.0,0.0,0.0,-3.3403,0.0,0.0,0.0,0.0,0.0,0.0,0.0,0.0,0.0,0.0,0.0,0.0,0.0,0.0,0.0,-3.8052,-3.7749,-3.69,-3.6536,-3.6405,-3.6218,-3.5898,-3.5871,-3.6218,-3.5898,-3.571,-3.571,-3.6058,-3.6457,-3.6929,-3.724,-3.7976,-3.9162,-3.9565,-4.02,-4.0987,-4.139,-4.1588,-4.1588,-4.1588,-4.2031,-4.2695,-4.2695,-4.32,-4.399,-4.4636,-4.5373,-4.6048,-4.6759,-4.7069,-4.7406,-4.8572,-4.904,-4.9222,-4.9801,-5.0068,-5.0228,-5.0786,-5.1209,-5.1714,-5.2688,-5.3078,-5.3359,-5.3903,-5.4054,-5.424,-5.5173,-5.5769,-5.6639,-5.8318,-5.9064,-5.9716,-6.0642,-6.0781,-6.0781,-6.0781,-6.0781,-6.0781,-6.0781,-6.0902,-6.1036,-6.1172,-6.139,-6.1564,-6.1676,-6.172,-6.172,-6.172,-6.172,-6.169,-6.1709,-6.1717,-6.1719,-6.1719,-6.1719,-6.1719,-6.1719,-6.1719,-6.1719,-6.1719,-6.1719,-6.1719,0.0,0.0,0.0,0.0,-3.2671,0.0,0.0,0.0,-3.2209,-3.2345,0.0,0.0,0.0,0.0,0.0,0.0,0.0,0.0,0.0,0.0,0.0,0.0,0.0,0.0,0.0,0.0,-3.7317,-3.6536,-3.6405,-3.6218,-3.579,-3.571,-3.571,-3.579,-3.571,-3.571,-3.571,-3.571,-3.5978,-3.6484,-3.6536,-3.7491,-3.9247,-3.932,-4.017,-4.1522,-4.1588,-4.1588,-4.1588,-4.1588,-4.2031,-4.2695,-4.2695,-4.3453,-4.4661,-4.5419,-4.6076,-4.6828,-4.7539,-4.8192,-4.8697,-4.8821,-4.9376,-4.986,-4.9952,-5.0341,-5.0749,-5.1087,-5.1813,-5.2607,-5.2993,-5.3404,-5.3903,-5.4686,-5.4871,-5.521,-5.6367,-5.7431,-5.8318,-5.8911,-5.9894,-6.0642,-6.0781,-6.0781,-6.0781,-6.0781,-6.0781,-6.0781,-6.0781,-6.0902,-6.1036,-6.1172,-6.139,-6.1564,-6.1676,-6.172,-6.172,-6.172,-6.172,-6.169,-6.1709,-6.1717,-6.1719,-6.1719,-6.1719,-6.1719,-6.1719,-6.1719,-6.1719,-6.1719,-6.1719,-6.1719,0.0,0.0,0.0,0.0,0.0,0.0,-3.2164,0.0,-3.2264,0.0,0.0,0.0,0.0,0.0,0.0,0.0,0.0,0.0,0.0,0.0,0.0,0.0,0.0,0.0,0.0,0.0,0.0,0.0,0.0,-3.5898,-3.571,-3.571,-3.571,-3.571,-3.571,-3.571,-3.571,-3.571,-3.6031,-3.6772,-3.7056,-3.8069,-3.9677,-3.999,-4.0684,-4.1588,-4.1588,-4.1588,-4.162,-4.2062,-4.2631,-4.3327,-4.3706,-4.4211,-4.4819,-4.5938,-4.6568,-4.6932,-4.8127,-4.8635,-4.8944,-4.9376,-4.9742,-5.0068,-5.0341,-5.062,-5.1017,-5.1861,-5.2345,-5.2937,-5.3916,-5.4383,-5.4723,-5.554,-5.592,-5.6331,-5.7264,-5.8192,-5.9035,-5.9682,-6.0342,-6.0781,-6.0781,-6.0781,-6.0781,-6.0781,-6.0781,-6.0827,-6.0882,-6.1018,-6.1182,-6.1367,-6.1517,-6.1654,-6.1715,-6.172,-6.172,-6.172,-6.1694,-6.1707,-6.1716,-6.1718,-6.1719,-6.1719,-6.1719,-6.1719,-6.1719,-6.1719,-6.1719,-6.1719,-6.1719,-6.1719,-3.0466,0.0,0.0,0.0,0.0,0.0,0.0,0.0,0.0,0.0,0.0,0.0,0.0,0.0,0.0,0.0,0.0,0.0,0.0,0.0,0.0,0.0,0.0,0.0,0.0,0.0,0.0,0.0,0.0,0.0,-3.571,-3.571,-3.571,-3.571,-3.571,-3.571,-3.571,-3.5951,-3.6401,-3.7028,-3.7691,-3.8635,-3.9929,-4.0409,-4.0956,-4.1588,-4.1588,-4.1683,-4.1936,-4.2473,-4.3337,-4.4299,-4.4776,-4.5234,-4.5704,-4.6702,-4.7204,-4.7539,-4.8793,-4.9222,-4.9316,-4.9801,-5.0092,-5.032,-5.064,-5.1017,-5.1449,-5.2391,-5.293,-5.3518,-5.4716,-5.5169,-5.5577,-5.6432,-5.6855,-5.7373,-5.8307,-5.8988,-5.9622,-6.0326,-6.0622,-6.0781,-6.0781,-6.0781,-6.0781,-6.0781,-6.0781,-6.0834,-6.0964,-6.112,-6.1279,-6.1481,-6.1602,-6.172,-6.172,-6.172,-6.172,-6.172,-6.1694,-6.1711,-6.1719,-6.1719,-6.1719,-6.1719,-6.1719,-6.1719,-6.1719,-6.1719,-6.1719,-6.1719,-6.1719,-6.1719,0.0,0.0,0.0,-3.1404,0.0,0.0,0.0,0.0,-3.2888,0.0,0.0,0.0,0.0,0.0,0.0,0.0,0.0,0.0,0.0,0.0,0.0,0.0,0.0,0.0,0.0,0.0,0.0,0.0,0.0,0.0,-3.571,-3.571,-3.571,-3.571,-3.571,-3.571,-3.571,-3.648,-3.7,-3.7204,-3.804,-3.8971,-4.0109,-4.0109,-4.069,-4.1588,-4.1588,-4.1999,-4.2663,-4.2663,-4.393,-4.5726,-4.5759,-4.6584,-4.777,-4.7868,-4.8256,-4.8944,-4.9708,-4.9952,-4.9952,-5.0011,-5.0341,-5.0749,-5.0803,-5.15,-5.2408,-5.2607,-5.3628,-5.4704,-5.4941,-5.5652,-5.6469,-5.7286,-5.7714,-5.8272,-5.9484,-6.0023,-6.0376,-6.0734,-6.0781,-6.0781,-6.0781,-6.0781,-6.0781,-6.0781,-6.0781,-6.0834,-6.0964,-6.112,-6.1279,-6.1481,-6.1602,-6.172,-6.172,-6.172,-6.172,-6.172,-6.172,-6.1701,-6.1719,-6.1719,-6.1719,-6.1719,-6.1719,-6.1719,-6.1719,-6.1719,-6.1719,-6.1719,-6.1719,-6.1719,0.0,0.0,-3.1414,-3.1627,0.0,0.0,0.0,0.0,0.0,0.0,0.0,0.0,0.0,0.0,0.0,0.0,0.0,0.0,0.0,0.0,0.0,0.0,0.0,0.0,0.0,0.0,0.0,0.0,0.0,0.0,0.0,-3.7281,-3.7049,-3.648,-3.7,-3.7049,-3.648,-3.7281,-3.7965,-3.8384,-3.9073,-3.9819,-4.0615,-4.0925,-4.1543,-4.2315,-4.2315,-4.2726,-4.3421,-4.3832,-4.4761,-4.5859,-4.6277,-4.7309,-4.8572,-4.8572,-4.8697,-4.904,-4.9708,-5.0011,-5.0068,-5.0397,-5.064,-5.091,-5.1651,-5.2137,-5.2708,-5.3739,-5.4437,-5.5081,-5.6354,-5.6878,-5.7367,-5.8388,-5.8911,-5.9365,-5.9985,-6.0376,-6.0647,-6.0757,-6.0781,-6.0781,-6.0781,-6.0781,-6.0781,-6.0781,-6.0781,-6.0899,-6.1103,-6.1158,-6.1316,-6.1602,-6.1671,-6.172,-6.172,-6.172,-6.1686,-6.1701,-6.169,-6.1701,-6.1719,-6.1719,-6.1719,-6.1719,-6.1719,-6.1719,-6.1719,-6.1719,-6.1719,-6.1719,-6.1719,-6.1719,-3.0695,-3.0959,0.0,-3.1598,-3.1523,0.0,-3.1995,0.0,0.0,0.0,0.0,0.0,0.0,0.0,0.0,0.0,0.0,0.0,0.0,0.0,0.0,0.0,0.0,0.0,0.0,0.0,-3.7522,-3.8448,0.0,0.0,0.0,0.0,-3.789,-3.7357,-3.7814,-3.789,-3.7281,-3.8115,-3.8782,-3.929,-3.996,-4.0547,-4.1153,-4.1708,-4.2252,-4.2695,-4.2947,-4.3453,-4.4117,-4.4527,-4.5442,-4.6584,-4.7041,-4.8063,-4.9256,-4.904,-4.9101,-4.9376,-4.986,-5.0011,-5.0126,-5.062,-5.091,-5.1244,-5.2126,-5.2817,-5.3456,-5.4433,-5.5188,-5.6051,-5.7208,-5.7816,-5.8273,-5.9028,-5.9605,-6.0061,-6.0265,-6.0572,-6.0781,-6.0781,-6.0781,-6.0781,-6.0781,-6.0781,-6.0781,-6.0781,-6.085,-6.0963,-6.1158,-6.1279,-6.1412,-6.1671,-6.172,-6.172,-6.172,-6.172,-6.1686,-6.1701,-6.1701,-6.1711,-6.1719,-6.1719,-6.1719,-6.1719,-6.1719,-6.1719,-6.1719,-6.1719,-6.1719,-6.1719,-6.1719,-6.1719]}]]